[[{"header":{"parameterUnit":"m.s-1","parameterCategory":1,"la1":31.0,"la2":29.5877,"lo1":-88.7671,"lo2":-86.6584,"dy":0.0162,"dx":0.0185,"nx":115,"ny":88,"refTime":"2024-03-01T18:00:00:Z","depth":0,"parameterNumber":2,"parameterNumberName":"U-component_of_WINDS"},"data":[0.0,0.0,0.0,0.0,0.0,0.0,0.0,0.0,0.0,0.0,0.0,0.0,0.0,0.0,0.0,0.0,0.0,0.0,0.0,0.0,0.0,0.0,0.0,0.0,0.0,0.0,0.0,0.0,0.0,0.0,0.0,0.0,0.0,0.0,0.0,0.0,0.0,0.0,0.0,0.0,0.0,0.0,0.0,0.0,0.0,0.0,0.0,0.0,0.0,0.0,0.0,0.0,0.0,0.0,0.0,0.0,0.0,0.0,0.0,0.0,0.0,0.0,0.0,0.0,0.0,0.0,0.0,0.0,0.0,0.0,0.0,0.0,0.0,0.0,0.0,0.0,0.0,0.0,0.0,0.0,0.0,0.0,0.0,0.0,0.0,0.0,0.0,0.0,0.0,0.0,0.0,0.0,0.0,0.0,0.0,0.0,0.0,0.0,0.0,0.0,0.0,0.0,0.0,0.0,0.0,0.0,0.0,0.0,0.0,0.0,0.0,0.0,0.0,0.0,0.0,0.0,0.0,0.0,0.0,0.0,0.0,0.0,0.0,0.0,0.0,0.0,0.0,0.0,0.0,0.0,0.0,0.0,0.0,0.0,0.0,0.0,0.0,0.0,0.0,0.0,0.0,0.0,0.0,0.0,0.0,0.0,0.0,0.0,0.0,0.0,0.0,0.0,0.0,0.0,0.0,0.0,0.0,0.0,0.0,0.0,0.0,0.0,0.0,0.0,0.0,0.0,0.0,0.0,0.0,0.0,0.0,0.0,0.0,0.0,0.0,0.0,0.0,0.0,0.0,0.0,0.0,0.0,0.0,0.0,0.0,0.0,0.0,0.0,0.0,0.0,0.0,0.0,0.0,0.0,0.0,0.0,0.0,0.0,0.0,0.0,0.0,0.0,0.0,0.0,0.0,0.0,0.0,0.0,0.0,0.0,0.0,0.0,0.0,0.0,0.0,0.0,0.0,0.0,0.0,0.0,0.0,0.0,0.0,0.0,0.0,0.0,0.0,0.0,0.0,0.0,0.0,0.0,0.0,0.0,0.0,0.0,0.0,0.0,0.0,0.0,0.0,0.0,0.0,0.0,0.0,0.0,0.0,0.0,0.0,0.0,0.0,0.0,0.0,0.0,0.0,0.0,0.0,0.0,0.0,0.0,0.0,0.0,0.0,0.0,0.0,0.0,0.0,0.0,0.0,0.0,0.0,0.0,0.0,0.0,0.0,0.0,0.0,0.0,0.0,0.0,0.0,0.0,0.0,0.0,0.0,0.0,0.0,0.0,0.0,0.0,0.0,0.0,0.0,0.0,0.0,0.0,0.0,0.0,0.0,0.0,0.0,0.0,0.0,0.0,0.0,0.0,0.0,0.0,0.0,0.0,0.0,0.0,0.0,0.0,0.0,0.0,0.0,0.0,0.0,0.0,0.0,0.0,0.0,0.0,0.0,0.0,0.0,0.0,0.0,0.0,0.0,0.0,0.0,0.0,0.0,0.0,0.0,0.0,0.0,0.0,0.0,0.0,0.0,0.0,0.0,0.0,0.0,0.0,0.0,0.0,0.0,0.0,0.0,0.0,0.0,0.0,0.0,0.0,0.0,0.0,0.0,0.0,0.0,0.0,0.0,0.0,0.0,0.0,0.0,0.0,0.0,0.0,0.0,0.0,0.0,0.0,0.0,0.0,0.0,0.0,0.0,0.0,0.0,0.0,0.0,0.0,0.0,0.0,0.0,0.0,0.0,0.0,0.0,0.0,0.0,0.0,0.0,0.0,0.0,0.0,0.0,0.0,0.0,0.0,0.0,0.0,0.0,0.0,0.0,0.0,0.0,0.0,0.0,0.0,0.0,0.0,0.0,0.0,0.0,0.0,0.0,0.0,0.0,0.0,0.0,0.0,0.0,0.0,0.0,0.0,0.0,0.0,0.0,0.0,0.0,0.0,0.0,0.0,0.0,0.0,0.0,0.0,0.0,0.0,0.0,0.0,0.0,0.0,0.0,0.0,0.0,0.0,0.0,0.0,0.0,0.0,0.0,0.0,0.0,0.0,0.0,0.0,0.0,0.0,0.0,0.0,0.0,0.0,0.0,0.0,0.0,0.0,0.0,0.0,0.0,0.0,0.0,0.0,0.0,0.0,0.0,0.0,0.0,0.0,0.0,0.0,0.0,0.0,0.0,0.0,0.0,0.0,0.0,0.0,0.0,0.0,0.0,0.0,0.0,0.0,0.0,0.0,0.0,0.0,0.0,0.0,0.0,0.0,0.0,0.0,0.0,0.0,0.0,0.0,0.0,0.0,0.0,0.0,0.0,0.0,0.0,0.0,0.0,0.0,0.0,0.0,0.0,0.0,0.0,0.0,0.0,0.0,0.0,0.0,0.0,0.0,0.0,0.0,0.0,0.0,0.0,0.0,0.0,0.0,0.0,0.0,0.0,0.0,0.0,0.0,0.0,0.0,0.0,0.0,0.0,0.0,0.0,0.0,0.0,0.0,0.0,0.0,0.0,0.0,0.0,0.0,0.0,0.0,0.0,0.0,0.0,0.0,0.0,0.0,0.0,0.0,0.0,0.0,0.0,0.0,0.0,0.0,0.0,0.0,0.0,0.0,0.0,0.0,0.0,0.0,0.0,0.0,0.0,0.0,0.0,0.0,0.0,0.0,0.0,0.0,0.0,0.0,0.0,0.0,0.0,0.0,0.0,0.0,0.0,0.0,0.0,0.0,0.0,0.0,0.0,0.0,0.0,0.0,0.0,0.0,0.0,0.0,0.0,0.0,0.0,0.0,0.0,0.0,0.0,0.0,0.0,0.0,0.0,0.0,0.0,0.0,0.0,0.0,0.0,0.0,0.0,0.0,0.0,0.0,0.0,0.0,0.0,0.0,0.0,0.0,0.0,0.0,0.0,0.0,0.0,0.0,0.0,0.0,0.0,0.0,0.0,0.0,0.0,0.0,0.0,0.0,0.0,0.0,0.0,0.0,0.0,0.0,0.0,0.0,0.0,0.0,0.0,0.0,0.0,0.0,0.0,0.0,0.0,0.0,0.0,0.0,0.0,0.0,0.0,0.0,0.0,0.0,0.0,0.0,0.0,0.0,0.0,0.0,0.0,0.0,0.0,0.0,0.0,0.0,0.0,0.0,0.0,0.0,0.0,0.0,0.0,0.0,0.0,0.0,0.0,0.0,0.0,0.0,0.0,0.0,0.0,0.0,0.0,0.0,0.0,0.0,0.0,0.0,0.0,0.0,0.0,0.0,0.0,0.0,0.0,0.0,0.0,0.0,0.0,0.0,0.0,0.0,0.0,0.0,0.0,0.0,0.0,0.0,0.0,0.0,0.0,0.0,0.0,0.0,0.0,0.0,0.0,0.0,0.0,0.0,0.0,0.0,0.0,0.0,0.0,0.0,0.0,0.0,0.0,0.0,0.0,0.0,0.0,0.0,0.0,0.0,0.0,0.0,0.0,0.0,0.0,0.0,0.0,0.0,0.0,0.0,0.0,0.0,0.0,0.0,0.0,0.0,0.0,0.0,0.0,0.0,0.0,0.0,0.0,0.0,0.0,0.0,0.0,0.0,0.0,0.0,0.0,0.0,0.0,0.0,0.0,0.0,0.0,0.0,0.0,0.0,0.0,0.0,0.0,0.0,0.0,0.0,0.0,0.0,0.0,0.0,0.0,0.0,0.0,0.0,0.0,0.0,0.0,0.0,0.0,0.0,0.0,0.0,0.0,0.0,0.0,0.0,0.0,0.0,0.0,0.0,0.0,0.0,0.0,0.0,0.0,0.0,0.0,0.0,0.0,0.0,0.0,0.0,0.0,0.0,0.0,0.0,0.0,0.0,0.0,0.0,0.0,0.0,0.0,0.0,0.0,0.0,0.0,0.0,0.0,0.0,0.0,0.0,0.0,0.0,0.0,0.0,0.0,0.0,0.0,0.0,0.0,0.0,0.0,0.0,0.0,0.0,0.0,0.0,0.0,0.0,0.0,0.0,0.0,0.0,0.0,0.0,0.0,0.0,0.0,0.0,0.0,0.0,0.0,0.0,0.0,0.0,0.0,0.0,0.0,0.0,0.0,0.0,0.0,0.0,0.0,0.0,0.0,0.0,0.0,0.0,0.0,0.0,0.0,0.0,0.0,0.0,0.0,0.0,0.0,0.0,0.0,0.0,0.0,0.0,0.0,0.0,0.0,0.0,0.0,0.0,0.0,0.0,0.0,0.0,0.0,0.0,0.0,0.0,0.0,0.0,0.0,0.0,0.0,0.0,0.0,0.0,0.0,0.0,0.0,0.0,-2.4296,0.0,0.0,0.0,0.0,0.0,0.0,0.0,0.0,0.0,0.0,0.0,0.0,0.0,0.0,0.0,0.0,0.0,0.0,0.0,0.0,0.0,0.0,0.0,0.0,0.0,0.0,0.0,0.0,0.0,0.0,0.0,0.0,0.0,0.0,0.0,0.0,0.0,0.0,0.0,0.0,0.0,0.0,0.0,0.0,0.0,0.0,0.0,0.0,0.0,0.0,0.0,0.0,0.0,0.0,0.0,0.0,0.0,0.0,0.0,0.0,0.0,0.0,0.0,0.0,0.0,0.0,0.0,0.0,0.0,0.0,0.0,0.0,0.0,0.0,0.0,0.0,0.0,0.0,0.0,0.0,0.0,0.0,0.0,0.0,0.0,0.0,0.0,0.0,0.0,0.0,0.0,0.0,0.0,0.0,0.0,0.0,0.0,0.0,0.0,0.0,0.0,0.0,0.0,0.0,0.0,0.0,0.0,0.0,0.0,0.0,-2.5652,-2.4106,-2.5824,-2.5893,-2.4037,0.0,0.0,0.0,0.0,0.0,0.0,0.0,0.0,0.0,0.0,0.0,0.0,0.0,0.0,0.0,0.0,0.0,0.0,0.0,0.0,0.0,0.0,0.0,0.0,0.0,0.0,0.0,0.0,0.0,0.0,0.0,0.0,0.0,0.0,0.0,0.0,0.0,0.0,0.0,0.0,0.0,0.0,0.0,0.0,0.0,0.0,0.0,0.0,0.0,0.0,0.0,0.0,0.0,0.0,0.0,0.0,0.0,0.0,0.0,0.0,0.0,0.0,0.0,0.0,0.0,0.0,0.0,0.0,0.0,0.0,0.0,0.0,0.0,0.0,0.0,0.0,0.0,0.0,0.0,0.0,0.0,0.0,0.0,0.0,0.0,0.0,0.0,0.0,0.0,0.0,0.0,0.0,0.0,0.0,0.0,0.0,0.0,0.0,0.0,0.0,0.0,0.0,0.0,0.0,0.0,0.0,0.0,0.0,0.0,0.0,0.0,0.0,-2.6009,-2.6077,-2.4236,0.0,0.0,0.0,0.0,0.0,0.0,0.0,0.0,0.0,0.0,0.0,0.0,0.0,0.0,0.0,0.0,0.0,0.0,0.0,0.0,0.0,0.0,0.0,0.0,0.0,0.0,0.0,0.0,0.0,0.0,0.0,0.0,0.0,0.0,0.0,0.0,0.0,0.0,0.0,0.0,0.0,0.0,0.0,0.0,0.0,0.0,0.0,0.0,0.0,0.0,0.0,0.0,0.0,0.0,0.0,0.0,0.0,0.0,0.0,0.0,0.0,0.0,0.0,0.0,0.0,0.0,0.0,0.0,0.0,0.0,0.0,0.0,0.0,0.0,0.0,0.0,0.0,0.0,0.0,0.0,0.0,0.0,0.0,0.0,0.0,0.0,0.0,0.0,0.0,0.0,0.0,0.0,0.0,0.0,0.0,0.0,0.0,0.0,0.0,0.0,0.0,0.0,0.0,0.0,0.0,0.0,0.0,0.0,0.0,0.0,-2.4912,-2.5766,-2.6054,0.0,-2.5705,0.0,0.0,0.0,0.0,0.0,0.0,0.0,0.0,0.0,0.0,0.0,0.0,0.0,0.0,0.0,0.0,0.0,0.0,0.0,0.0,0.0,0.0,0.0,0.0,0.0,0.0,0.0,0.0,0.0,0.0,0.0,0.0,0.0,0.0,0.0,0.0,0.0,0.0,0.0,0.0,0.0,0.0,0.0,0.0,0.0,0.0,0.0,0.0,0.0,0.0,0.0,0.0,0.0,0.0,0.0,0.0,0.0,0.0,0.0,0.0,0.0,0.0,0.0,0.0,0.0,0.0,0.0,0.0,0.0,0.0,0.0,0.0,0.0,0.0,0.0,0.0,0.0,0.0,0.0,0.0,0.0,0.0,0.0,0.0,0.0,0.0,0.0,0.0,0.0,0.0,0.0,0.0,0.0,0.0,0.0,0.0,0.0,0.0,0.0,0.0,0.0,0.0,0.0,0.0,0.0,0.0,0.0,0.0,0.0,0.0,-2.4524,-2.5394,-2.5364,-2.5122,0.0,0.0,0.0,0.0,0.0,0.0,0.0,0.0,0.0,0.0,0.0,0.0,0.0,0.0,0.0,0.0,0.0,0.0,0.0,0.0,0.0,0.0,0.0,0.0,0.0,0.0,0.0,0.0,0.0,0.0,0.0,0.0,0.0,0.0,0.0,0.0,0.0,0.0,0.0,0.0,0.0,0.0,0.0,0.0,0.0,0.0,0.0,0.0,0.0,0.0,0.0,0.0,0.0,0.0,0.0,0.0,0.0,0.0,0.0,0.0,0.0,0.0,0.0,0.0,0.0,0.0,0.0,0.0,0.0,0.0,0.0,0.0,0.0,0.0,0.0,0.0,0.0,0.0,0.0,0.0,0.0,0.0,0.0,0.0,0.0,0.0,0.0,0.0,0.0,0.0,0.0,0.0,0.0,0.0,0.0,0.0,0.0,0.0,0.0,0.0,0.0,0.0,0.0,0.0,0.0,0.0,0.0,0.0,0.0,0.0,-2.3867,-2.4201,-2.4939,-2.4393,-2.3999,-2.3874,0.0,0.0,0.0,0.0,0.0,0.0,0.0,0.0,0.0,0.0,0.0,0.0,0.0,0.0,0.0,0.0,0.0,0.0,0.0,0.0,0.0,0.0,0.0,0.0,0.0,0.0,0.0,0.0,0.0,0.0,0.0,0.0,0.0,0.0,0.0,0.0,0.0,0.0,0.0,0.0,0.0,0.0,0.0,0.0,0.0,0.0,0.0,0.0,0.0,0.0,0.0,0.0,0.0,0.0,0.0,0.0,0.0,0.0,0.0,0.0,0.0,0.0,0.0,0.0,0.0,0.0,0.0,0.0,0.0,0.0,0.0,0.0,0.0,0.0,0.0,0.0,0.0,0.0,0.0,0.0,0.0,0.0,0.0,0.0,0.0,0.0,0.0,0.0,0.0,0.0,0.0,0.0,0.0,0.0,0.0,0.0,0.0,0.0,0.0,0.0,0.0,0.0,0.0,0.0,0.0,0.0,0.0,0.0,-2.5593,-2.4149,-2.3892,-2.5006,-2.3205,-2.28,0.0,0.0,0.0,0.0,0.0,0.0,0.0,0.0,0.0,0.0,0.0,0.0,0.0,0.0,0.0,0.0,0.0,0.0,0.0,0.0,0.0,0.0,0.0,0.0,0.0,0.0,0.0,0.0,0.0,0.0,0.0,0.0,0.0,0.0,0.0,0.0,0.0,0.0,0.0,0.0,0.0,0.0,0.0,0.0,0.0,0.0,0.0,0.0,0.0,0.0,0.0,0.0,0.0,0.0,0.0,0.0,0.0,0.0,0.0,0.0,0.0,0.0,0.0,0.0,0.0,0.0,0.0,0.0,0.0,0.0,0.0,0.0,0.0,0.0,0.0,0.0,0.0,0.0,0.0,0.0,0.0,0.0,0.0,0.0,0.0,0.0,0.0,0.0,0.0,0.0,0.0,0.0,0.0,0.0,0.0,0.0,0.0,0.0,0.0,0.0,0.0,0.0,0.0,0.0,0.0,0.0,0.0,0.0,0.0,-2.3049,-2.3118,-2.3496,-2.4195,-2.3263,-2.2953,0.0,0.0,0.0,0.0,0.0,0.0,0.0,0.0,0.0,0.0,0.0,0.0,0.0,0.0,0.0,0.0,0.0,0.0,0.0,0.0,0.0,0.0,0.0,0.0,0.0,0.0,0.0,0.0,0.0,0.0,0.0,0.0,0.0,0.0,0.0,0.0,0.0,0.0,0.0,0.0,0.0,0.0,0.0,0.0,0.0,0.0,0.0,0.0,0.0,0.0,0.0,0.0,0.0,0.0,0.0,0.0,0.0,0.0,0.0,0.0,0.0,0.0,0.0,0.0,0.0,0.0,0.0,0.0,0.0,0.0,0.0,0.0,0.0,0.0,0.0,0.0,0.0,0.0,0.0,0.0,0.0,0.0,0.0,0.0,0.0,0.0,0.0,0.0,0.0,0.0,0.0,0.0,0.0,0.0,0.0,0.0,0.0,0.0,0.0,0.0,0.0,0.0,0.0,0.0,0.0,0.0,0.0,0.0,0.0,-2.1807,0.0,-2.32,-2.3308,-2.2936,-2.2605,0.0,0.0,0.0,0.0,0.0,0.0,0.0,0.0,0.0,0.0,0.0,0.0,0.0,0.0,0.0,0.0,0.0,0.0,0.0,0.0,0.0,0.0,0.0,0.0,0.0,0.0,0.0,0.0,0.0,0.0,0.0,0.0,0.0,0.0,0.0,0.0,0.0,0.0,0.0,0.0,0.0,0.0,0.0,0.0,0.0,0.0,0.0,0.0,0.0,0.0,0.0,0.0,0.0,0.0,0.0,0.0,0.0,0.0,0.0,0.0,0.0,0.0,0.0,0.0,0.0,0.0,0.0,0.0,0.0,0.0,0.0,0.0,0.0,0.0,0.0,0.0,0.0,0.0,0.0,0.0,0.0,0.0,0.0,0.0,0.0,0.0,0.0,0.0,0.0,0.0,0.0,0.0,0.0,0.0,0.0,0.0,0.0,0.0,0.0,0.0,0.0,0.0,0.0,0.0,0.0,0.0,0.0,0.0,-2.2335,-2.239,-2.2898,-2.2941,-2.244,-2.2127,-2.1659,0.0,0.0,0.0,0.0,0.0,0.0,0.0,0.0,0.0,0.0,0.0,0.0,0.0,0.0,0.0,0.0,0.0,0.0,0.0,0.0,0.0,0.0,0.0,0.0,0.0,0.0,0.0,0.0,0.0,0.0,0.0,0.0,0.0,0.0,0.0,0.0,0.0,0.0,0.0,0.0,0.0,0.0,0.0,0.0,0.0,0.0,0.0,0.0,0.0,0.0,0.0,0.0,0.0,0.0,0.0,0.0,0.0,0.0,0.0,0.0,0.0,0.0,0.0,0.0,0.0,0.0,0.0,0.0,0.0,0.0,0.0,0.0,0.0,0.0,0.0,0.0,0.0,0.0,0.0,0.0,0.0,0.0,0.0,0.0,0.0,0.0,0.0,0.0,0.0,0.0,0.0,0.0,0.0,0.0,0.0,0.0,0.0,0.0,0.0,0.0,0.0,0.0,0.0,0.0,0.0,0.0,0.0,0.0,0.0,-2.2199,-2.2485,-2.2734,-2.2857,-2.2075,-2.1747,0.0,0.0,0.0,0.0,0.0,0.0,0.0,0.0,0.0,0.0,0.0,0.0,0.0,0.0,0.0,0.0,0.0,0.0,0.0,0.0,0.0,0.0,0.0,0.0,0.0,0.0,0.0,0.0,0.0,0.0,0.0,0.0,0.0,0.0,0.0,0.0,0.0,0.0,0.0,0.0,0.0,0.0,0.0,0.0,0.0,0.0,0.0,0.0,0.0,0.0,0.0,0.0,0.0,0.0,0.0,0.0,0.0,0.0,0.0,0.0,0.0,0.0,0.0,0.0,0.0,0.0,0.0,0.0,0.0,0.0,0.0,0.0,0.0,0.0,0.0,0.0,0.0,0.0,0.0,0.0,0.0,0.0,0.0,0.0,0.0,0.0,0.0,0.0,0.0,0.0,0.0,0.0,0.0,0.0,0.0,0.0,0.0,0.0,0.0,0.0,0.0,0.0,0.0,0.0,0.0,0.0,0.0,0.0,0.0,-2.2314,-2.2844,-2.3279,-2.3567,-2.279,-2.2313,-2.2207,0.0,0.0,0.0,0.0,0.0,0.0,0.0,0.0,0.0,0.0,0.0,0.0,0.0,0.0,0.0,0.0,0.0,0.0,0.0,0.0,0.0,0.0,0.0,0.0,0.0,0.0,0.0,0.0,0.0,0.0,0.0,0.0,0.0,0.0,0.0,0.0,0.0,0.0,0.0,0.0,0.0,0.0,0.0,0.0,0.0,0.0,0.0,0.0,0.0,0.0,0.0,0.0,0.0,0.0,0.0,0.0,0.0,0.0,0.0,0.0,0.0,0.0,0.0,0.0,0.0,0.0,0.0,0.0,0.0,0.0,0.0,0.0,0.0,0.0,0.0,0.0,0.0,0.0,0.0,0.0,0.0,0.0,0.0,0.0,0.0,0.0,0.0,0.0,0.0,0.0,0.0,0.0,0.0,0.0,0.0,0.0,0.0,0.0,0.0,0.0,0.0,0.0,0.0,0.0,0.0,0.0,0.0,0.0,-2.2723,-2.3915,-2.4498,-2.4445,-2.4046,-2.3299,0.0,0.0,0.0,0.0,0.0,0.0,0.0,0.0,0.0,0.0,0.0,0.0,0.0,0.0,0.0,0.0,0.0,0.0,0.0,0.0,0.0,0.0,0.0,0.0,0.0,0.0,0.0,0.0,0.0,0.0,0.0,0.0,0.0,0.0,0.0,0.0,0.0,0.0,0.0,0.0,0.0,0.0,0.0,0.0,0.0,0.0,0.0,0.0,0.0,0.0,0.0,0.0,0.0,0.0,0.0,0.0,0.0,0.0,0.0,0.0,0.0,0.0,0.0,0.0,0.0,0.0,0.0,0.0,0.0,0.0,0.0,0.0,0.0,0.0,0.0,0.0,0.0,0.0,0.0,0.0,0.0,0.0,0.0,0.0,0.0,0.0,0.0,0.0,0.0,0.0,0.0,0.0,0.0,0.0,0.0,0.0,0.0,0.0,0.0,0.0,0.0,0.0,0.0,0.0,0.0,0.0,0.0,0.0,0.0,-2.4068,-2.536,-2.5791,-2.5231,-2.416,-2.344,0.0,0.0,0.0,0.0,0.0,0.0,0.0,0.0,0.0,0.0,0.0,0.0,0.0,0.0,0.0,0.0,0.0,0.0,0.0,0.0,0.0,0.0,0.0,0.0,0.0,0.0,0.0,0.0,0.0,0.0,0.0,0.0,0.0,0.0,0.0,0.0,0.0,0.0,0.0,0.0,0.0,0.0,0.0,0.0,0.0,0.0,0.0,0.0,0.0,0.0,0.0,0.0,0.0,0.0,0.0,0.0,0.0,0.0,0.0,0.0,0.0,0.0,0.0,0.0,0.0,0.0,0.0,0.0,0.0,0.0,0.0,0.0,0.0,0.0,0.0,0.0,0.0,0.0,0.0,0.0,0.0,0.0,0.0,0.0,0.0,0.0,0.0,0.0,0.0,0.0,0.0,0.0,0.0,0.0,0.0,0.0,0.0,0.0,0.0,0.0,0.0,0.0,0.0,0.0,0.0,0.0,0.0,0.0,-2.3962,-2.498,-2.6583,-2.7377,-2.7189,-2.5565,-2.4419,0.0,0.0,0.0,0.0,0.0,0.0,0.0,0.0,0.0,0.0,0.0,0.0,0.0,0.0,0.0,0.0,0.0,0.0,0.0,0.0,0.0,0.0,0.0,0.0,0.0,0.0,0.0,0.0,0.0,0.0,0.0,0.0,0.0,0.0,0.0,0.0,0.0,0.0,0.0,0.0,0.0,0.0,0.0,0.0,0.0,0.0,0.0,0.0,0.0,0.0,0.0,0.0,0.0,0.0,0.0,0.0,0.0,0.0,0.0,0.0,0.0,0.0,0.0,0.0,0.0,0.0,0.0,0.0,0.0,0.0,0.0,0.0,0.0,0.0,0.0,0.0,0.0,0.0,0.0,0.0,0.0,0.0,0.0,0.0,0.0,0.0,0.0,0.0,0.0,0.0,0.0,0.0,0.0,0.0,0.0,0.0,0.0,0.0,0.0,0.0,0.0,0.0,0.0,0.0,0.0,0.0,0.0,0.0,-2.4927,-2.5611,-2.7566,-2.8845,-2.9306,-2.7323,-2.5731,0.0,0.0,0.0,0.0,0.0,0.0,0.0,0.0,0.0,0.0,0.0,0.0,0.0,0.0,0.0,0.0,0.0,0.0,0.0,0.0,0.0,0.0,0.0,0.0,0.0,0.0,0.0,0.0,0.0,0.0,0.0,0.0,0.0,0.0,0.0,0.0,0.0,0.0,0.0,0.0,0.0,0.0,0.0,0.0,0.0,0.0,0.0,0.0,0.0,0.0,0.0,0.0,0.0,0.0,0.0,0.0,0.0,0.0,0.0,0.0,0.0,0.0,0.0,0.0,0.0,0.0,0.0,0.0,0.0,0.0,0.0,0.0,0.0,0.0,0.0,0.0,0.0,0.0,0.0,0.0,0.0,0.0,0.0,0.0,0.0,0.0,0.0,0.0,0.0,0.0,0.0,0.0,0.0,0.0,0.0,0.0,0.0,0.0,0.0,0.0,0.0,0.0,0.0,0.0,0.0,0.0,0.0,0.0,-2.5186,-2.6338,-2.7832,-2.8655,-2.8763,-2.6764,-2.5782,0.0,0.0,0.0,0.0,0.0,0.0,0.0,0.0,0.0,0.0,0.0,0.0,0.0,0.0,0.0,0.0,0.0,0.0,0.0,0.0,0.0,0.0,0.0,0.0,0.0,0.0,0.0,0.0,0.0,0.0,0.0,0.0,0.0,0.0,0.0,0.0,0.0,0.0,0.0,0.0,0.0,0.0,0.0,0.0,0.0,0.0,0.0,0.0,-2.6118,0.0,0.0,0.0,0.0,0.0,0.0,0.0,0.0,0.0,0.0,0.0,0.0,0.0,0.0,0.0,0.0,0.0,0.0,0.0,0.0,0.0,0.0,0.0,0.0,0.0,0.0,0.0,0.0,0.0,0.0,0.0,0.0,0.0,0.0,0.0,0.0,0.0,0.0,0.0,0.0,0.0,0.0,0.0,0.0,0.0,0.0,0.0,0.0,0.0,0.0,0.0,0.0,0.0,0.0,0.0,0.0,0.0,0.0,0.0,-2.5475,-2.6712,-2.7806,-2.8508,-2.8723,-2.7357,-2.6516,0.0,0.0,0.0,0.0,0.0,0.0,0.0,0.0,0.0,0.0,0.0,0.0,0.0,0.0,0.0,0.0,0.0,0.0,0.0,0.0,0.0,0.0,0.0,0.0,0.0,0.0,0.0,0.0,0.0,0.0,0.0,0.0,0.0,0.0,0.0,0.0,0.0,0.0,0.0,0.0,0.0,0.0,0.0,0.0,0.0,0.0,0.0,0.0,0.0,0.0,0.0,0.0,0.0,0.0,0.0,0.0,0.0,0.0,0.0,0.0,0.0,0.0,0.0,0.0,0.0,0.0,0.0,0.0,0.0,0.0,0.0,0.0,0.0,0.0,0.0,0.0,0.0,0.0,0.0,0.0,0.0,0.0,0.0,0.0,0.0,0.0,0.0,0.0,0.0,0.0,0.0,0.0,0.0,0.0,0.0,0.0,0.0,0.0,0.0,0.0,0.0,0.0,0.0,0.0,0.0,0.0,0.0,-2.459,-2.5717,-2.7042,-2.778,-2.8412,-2.8986,-2.8259,-2.7417,-2.6494,0.0,0.0,0.0,0.0,0.0,0.0,0.0,0.0,0.0,0.0,0.0,0.0,0.0,0.0,0.0,0.0,0.0,0.0,0.0,0.0,0.0,0.0,0.0,0.0,0.0,0.0,0.0,0.0,0.0,0.0,0.0,0.0,0.0,0.0,0.0,0.0,0.0,0.0,-2.5527,-2.647,0.0,0.0,0.0,0.0,0.0,0.0,0.0,0.0,-2.741,0.0,0.0,0.0,0.0,0.0,0.0,0.0,0.0,0.0,0.0,0.0,0.0,0.0,0.0,0.0,0.0,0.0,0.0,0.0,0.0,0.0,0.0,0.0,0.0,0.0,0.0,0.0,0.0,0.0,0.0,0.0,0.0,0.0,0.0,0.0,0.0,0.0,0.0,0.0,0.0,0.0,0.0,0.0,0.0,0.0,0.0,0.0,0.0,0.0,0.0,0.0,0.0,0.0,0.0,0.0,0.0,-2.5572,-2.4902,-2.561,-2.7833,-2.813,-2.8563,-2.9094,-2.8438,-2.7746,-2.7067,0.0,0.0,0.0,0.0,0.0,0.0,0.0,0.0,0.0,0.0,0.0,0.0,0.0,0.0,0.0,0.0,0.0,0.0,0.0,0.0,0.0,0.0,0.0,0.0,0.0,0.0,0.0,0.0,0.0,0.0,0.0,0.0,0.0,0.0,0.0,0.0,0.0,0.0,0.0,-2.8399,-2.8851,0.0,0.0,0.0,0.0,0.0,0.0,0.0,0.0,-2.8154,0.0,0.0,0.0,0.0,0.0,0.0,0.0,0.0,0.0,0.0,0.0,0.0,0.0,0.0,0.0,0.0,0.0,0.0,0.0,0.0,0.0,0.0,0.0,0.0,0.0,0.0,0.0,0.0,0.0,0.0,0.0,0.0,0.0,0.0,0.0,0.0,0.0,0.0,0.0,0.0,0.0,0.0,0.0,0.0,0.0,0.0,0.0,0.0,0.0,0.0,0.0,0.0,0.0,0.0,0.0,-2.5415,-2.556,-2.6314,-2.7749,-2.7954,-2.8332,-2.8918,-2.8306,-2.7688,0.0,0.0,0.0,0.0,0.0,0.0,0.0,0.0,0.0,0.0,0.0,0.0,0.0,0.0,0.0,0.0,0.0,0.0,0.0,0.0,0.0,0.0,0.0,0.0,0.0,0.0,0.0,0.0,0.0,0.0,0.0,0.0,0.0,0.0,0.0,0.0,0.0,0.0,0.0,0.0,-2.8779,-2.9178,-3.0007,0.0,0.0,0.0,0.0,0.0,0.0,-2.8229,-2.8301,0.0,0.0,0.0,0.0,0.0,0.0,0.0,0.0,0.0,0.0,0.0,0.0,0.0,0.0,0.0,0.0,0.0,0.0,0.0,0.0,0.0,0.0,0.0,0.0,0.0,0.0,0.0,0.0,0.0,0.0,0.0,0.0,0.0,0.0,0.0,0.0,0.0,0.0,0.0,0.0,0.0,0.0,0.0,0.0,0.0,0.0,0.0,0.0,0.0,0.0,0.0,0.0,0.0,0.0,0.0,-2.4871,-2.581,-2.6635,-2.7237,-2.749,-2.7865,-2.8441,-2.7753,-2.7197,0.0,0.0,0.0,0.0,0.0,0.0,0.0,0.0,0.0,0.0,0.0,0.0,0.0,0.0,0.0,0.0,0.0,0.0,0.0,0.0,0.0,0.0,0.0,0.0,0.0,0.0,0.0,0.0,0.0,0.0,0.0,0.0,0.0,0.0,0.0,0.0,0.0,0.0,0.0,0.0,0.0,-2.9801,-3.0384,-2.9882,0.0,0.0,0.0,0.0,-2.876,-2.9143,0.0,0.0,0.0,0.0,0.0,0.0,0.0,0.0,0.0,0.0,0.0,0.0,0.0,0.0,0.0,0.0,0.0,0.0,0.0,0.0,0.0,0.0,0.0,0.0,0.0,0.0,0.0,0.0,0.0,0.0,0.0,0.0,0.0,0.0,0.0,0.0,0.0,0.0,0.0,0.0,0.0,0.0,0.0,0.0,0.0,0.0,0.0,0.0,0.0,0.0,0.0,0.0,0.0,0.0,0.0,0.0,-2.4448,-2.4779,-2.5438,-2.6467,-2.6701,-2.7118,-2.7701,-2.6511,-2.6059,0.0,0.0,0.0,0.0,0.0,0.0,0.0,0.0,0.0,0.0,0.0,0.0,0.0,0.0,0.0,0.0,0.0,0.0,0.0,0.0,0.0,0.0,0.0,0.0,0.0,0.0,0.0,0.0,0.0,0.0,0.0,0.0,0.0,0.0,0.0,0.0,0.0,0.0,0.0,0.0,0.0,-3.1624,-3.0342,-3.0992,-3.0906,0.0,0.0,-3.1563,-2.9781,-3.2356,0.0,0.0,0.0,0.0,0.0,0.0,0.0,0.0,0.0,0.0,0.0,0.0,0.0,0.0,0.0,0.0,0.0,0.0,0.0,0.0,0.0,0.0,0.0,0.0,0.0,0.0,0.0,0.0,0.0,0.0,0.0,0.0,0.0,0.0,0.0,0.0,0.0,0.0,0.0,0.0,0.0,0.0,0.0,0.0,0.0,0.0,0.0,0.0,0.0,0.0,0.0,0.0,0.0,0.0,0.0,-2.3792,-2.4279,-2.4996,-2.562,-2.6079,-2.6277,-2.6643,-2.7241,-2.5795,-2.5259,0.0,0.0,0.0,0.0,0.0,0.0,0.0,0.0,0.0,0.0,0.0,0.0,0.0,0.0,0.0,0.0,0.0,0.0,0.0,0.0,0.0,0.0,0.0,0.0,0.0,0.0,0.0,0.0,0.0,0.0,0.0,0.0,0.0,0.0,0.0,0.0,0.0,0.0,0.0,0.0,0.0,0.0,-3.0649,-3.106,0.0,0.0,0.0,-3.0995,-3.0188,0.0,0.0,0.0,0.0,0.0,0.0,0.0,0.0,0.0,0.0,0.0,0.0,0.0,0.0,0.0,0.0,0.0,0.0,0.0,0.0,0.0,0.0,0.0,0.0,0.0,0.0,0.0,0.0,0.0,0.0,0.0,0.0,0.0,0.0,0.0,0.0,0.0,0.0,0.0,0.0,0.0,0.0,0.0,0.0,0.0,0.0,0.0,0.0,0.0,0.0,0.0,0.0,0.0,0.0,0.0,0.0,0.0,-2.4096,-2.5103,-2.569,-2.5776,-2.5882,-2.6233,-2.6771,-2.5438,0.0,0.0,0.0,0.0,0.0,0.0,0.0,0.0,0.0,0.0,0.0,0.0,0.0,0.0,0.0,0.0,0.0,0.0,0.0,0.0,0.0,0.0,0.0,0.0,0.0,0.0,0.0,-1.8868,0.0,0.0,0.0,0.0,0.0,0.0,0.0,0.0,0.0,0.0,0.0,0.0,0.0,0.0,-3.0078,-3.0641,-3.1173,-3.141,0.0,0.0,-3.091,-3.0697,-3.1571,-3.1218,0.0,0.0,0.0,0.0,0.0,0.0,0.0,0.0,0.0,0.0,0.0,0.0,0.0,0.0,0.0,0.0,0.0,0.0,0.0,0.0,0.0,0.0,0.0,0.0,0.0,0.0,0.0,0.0,0.0,0.0,0.0,0.0,0.0,0.0,0.0,0.0,0.0,0.0,0.0,0.0,0.0,0.0,0.0,0.0,0.0,0.0,0.0,0.0,0.0,0.0,0.0,0.0,0.0,0.0,0.0,-2.3773,-2.4482,-2.5085,-2.5533,-2.5557,-2.5793,-2.6325,-2.5559,-2.4943,0.0,0.0,0.0,0.0,0.0,0.0,0.0,0.0,0.0,0.0,0.0,0.0,0.0,0.0,0.0,0.0,0.0,0.0,0.0,0.0,0.0,0.0,0.0,0.0,0.0,0.0,0.0,0.0,0.0,0.0,0.0,0.0,0.0,0.0,0.0,0.0,0.0,0.0,0.0,0.0,0.0,-3.098,-2.9784,-3.1656,-3.2865,0.0,0.0,-3.3113,-3.1553,-3.401,-3.4484,-2.9773,0.0,0.0,0.0,0.0,0.0,0.0,0.0,0.0,0.0,0.0,0.0,0.0,0.0,0.0,0.0,0.0,0.0,0.0,0.0,0.0,0.0,0.0,0.0,0.0,0.0,0.0,0.0,0.0,0.0,0.0,0.0,0.0,0.0,0.0,0.0,0.0,0.0,0.0,0.0,0.0,0.0,0.0,0.0,0.0,0.0,0.0,0.0,0.0,0.0,0.0,0.0,0.0,0.0,-2.3232,-2.3536,-2.442,-2.5113,-2.5622,-2.5607,-2.5727,-2.5923,-2.5338,-2.4636,0.0,0.0,0.0,0.0,0.0,0.0,0.0,0.0,0.0,0.0,0.0,0.0,0.0,0.0,0.0,0.0,0.0,0.0,0.0,0.0,0.0,0.0,0.0,0.0,0.0,0.0,0.0,0.0,-1.9923,-2.0076,-2.1186,0.0,0.0,0.0,0.0,0.0,0.0,0.0,0.0,0.0,0.0,-2.966,-3.0454,-3.1376,0.0,0.0,-3.2263,-3.2361,-3.1676,-3.2181,-3.1541,-2.8421,-2.7262,0.0,0.0,0.0,0.0,0.0,0.0,0.0,0.0,0.0,0.0,0.0,0.0,0.0,0.0,0.0,0.0,0.0,0.0,0.0,0.0,0.0,0.0,0.0,0.0,0.0,0.0,0.0,0.0,0.0,0.0,0.0,0.0,0.0,0.0,0.0,0.0,0.0,0.0,0.0,0.0,0.0,0.0,0.0,0.0,0.0,0.0,0.0,0.0,0.0,0.0,0.0,0.0,-2.3075,-2.3407,-2.4531,-2.5406,-2.5934,-2.5934,-2.6014,-2.614,-2.5509,-2.4725,0.0,0.0,0.0,0.0,0.0,0.0,0.0,0.0,0.0,0.0,0.0,0.0,0.0,0.0,0.0,0.0,0.0,0.0,0.0,0.0,0.0,0.0,0.0,0.0,0.0,0.0,0.0,0.0,-1.9756,-2.0031,-2.1097,0.0,0.0,0.0,0.0,0.0,0.0,0.0,0.0,0.0,0.0,-2.8988,-3.0484,-3.0883,-3.1169,-3.1538,-3.1286,-3.1169,-3.125,-3.0801,-2.9666,-2.7587,0.0,0.0,0.0,0.0,0.0,0.0,0.0,0.0,0.0,0.0,0.0,0.0,0.0,0.0,0.0,0.0,0.0,0.0,0.0,0.0,0.0,0.0,0.0,0.0,0.0,0.0,0.0,-2.1224,0.0,0.0,-2.1181,0.0,0.0,0.0,0.0,0.0,0.0,0.0,0.0,0.0,0.0,0.0,0.0,0.0,0.0,0.0,0.0,0.0,0.0,0.0,0.0,0.0,0.0,-2.3396,-2.343,-2.4897,-2.5945,-2.6478,-2.649,-2.6668,-2.7064,-2.6221,-2.539,-2.4817,0.0,0.0,0.0,0.0,0.0,0.0,0.0,0.0,0.0,0.0,0.0,0.0,0.0,0.0,0.0,0.0,0.0,0.0,0.0,0.0,0.0,0.0,0.0,0.0,0.0,0.0,-1.9077,-1.9372,-1.9641,0.0,0.0,0.0,0.0,0.0,0.0,0.0,0.0,0.0,0.0,-2.7378,-2.9458,-2.9527,-3.0354,-3.0962,-3.0996,-3.0216,-2.9734,-3.0216,-3.0652,-3.0147,0.0,0.0,0.0,0.0,0.0,0.0,0.0,0.0,0.0,0.0,0.0,0.0,0.0,0.0,0.0,0.0,0.0,0.0,0.0,0.0,0.0,0.0,0.0,0.0,0.0,0.0,0.0,-2.1398,-2.142,0.0,0.0,0.0,0.0,0.0,0.0,0.0,0.0,0.0,0.0,0.0,-2.3475,-2.2764,0.0,0.0,0.0,0.0,0.0,0.0,0.0,0.0,0.0,0.0,0.0,0.0,-2.3568,-2.3957,-2.4957,-2.6,-2.6915,-2.6538,-2.6255,-2.615,-2.6183,-2.5454,-2.3899,0.0,0.0,0.0,0.0,0.0,0.0,0.0,0.0,0.0,0.0,0.0,0.0,0.0,0.0,0.0,0.0,0.0,0.0,0.0,0.0,0.0,0.0,0.0,0.0,0.0,-1.849,0.0,0.0,0.0,0.0,0.0,0.0,0.0,0.0,0.0,0.0,0.0,-2.3445,-2.4386,-2.5975,-2.7282,-2.7955,-2.9182,-3.0125,0.0,0.0,0.0,0.0,0.0,0.0,0.0,0.0,0.0,0.0,0.0,0.0,0.0,0.0,-3.169,-2.9653,-2.8707,-2.8354,-2.8758,0.0,0.0,0.0,0.0,0.0,0.0,0.0,0.0,0.0,0.0,0.0,0.0,0.0,0.0,-2.18,0.0,-2.2037,0.0,0.0,0.0,0.0,0.0,0.0,0.0,0.0,-2.2871,-2.2869,-2.3188,-2.2473,-2.2309,0.0,-2.2167,-2.1417,0.0,0.0,0.0,0.0,0.0,0.0,0.0,0.0,-2.3231,-2.3597,-2.4571,-2.5428,-2.6117,-2.5736,-2.5417,-2.5245,-2.5351,-2.4653,-2.3059,-2.1722,-2.1059,0.0,0.0,0.0,0.0,0.0,0.0,0.0,0.0,0.0,0.0,0.0,0.0,0.0,0.0,0.0,0.0,0.0,0.0,0.0,0.0,0.0,0.0,0.0,-1.8214,0.0,0.0,0.0,0.0,0.0,0.0,0.0,0.0,0.0,-2.142,-2.2301,-2.3196,-2.4161,-2.5049,-2.5945,-2.6874,0.0,0.0,0.0,0.0,0.0,0.0,0.0,-2.907,-2.946,-2.9263,-2.9091,-2.9206,-3.0491,-3.1421,-3.1065,0.0,0.0,-3.0668,-2.9742,-2.938,-2.9779,-2.9803,-2.9874,-3.0262,-3.0346,-3.0148,0.0,0.0,0.0,0.0,0.0,0.0,0.0,0.0,-2.2514,-2.2311,0.0,-2.2127,0.0,0.0,0.0,0.0,-2.2358,-2.2347,0.0,0.0,-2.2992,-2.2759,-2.2164,-2.1567,-2.1244,-2.1218,-2.0678,-2.0352,-2.0254,-2.1281,0.0,0.0,0.0,0.0,0.0,0.0,-2.2402,-2.2493,-2.3805,-2.4408,-2.4262,-2.4241,-2.4261,-2.4445,-2.3796,-2.3104,-2.2381,-2.1467,-2.1189,-2.1573,-2.0329,0.0,0.0,0.0,0.0,0.0,0.0,0.0,0.0,0.0,0.0,0.0,0.0,0.0,0.0,0.0,0.0,0.0,0.0,0.0,0.0,-1.8152,0.0,0.0,0.0,0.0,0.0,0.0,0.0,0.0,0.0,0.0,-2.0152,-2.2383,-2.3951,-2.3816,0.0,0.0,0.0,0.0,-2.5995,-2.6419,-2.6079,-2.6386,-2.7844,-2.8833,-2.9446,-2.9431,0.0,0.0,-3.0468,-3.1489,-3.2153,-3.1236,-3.228,-3.3281,-3.3201,-3.2319,-3.1746,-3.1711,-3.0986,-3.0342,-3.0296,-3.0479,-3.0341,-2.2102,0.0,0.0,0.0,0.0,-2.2269,-2.2385,-2.2977,-2.2489,-2.2162,-2.2016,-2.209,0.0,0.0,0.0,0.0,0.0,0.0,-2.2373,-2.2712,-2.2801,-2.2801,-2.2714,-2.256,-2.2409,-2.2195,-2.1727,-2.16,-2.1682,-2.1472,-2.092,-2.0053,0.0,0.0,0.0,0.0,-2.2546,-2.2856,-2.3466,-2.4008,-2.4386,-2.3951,-2.3645,-2.3502,-2.2593,-2.1989,-2.1739,-2.1237,-2.1059,-2.1381,-2.0484,0.0,0.0,0.0,0.0,0.0,0.0,0.0,0.0,0.0,0.0,0.0,0.0,0.0,0.0,0.0,0.0,0.0,0.0,0.0,-1.742,-1.7867,-1.8065,0.0,0.0,0.0,0.0,0.0,0.0,0.0,0.0,0.0,-2.0669,-2.1595,-2.2213,0.0,0.0,-2.4036,-2.3917,-2.5498,-2.6686,-2.6814,-2.7266,0.0,-2.8345,-2.8265,-2.8273,-2.8569,-2.9862,-3.0743,-3.0639,-3.1478,-3.2029,-3.1727,-3.2562,-3.3281,-3.3247,-3.2753,-3.219,-3.1928,-3.2076,-3.2248,-3.1938,-3.2121,-3.2225,-2.2267,-2.2361,-2.2535,-2.2665,-2.2605,-2.2288,-2.2547,-2.3123,-2.2768,-2.247,-2.225,-2.2391,-2.2117,-2.1563,-2.1361,0.0,0.0,0.0,-2.2289,-2.2638,-2.2647,-2.2719,-2.2837,-2.2648,-2.2529,-2.2362,-2.1944,-2.1736,-2.1734,-2.1112,-2.0465,-1.9756,0.0,0.0,-2.0512,-2.1489,-2.2132,-2.2353,-2.28,-2.3115,-2.3259,-2.3001,-2.2614,-2.2216,-2.1728,-2.1443,-2.1351,-2.0966,-2.0897,-2.1199,-2.0453,-1.986,0.0,0.0,0.0,0.0,0.0,0.0,0.0,0.0,0.0,0.0,0.0,-1.8135,-1.804,0.0,0.0,0.0,-1.795,-1.7979,-1.8232,-1.8347,0.0,0.0,0.0,0.0,0.0,0.0,0.0,-1.9556,-1.9574,-1.9887,-2.0836,-2.1203,-2.1654,-2.2336,-2.2879,-2.3345,-2.3623,0.0,-2.6016,-2.6327,-2.6861,-2.7369,-2.7864,-2.7733,-2.7874,-2.8799,-2.949,-3.0105,-3.04,-3.0918,-3.133,-3.1381,-3.1863,-3.2235,-3.2046,-3.1993,-3.2135,-3.2348,-3.2856,-3.3086,-3.2592,-3.2914,-3.3028,-2.2703,-2.2373,-2.1336,-2.1175,-2.162,-2.1981,-2.2333,-2.2735,-2.3138,-2.3003,-2.2467,-2.2789,-2.2554,-2.1892,-2.1826,0.0,-2.2267,-2.2088,-2.2218,-2.2535,-2.2568,-2.2551,-2.2542,-2.2124,-2.1953,-2.1944,-2.1585,-2.1234,-2.0934,-2.0577,-2.0155,-1.9742,-2.0132,-2.0368,-2.0403,-2.0962,-2.1311,-2.1275,-2.1898,-2.1923,-2.146,-2.1658,-2.1494,-2.0871,-2.1258,-2.1358,-2.1099,-2.0723,-2.0714,-2.1108,-2.036,-1.9921,-1.9857,0.0,0.0,0.0,0.0,0.0,0.0,0.0,0.0,0.0,0.0,0.0,0.0,0.0,0.0,0.0,-1.8897,0.0,-1.9713,-1.9272,0.0,0.0,0.0,-1.8841,-1.9922,-1.9238,-1.9102,-2.0163,0.0,0.0,-2.0699,-2.1122,-2.1898,-2.3249,-2.2867,-2.2982,-2.4427,-2.4349,-2.4477,-2.5227,-2.5378,-2.5759,-2.6579,-2.7036,-2.7698,-2.903,-2.9661,-2.9568,-2.9588,-2.9953,-3.011,-3.0172,-3.0421,-3.0604,-3.0066,-3.0636,-3.1506,-3.2535,-3.2998,-3.2982,-3.2535,-3.2753,-3.2673,-2.1377,-2.1302,-2.1012,-2.1462,-2.2348,-2.2434,-2.2529,-2.2615,-2.2761,-2.2693,-2.2574,-2.266,-2.26,-2.2427,-2.2427,-2.2221,-2.1845,-2.2256,-2.2257,-2.1912,-2.2103,-2.2133,-2.2115,-2.173,-2.155,-2.155,-2.1456,-2.1362,-2.1268,-2.0917,-2.054,-2.0172,-1.997,-1.9896,-1.9961,-2.0307,-2.0712,-2.1124,-2.1302,-2.1456,-2.1638,-2.1682,-2.148,-2.1013,-2.1139,-2.1151,-2.1108,-2.0723,-2.0851,-2.1485,-2.0772,-2.0195,-1.9893,-1.9033,0.0,0.0,0.0,0.0,0.0,0.0,0.0,0.0,0.0,-1.8084,-1.7867,0.0,-1.8015,0.0,-1.8658,-1.8889,-1.8917,-1.8764,0.0,0.0,-1.8868,-1.8877,-1.9685,-1.9581,-1.9684,-2.0223,-2.026,-2.049,-2.1064,-2.12,-2.1633,-2.2657,-2.2535,-2.2491,-2.2896,-2.3657,-2.4266,-2.4523,-2.5047,-2.5356,-2.5363,-2.5511,-2.6106,-2.7089,-2.7415,-2.753,-2.753,-2.8417,-2.9102,-2.9124,-2.9425,-2.9578,-2.9443,-2.9635,-2.9722,-2.9913,-3.1056,-3.2135,-3.1961,-3.2053,-3.1915,-2.0925,-2.0925,-2.0925,-2.1283,-2.1835,-2.1835,-2.1835,-2.1835,-2.1827,-2.1835,-2.1835,-2.1835,-2.1835,-2.1835,-2.1835,-2.1632,-2.1369,-2.1518,-2.1436,-2.1117,-2.1065,-2.1047,-2.1031,-2.0666,-2.0492,-2.0531,-2.0326,-2.0251,-2.0243,-2.006,-1.9861,-1.9646,-1.9627,-1.9609,-1.9601,-2.0076,-2.0519,-2.0925,-2.1021,-2.131,-2.1668,-2.1513,-2.1346,-2.1108,-2.0943,-2.0759,-2.0552,-2.0539,-2.0607,-2.0863,-2.0625,-2.0369,-2.0149,-1.9421,-1.8779,0.0,0.0,0.0,0.0,0.0,0.0,0.0,0.0,0.0,0.0,0.0,-1.7164,-1.742,-1.8028,-1.838,-1.821,-1.8218,-1.8359,-1.8767,-1.8617,-1.8673,-1.9244,-1.931,-1.9385,-1.9629,-1.9928,-2.0286,-2.0629,-2.1022,-2.1531,-2.224,-2.2181,-2.2327,-2.3061,-2.3954,-2.4477,-2.4505,-2.5019,-2.5307,-2.512,-2.5177,-2.5428,-2.5854,-2.607,-2.6175,-2.6175,-2.6826,-2.74,-2.7424,-2.7688,-2.7921,-2.7911,-2.8046,-2.8096,-2.8306,-2.9008,-2.9774,-3.0179,-3.0508,-3.0641,-2.0447,-2.0447,-2.0454,-2.0454,-2.0506,-2.0506,-2.0609,-2.0814,-2.0664,-2.0617,-2.0578,-2.057,-2.0601,-2.0649,-2.0641,-2.059,-2.0515,-2.0276,-2.0111,-2.0048,-1.976,-1.9651,-1.9635,-1.9288,-1.9123,-1.9115,-1.8776,-1.8635,-1.8681,-1.8689,-1.8711,-1.8764,-1.9214,-1.9335,-1.9209,-1.9869,-2.0393,-2.0679,-2.0996,-2.133,-2.1678,-2.1328,-2.108,-2.1016,-2.0649,-2.0255,-1.9838,-2.0195,-2.0241,-1.993,-2.0259,-2.0479,-2.0376,-1.9715,-1.9255,0.0,-1.8502,0.0,0.0,0.0,0.0,0.0,0.0,0.0,0.0,-1.6081,-1.593,-1.6404,-1.7098,-1.7541,-1.7517,-1.7564,-1.7728,-1.8131,-1.8179,-1.8297,-1.8549,-1.8589,-1.8635,-1.8681,-1.9288,-1.9745,-1.9853,-2.0618,-2.1347,-2.1733,-2.1862,-2.2354,-2.3657,-2.4248,-2.4418,-2.4546,-2.4886,-2.4986,-2.513,-2.5194,-2.5221,-2.5313,-2.5424,-2.5344,-2.535,-2.5622,-2.5806,-2.5806,-2.6008,-2.6045,-2.6045,-2.6299,-2.6575,-2.6941,-2.7029,-2.7366,-2.8208,-2.8784,-2.9117,-1.8206,-1.8213,-1.8258,-1.8206,-1.8206,-1.8206,-1.899,-2.0225,-1.9483,-1.9097,-1.8885,-1.8885,-1.9,-1.9196,-1.9203,-1.8949,-1.8585,-1.8941,-1.8771,-1.8151,-1.823,-1.8275,-1.8252,-1.7876,-1.7665,-1.7665,-1.7606,-1.7816,-1.8241,-1.8241,-1.8294,-1.8406,-1.8489,-1.8572,-1.8572,0.0,0.0,0.0,-2.1238,-2.1614,-2.1678,-2.1284,-2.0952,-2.064,-2.0204,0.0,-1.9467,-1.9815,-1.9966,-1.9912,-2.0268,0.0,0.0,0.0,0.0,0.0,0.0,0.0,0.0,0.0,0.0,0.0,-1.5285,-1.5467,-1.6149,-1.5759,-1.5493,-1.5602,-1.595,-1.6276,-1.6528,-1.6758,-1.7054,-1.7442,-1.7487,-1.7517,-1.7576,-1.7576,-1.7723,-1.8195,-1.8473,-1.885,-1.9279,-1.9837,-2.0371,-2.0974,-2.1609,-2.2326,-2.3048,-2.3288,-2.3279,-2.3288,-2.3654,-2.4024,-2.4385,-2.444,-2.45,-2.4812,-2.5188,-2.5188,-2.5001,-2.5176,-2.5439,-2.5411,-2.5269,-2.508,-2.508,-2.5117,-2.517,-2.4877,-2.5232,-2.6013,-2.7667,-2.78,-2.7693,-1.7589,-1.7589,-1.7589,-1.7589,0.0,-1.7312,-1.7541,-1.8222,-1.8075,-1.7879,-1.7633,-1.7633,-1.7675,-1.7823,-1.783,-1.7679,-1.742,-1.7518,-1.7365,-1.6959,-1.6897,-1.6853,-1.6846,-1.6637,-1.656,-1.656,-1.656,-1.6702,-1.6936,-1.6943,-1.7005,-1.7084,-1.7682,-1.7902,-1.7688,-1.8129,-1.8946,-2.0094,-2.0483,-2.0918,-2.1293,-2.0968,-2.0748,-2.0805,-2.042,0.0,0.0,0.0,0.0,0.0,0.0,0.0,0.0,-1.927,0.0,-1.8431,-1.8133,-1.7814,-1.736,-1.6858,-1.6182,-1.535,-1.4689,-1.4572,-1.5106,-1.504,-1.5055,-1.5341,-1.5471,-1.5673,-1.6018,-1.6285,-1.6466,-1.6567,-1.656,-1.656,-1.656,-1.656,-1.6702,-1.7124,-1.7444,-1.7917,-1.8711,-1.9234,-2.0096,-2.1197,-2.1695,-2.2232,-2.3019,-2.3197,-2.3142,-2.294,-2.2858,-2.3114,-2.3694,-2.3675,-2.3712,-2.4079,-2.417,-2.417,-2.417,-2.417,-2.4235,-2.44,-2.4299,-2.418,-2.4189,-2.4317,-2.445,-2.4275,-2.4457,-2.4886,-2.5957,-2.6074,-2.6264,-1.7318,-1.7318,-1.7318,-1.7318,-1.7259,-1.6789,-1.6394,-1.6144,0.0,0.0,0.0,-1.6361,-1.6394,-1.644,-1.644,-1.644,-1.6421,-1.614,-1.6002,-1.5943,-1.5652,-1.554,-1.554,-1.554,-1.5547,-1.554,-1.554,-1.5588,-1.5689,-1.5689,-1.5737,-1.5872,-1.685,-1.7178,-1.6943,-1.7777,-1.8577,-1.9268,-1.9474,-1.9877,-2.0565,-2.0306,-2.0289,-2.06,-2.0231,-1.9802,-1.9425,-1.9316,-1.9167,-1.8813,-1.8812,-1.8843,-1.8807,-1.8816,-1.8624,-1.8149,-1.7894,-1.7569,-1.716,-1.6247,-1.5682,-1.5528,-1.4515,-1.393,-1.4063,-1.4243,-1.4479,-1.495,-1.5074,-1.5231,-1.5527,-1.58,-1.5905,-1.5676,-1.565,-1.5684,-1.5591,-1.5667,-1.5797,-1.6069,-1.6513,-1.7124,-1.8017,-1.8535,-1.9499,-2.1041,-2.1379,-2.1984,-2.3162,-2.3471,-2.3361,-2.3087,-2.2867,-2.2812,-2.3261,-2.3297,-2.3151,-2.3499,-2.3288,-2.3123,-2.3261,-2.3123,-2.3087,-2.3535,-2.3499,-2.3572,-2.3627,-2.3969,-2.4192,-2.4211,-2.4211,-2.4211,-2.426,-2.4498,-2.503,-1.6158,-1.6158,-1.6152,-1.6152,-1.6152,-1.6051,-1.5712,-1.5251,-1.5126,-1.4912,-1.4648,-1.4648,-1.4789,-1.5016,-1.4973,-1.5016,-1.501,-1.4924,-1.4777,-1.4593,-1.4556,-1.449,-1.449,-1.4538,-1.4484,-1.4538,-1.4538,-1.4729,-1.5131,-1.5178,-1.541,-1.5784,-1.5967,-1.6244,-1.6676,-1.7185,-1.7537,-1.7632,-1.8494,-1.8977,-1.9109,-1.9093,-1.8977,-1.8687,-1.8354,-1.7904,-1.7523,-1.7471,-1.7371,-1.7323,-1.7642,-1.7794,-1.7737,-1.7708,-1.7621,-1.7435,-1.7248,-1.6804,-1.6082,-1.5664,-1.5205,-1.4555,-1.4145,-1.3791,-1.3628,-1.3619,-1.367,-1.3768,-1.4225,-1.4447,-1.4514,-1.4998,-1.5268,-1.5231,-1.5181,-1.5102,-1.498,-1.5127,-1.5318,-1.5532,-1.6001,-1.6527,-1.7174,-1.7495,-1.8059,-1.9035,-2.0431,-2.1547,-2.3051,-2.3499,-2.348,-2.3425,-2.3361,-2.338,-2.3453,-2.3462,-2.337,-2.3471,-2.3407,-2.3224,-2.3105,-2.2986,-2.3059,-2.3425,-2.3499,-2.3618,-2.3941,-2.4146,-2.4202,-2.4211,-2.4211,-2.4211,-2.4211,-2.4301,-2.444,-1.5885,-1.5885,-1.5885,-1.5885,-1.5867,-1.559,-1.5246,-1.4877,-1.4606,-1.4419,-1.431,-1.4298,-1.437,-1.4485,-1.4491,-1.4485,-1.4491,-1.4491,-1.4419,-1.4304,-1.4298,-1.4298,-1.4298,-1.4298,-1.4298,-1.4298,-1.4298,-1.4394,-1.464,-1.464,-1.4777,-1.5016,-1.5255,-1.5791,-1.6534,-1.6534,-1.6487,-1.6527,-1.7458,-1.8149,-1.8419,-1.8454,-1.8478,-1.8543,-1.8189,-1.794,-1.7779,-1.7353,-1.7164,-1.7298,-1.7247,-1.7259,-1.7399,-1.7383,-1.7172,-1.6749,-1.6494,-1.6069,-1.5458,-1.5166,-1.4825,-1.434,-1.4183,-1.4069,-1.3948,-1.3809,-1.3791,-1.3936,-1.4298,-1.4521,-1.4533,-1.4877,-1.5113,-1.5113,-1.4986,-1.4952,-1.5102,-1.5072,-1.5231,-1.5583,-1.5769,-1.6123,-1.6908,-1.7065,-1.7698,-1.8863,-2.054,-2.2221,-2.3635,-2.3868,-2.3712,-2.3279,-2.3178,-2.327,-2.3425,-2.3096,-2.3059,-2.3398,-2.3114,-2.3004,-2.3078,-2.3078,-2.3087,-2.3407,-2.3499,-2.3563,-2.3822,-2.4064,-2.4174,-2.4211,-2.4211,-2.4211,-2.4211,-2.4211,-2.4251,-1.5885,-1.5885,-1.5885,-1.5885,-1.5843,-1.533,-1.4986,-1.4775,-1.4449,-1.4298,-1.4298,-1.4298,-1.4298,-1.4298,-1.4298,-1.4376,-1.4467,-1.4424,-1.4424,-1.4576,-1.4472,-1.4394,-1.4394,-1.4346,-1.4298,-1.4298,-1.4298,-1.4298,-1.4298,-1.4298,-1.4298,-1.4346,-1.4838,-1.5512,-1.6204,-1.6041,-1.5925,-1.598,-1.6679,-1.7258,-1.7591,-1.7684,-1.7963,-1.8265,-1.8071,-1.7931,-1.7878,-1.7281,-1.6996,-1.7189,-1.6861,-1.6754,-1.6929,-1.6958,-1.6669,-1.6103,-1.5818,-1.5499,-1.5077,-1.4736,-1.4544,-1.4346,-1.4358,-1.4364,-1.4292,-1.4177,-1.4135,-1.4304,-1.4533,-1.4708,-1.4745,-1.5016,-1.5197,-1.5185,-1.5133,-1.5222,-1.5492,-1.5501,-1.5587,-1.5917,-1.5875,-1.6126,-1.669,-1.6946,-1.7647,-1.933,-2.0974,-2.2358,-2.3538,-2.3845,-2.3515,-2.3262,-2.3083,-2.3334,-2.3584,-2.3087,-2.294,-2.3425,-2.2931,-2.284,-2.3105,-2.3014,-2.2959,-2.3224,-2.3343,-2.3398,-2.3489,-2.3877,-2.4165,-2.4211,-2.4211,-2.4211,-2.4211,-2.4211,-2.4211,-1.5885,-1.5885,-1.5885,-1.5885,-1.5819,-1.5324,-1.5089,-1.4986,-1.4521,-1.4298,-1.4316,-1.4304,-1.431,-1.4298,-1.431,-1.4576,-1.4961,-1.4751,-1.4914,-1.5236,-1.4902,-1.4694,-1.464,-1.4394,-1.4298,-1.4298,-1.4298,-1.4346,-1.4298,-1.4298,-1.4298,-1.4346,-1.4838,-1.5178,-1.5293,-1.5893,-1.6268,-1.6233,-1.633,-1.6292,-1.6082,-1.6487,-1.677,-1.6817,-1.6781,-1.6767,-1.6778,-1.623,-1.5934,-1.5967,-1.5961,-1.5934,-1.5967,-1.5967,-1.5832,-1.5588,-1.554,-1.5309,-1.4783,-1.449,-1.4346,-1.4316,-1.4527,-1.4564,-1.4352,-1.4515,-1.4533,-1.4431,-1.457,-1.4708,-1.4745,-1.5143,-1.5409,-1.5491,-1.5793,-1.6085,-1.5967,-1.6272,-1.6464,-1.6255,-1.6401,-1.664,-1.6746,-1.683,-1.756,-1.9257,-2.0025,-2.0995,-2.2375,-2.2828,-2.2961,-2.3205,-2.366,-2.3987,-2.4027,-2.373,-2.3398,-2.3444,-2.316,-2.2995,-2.2986,-2.2785,-2.2492,-2.3087,-2.3059,-2.3187,-2.3517,-2.3868,-2.4192,-2.4211,-2.4211,-2.4211,-2.4211,-2.4211,-2.4211,-1.5885,-1.5885,-1.5885,-1.5795,-1.5614,-1.5264,-1.5016,-1.4841,-1.4467,-1.4389,-1.4539,-1.468,-1.4686,-1.4539,-1.468,-1.4887,-1.5127,-1.5174,-1.519,-1.5248,-1.5038,-1.4939,-1.4933,-1.4838,-1.4694,-1.4538,-1.4538,-1.449,-1.4346,-1.4298,-1.4394,-1.4544,-1.4933,-1.5131,-1.5143,-1.5719,-1.5964,-1.5813,-1.5964,-1.5952,-1.5845,-1.6021,-1.6109,-1.6089,-1.5993,-1.5897,-1.5831,-1.5549,-1.5398,-1.5551,-1.5578,-1.5651,-1.5825,-1.5825,-1.5642,-1.5315,-1.5124,-1.4879,-1.449,-1.449,-1.449,-1.4346,-1.4558,-1.466,-1.4576,-1.4793,-1.489,-1.4805,-1.4745,-1.4714,-1.4751,-1.5052,-1.5382,-1.5683,-1.5974,-1.6206,-1.6636,-1.6691,-1.6742,-1.6777,-1.6763,-1.6794,-1.6954,-1.7121,-1.7822,-1.9082,-1.9479,-2.0107,-2.1344,-2.2064,-2.2577,-2.287,-2.3587,-2.3984,-2.3859,-2.3684,-2.3508,-2.3471,-2.337,-2.3261,-2.3197,-2.3142,-2.3078,-2.3224,-2.3224,-2.338,-2.3859,-2.3987,-2.4211,-2.4211,-2.4211,-2.4211,-2.4211,-2.4211,-2.4211,-1.5885,-1.5885,-1.5885,-1.5783,-1.559,-1.533,-1.5107,-1.4908,-1.4642,-1.4636,-1.4805,-1.5035,-1.5091,-1.5058,-1.5252,-1.5394,-1.555,-1.5615,-1.5573,-1.548,-1.5297,-1.522,-1.522,-1.5131,-1.4987,-1.4838,-1.479,-1.4688,-1.4538,-1.4496,-1.464,-1.4838,-1.4987,-1.5131,-1.5137,-1.5565,-1.5754,-1.5665,-1.5802,-1.5952,-1.5945,-1.5824,-1.5825,-1.5805,-1.5625,-1.5511,-1.5511,-1.5311,-1.5297,-1.5498,-1.5518,-1.5605,-1.5812,-1.5825,-1.5642,-1.5267,-1.4981,-1.4736,-1.4538,-1.4688,-1.4742,-1.4562,-1.4753,-1.4863,-1.4856,-1.505,-1.519,-1.5178,-1.5032,-1.4923,-1.4941,-1.5087,-1.5383,-1.5836,-1.602,-1.6431,-1.6944,-1.6958,-1.7074,-1.7248,-1.7114,-1.7021,-1.7293,-1.7481,-1.7962,-1.8753,-1.8968,-1.9391,-2.0475,-2.1454,-2.2123,-2.2467,-2.3338,-2.3732,-2.3572,-2.3361,-2.3361,-2.3334,-2.3279,-2.3306,-2.3444,-2.348,-2.348,-2.338,-2.3471,-2.3553,-2.3776,-2.3941,-2.4211,-2.4211,-2.4211,-2.4211,-2.4211,-2.4211,-2.4211,-1.5885,-1.5885,-1.5885,-1.5879,-1.5843,-1.5578,-1.5463,-1.539,-1.5155,-1.5071,-1.5103,-1.514,-1.5394,-1.5828,-1.5948,-1.6246,-1.6541,-1.613,-1.6091,-1.6401,-1.5838,-1.5506,-1.5445,-1.522,-1.5083,-1.5077,-1.5083,-1.5035,-1.5035,-1.5035,-1.5083,-1.5083,-1.5083,-1.5131,-1.5156,-1.5631,-1.5885,-1.5839,-1.6034,-1.6226,-1.6199,-1.5965,-1.5825,-1.5825,-1.5758,-1.5738,-1.5792,-1.5792,-1.5792,-1.5758,-1.5792,-1.5812,-1.5825,-1.5778,-1.5683,-1.5445,-1.522,-1.5083,-1.5029,-1.5035,-1.5035,-1.5067,-1.524,-1.5343,-1.5109,-1.5338,-1.5493,-1.5493,-1.5469,-1.545,-1.545,-1.5462,-1.5619,-1.5942,-1.6343,-1.6639,-1.6743,-1.7219,-1.7549,-1.7549,-1.7488,-1.7462,-1.7535,-1.7621,-1.7838,-1.8265,-1.8422,-1.8833,-1.9813,-2.0585,-2.1395,-2.2266,-2.2953,-2.3394,-2.3457,-2.3435,-2.3169,-2.3123,-2.3261,-2.3114,-2.3325,-2.3499,-2.3499,-2.3489,-2.3489,-2.3517,-2.359,-2.3813,-2.4119,-2.4211,-2.4211,-2.4211,-2.4211,-2.4211,-2.4211,-1.5885,-1.5885,-1.5885,-1.5885,-1.5855,-1.5614,-1.5499,-1.5469,-1.5221,-1.5311,-1.5587,-1.5814,-1.6087,-1.6433,-1.6683,-1.6649,-1.6469,-1.639,-1.6308,-1.6137,-1.6016,-1.5916,-1.5696,-1.5594,-1.5499,-1.5356,-1.5356,-1.5267,-1.5131,-1.5131,-1.5131,-1.5131,-1.5267,-1.5166,-1.4994,-1.5501,-1.5698,-1.5464,-1.5752,-1.5985,-1.5992,-1.5885,-1.5825,-1.5825,-1.5825,-1.5825,-1.5825,-1.5825,-1.5825,-1.5825,-1.5825,-1.5825,-1.5778,-1.5683,-1.5588,-1.5493,-1.522,-1.5131,-1.5131,-1.5131,-1.5131,-1.5102,-1.5337,-1.549,-1.5436,-1.5588,-1.5752,-1.5752,-1.5752,-1.5802,-1.596,-1.5853,-1.5929,-1.642,-1.6626,-1.6853,-1.7186,-1.7476,-1.7589,-1.7589,-1.7589,-1.7589,-1.7589,-1.7589,-1.7687,-1.7838,-1.7898,-1.8265,-1.899,-2.0063,-2.1242,-2.2005,-2.3011,-2.3668,-2.3092,-2.3584,-2.3694,-2.3538,-2.3483,-2.3306,-2.3389,-2.3508,-2.3535,-2.3416,-2.3416,-2.3703,-2.3822,-2.3941,-2.4211,-2.4211,-2.4211,-2.4211,-2.4211,-2.4211,-2.4211,-1.5885,-1.5885,-1.5885,-1.5885,-1.5867,-1.5704,-1.5626,-1.5596,-1.5451,-1.5548,-1.589,-1.6182,-1.6446,-1.669,-1.6852,-1.6783,-1.6456,-1.6514,-1.6353,-1.5999,-1.6086,-1.6025,-1.5858,-1.5825,-1.5737,-1.5635,-1.5588,-1.5493,-1.5363,-1.5315,-1.5274,-1.5261,-1.5363,-1.5172,-1.4879,-1.5213,-1.5315,-1.5172,-1.5506,-1.5737,-1.5784,-1.5825,-1.5825,-1.5825,-1.5825,-1.5825,-1.5825,-1.5825,-1.5825,-1.5825,-1.5825,-1.5825,-1.5778,-1.5683,-1.5588,-1.5588,-1.5452,-1.5315,-1.5322,-1.5315,-1.5315,-1.5322,-1.5483,-1.5625,-1.5637,-1.5823,-1.5952,-1.5978,-1.601,-1.6161,-1.6293,-1.6177,-1.621,-1.6557,-1.6649,-1.6876,-1.7223,-1.7375,-1.7527,-1.7562,-1.7589,-1.7589,-1.7589,-1.7589,-1.7582,-1.7589,-1.774,-1.8048,-1.8736,-2.0063,-2.1336,-2.1954,-2.3238,-2.3754,-2.3639,-2.384,-2.3501,-2.329,-2.3593,-2.351,-2.3474,-2.3574,-2.3602,-2.3446,-2.3538,-2.3822,-2.4064,-2.4174,-2.4211,-2.4211,-2.4211,-2.4211,-2.4211,-2.4211,-2.4211,-1.5885,-1.5885,-1.5885,-1.5885,-1.5885,-1.5861,-1.5879,-1.5866,-1.5876,-1.5888,-1.6056,-1.626,-1.6522,-1.6657,-1.6593,-1.6493,-1.6593,-1.646,-1.6299,-1.6172,-1.6019,-1.5899,-1.5784,-1.5825,-1.5778,-1.5778,-1.5784,-1.5791,-1.577,-1.5709,-1.5648,-1.5465,-1.5233,-1.4981,-1.4688,-1.4783,-1.4885,-1.5077,-1.5363,-1.5588,-1.5784,-1.5778,-1.5825,-1.5825,-1.5825,-1.5825,-1.5825,-1.5825,-1.5825,-1.5825,-1.5825,-1.5825,-1.5825,-1.5778,-1.5778,-1.5778,-1.5778,-1.5784,-1.5778,-1.5737,-1.573,-1.5737,-1.5804,-1.5787,-1.5846,-1.5875,-1.598,-1.6156,-1.6227,-1.636,-1.6494,-1.6404,-1.6297,-1.6319,-1.657,-1.6717,-1.6814,-1.6994,-1.732,-1.7568,-1.7589,-1.7589,-1.7589,-1.7589,-1.7641,-1.7747,-1.8055,-1.8579,-1.9264,-2.0526,-2.1692,-2.2467,-2.3279,-2.375,-2.4002,-2.4119,-2.3373,-2.2905,-2.3391,-2.3572,-2.3629,-2.3694,-2.3813,-2.373,-2.3834,-2.4091,-2.4119,-2.4211,-2.4211,-2.4211,-2.4211,-2.4211,-2.4211,-2.4211,-2.4211,-1.5885,-1.5885,-1.5885,-1.5885,-1.5885,-1.5885,-1.5885,-1.5933,-1.6066,-1.6246,-1.6491,-1.6794,-1.6957,-1.7032,-1.6941,-1.6757,-1.6433,-1.6493,-1.6366,-1.6079,-1.6286,-1.6151,-1.5892,-1.5832,-1.5825,-1.5825,-1.5825,-1.5939,-1.6066,-1.5789,-1.5632,-1.5673,-1.5316,-1.4987,-1.4688,-1.4885,-1.4939,-1.4885,-1.5261,-1.5547,-1.5588,-1.573,-1.5778,-1.5825,-1.5825,-1.5825,-1.5825,-1.5825,-1.5825,-1.5825,-1.5825,-1.5825,-1.5825,-1.5825,-1.5825,-1.5825,-1.5825,-1.5825,-1.5825,-1.5825,-1.5825,-1.5825,-1.5825,-1.5818,-1.5856,-1.5842,-1.5881,-1.5967,-1.5967,-1.6009,-1.6064,-1.6226,-1.6326,-1.654,-1.6653,-1.6693,-1.6734,-1.7025,-1.7313,-1.7574,-1.7589,-1.7589,-1.7589,-1.7589,-1.7793,-1.8055,-1.8318,-1.8788,-1.9717,-2.0577,-2.1489,-2.2367,-2.3103,-2.3665,-2.3759,-2.3934,-2.373,-2.3336,-2.3641,-2.3785,-2.3794,-2.3831,-2.395,-2.4055,-2.4128,-2.4174,-2.4202,-2.4211,-2.4211,-2.4211,-2.4211,-2.4211,-2.4211,-2.4211,-2.4211,-1.5885,-1.5885,-1.5885,-1.5885,-1.5873,-1.5789,-1.586,-1.6009,-1.6094,-1.6338,-1.6722,-1.7056,-1.7231,-1.7226,-1.7199,-1.6998,-1.6677,-1.6687,-1.6506,-1.6191,-1.6493,-1.6433,-1.6019,-1.5872,-1.5825,-1.5825,-1.5825,-1.5985,-1.6253,-1.5961,-1.5796,-1.567,-1.5415,-1.4986,-1.461,-1.4688,-1.4742,-1.4736,-1.5022,-1.5309,-1.5499,-1.5635,-1.573,-1.5784,-1.5825,-1.5825,-1.5825,-1.5825,-1.5825,-1.5825,-1.5825,-1.5825,-1.5825,-1.5825,-1.5825,-1.5825,-1.5825,-1.5825,-1.5825,-1.5825,-1.5825,-1.5825,-1.5825,-1.5825,-1.5832,-1.5825,-1.5825,-1.5825,-1.5798,-1.5825,-1.5865,-1.5979,-1.6233,-1.6513,-1.6533,-1.66,-1.6707,-1.6967,-1.7313,-1.7548,-1.7589,-1.7589,-1.7589,-1.7845,-1.7996,-1.8363,-1.8781,-1.9146,-2.0078,-2.0739,-2.1505,-2.2123,-2.2619,-2.3073,-2.3417,-2.3659,-2.3925,-2.3932,-2.4021,-2.4009,-2.3941,-2.4055,-2.4137,-2.411,-2.4146,-2.4183,-2.4211,-2.4211,-2.4211,-2.4211,-2.4211,-2.4211,-2.4211,-2.4211,-2.4211,-1.5885,-1.5885,-1.5885,-1.5885,-1.5861,-1.5715,-1.5856,-1.6225,-1.6156,-1.6285,-1.6742,-1.7093,-1.7253,-1.7213,-1.7246,-1.7213,-1.7159,-1.6934,-1.6794,-1.672,-1.6754,-1.658,-1.6233,-1.5999,-1.5912,-1.5892,-1.5845,-1.6025,-1.64,-1.6237,-1.6048,-1.5684,-1.5504,-1.5132,-1.4558,-1.4334,-1.4485,-1.4646,-1.4688,-1.4975,-1.5404,-1.5499,-1.5588,-1.5778,-1.5778,-1.5778,-1.5778,-1.5737,-1.5778,-1.5825,-1.5825,-1.5825,-1.5825,-1.5825,-1.5825,-1.5825,-1.5825,-1.5825,-1.5825,-1.5825,-1.5825,-1.5825,-1.5825,-1.5825,-1.5825,-1.5825,-1.5825,-1.5825,-1.5825,-1.5845,-1.5872,-1.5872,-1.6012,-1.6226,-1.6373,-1.65,-1.672,-1.7052,-1.7313,-1.7554,-1.7589,-1.7589,-1.7641,-1.8003,-1.8265,-1.8632,-1.9309,-1.9724,-2.0292,-2.0909,-2.1522,-2.203,-2.2526,-2.3135,-2.3713,-2.4027,-2.4276,-2.4375,-2.4414,-2.4356,-2.4199,-2.4254,-2.4291,-2.4214,-2.4156,-2.4192,-2.4211,-2.4211,-2.4211,-2.4211,-2.4211,-2.4211,-2.4211,-2.4211,-2.4211,-1.5885,-1.5885,-1.5885,-1.5885,-1.5933,-1.6025,-1.6137,-1.6365,-1.6701,-1.6724,-1.6873,-1.7284,-1.7393,-1.7239,-1.742,-1.7407,-1.7253,-1.7261,-1.7221,-1.7105,-1.7085,-1.6784,-1.6402,-1.6206,-1.6152,-1.6132,-1.5999,-1.6206,-1.6834,-1.6351,-1.606,-1.6081,-1.567,-1.5208,-1.4691,-1.46,-1.4491,-1.4424,-1.4598,-1.4742,-1.4927,-1.5302,-1.5493,-1.5547,-1.5588,-1.5588,-1.5594,-1.5594,-1.5635,-1.5784,-1.5825,-1.5825,-1.5825,-1.5825,-1.5825,-1.5825,-1.5825,-1.5825,-1.5825,-1.5825,-1.5825,-1.5825,-1.5825,-1.5825,-1.5825,-1.5825,-1.5825,-1.5825,-1.5832,-1.5919,-1.6052,-1.5972,-1.6012,-1.6239,-1.648,-1.6714,-1.6954,-1.7152,-1.7313,-1.7522,-1.7582,-1.7589,-1.7635,-1.7793,-1.822,-1.8848,-1.9368,-1.9887,-2.0454,-2.0814,-2.1326,-2.2283,-2.2929,-2.3529,-2.4066,-2.4412,-2.4667,-2.4716,-2.4766,-2.4756,-2.4609,-2.452,-2.4489,-2.443,-2.4273,-2.4251,-2.4202,-2.4211,-2.4211,-2.4211,-2.4211,-2.4211,-2.4211,-2.4211,-2.4211,-1.5885,-1.5885,-1.5885,-1.5885,-1.5927,-1.6047,-1.6218,-1.6493,-1.6832,-1.7095,-1.7114,-1.7443,-1.7541,-1.7414,-1.7554,-1.7474,-1.7246,-1.7188,-1.7174,-1.7259,-1.732,-1.6994,-1.658,-1.6453,-1.6453,-1.644,-1.6279,-1.6573,-1.6994,-1.668,-1.6449,-1.6266,-1.6004,-1.5481,-1.4727,-1.4779,-1.4678,-1.4395,-1.454,-1.4727,-1.4748,-1.4975,-1.5213,-1.5309,-1.5309,-1.5309,-1.5315,-1.5452,-1.5588,-1.573,-1.5825,-1.5825,-1.5825,-1.5825,-1.5825,-1.5825,-1.5825,-1.5825,-1.5825,-1.5825,-1.5825,-1.5825,-1.5825,-1.5825,-1.5825,-1.5825,-1.5825,-1.5825,-1.5825,-1.5919,-1.6052,-1.6126,-1.6273,-1.648,-1.682,-1.7081,-1.7213,-1.7192,-1.7333,-1.7534,-1.7589,-1.7589,-1.7641,-1.7793,-1.837,-1.9056,-1.9532,-2.0094,-2.066,-2.0873,-2.1326,-2.2384,-2.2979,-2.3429,-2.4075,-2.4529,-2.4883,-2.4981,-2.5137,-2.5137,-2.4932,-2.4784,-2.4686,-2.4538,-2.444,-2.4301,-2.4301,-2.4251,-2.4211,-2.4211,-2.4211,-2.4211,-2.4211,-2.4211,-2.4211,-1.5785,-1.5725,-1.5785,-1.5785,-1.5695,-1.5872,-1.6184,-1.6554,-1.684,-1.714,-1.7423,-1.7555,-1.7528,-1.7542,-1.7581,-1.7442,-1.7246,-1.7068,-1.7027,-1.7239,-1.7348,-1.7248,-1.68,-1.6754,-1.6754,-1.6734,-1.6727,-1.6887,-1.7121,-1.7154,-1.6839,-1.6484,-1.6322,-1.5757,-1.5032,-1.498,-1.4793,-1.4425,-1.4479,-1.4625,-1.4629,-1.4736,-1.4885,-1.5029,-1.5077,-1.5083,-1.5178,-1.5315,-1.5547,-1.5825,-1.5825,-1.5825,-1.5825,-1.5825,-1.5825,-1.5825,-1.5825,-1.5825,-1.5825,-1.5825,-1.5825,-1.5825,-1.5825,-1.5825,-1.5825,-1.5825,-1.5825,-1.5825,-1.5825,-1.5872,-1.6005,-1.6373,-1.6647,-1.678,-1.7221,-1.74,-1.732,-1.7246,-1.7347,-1.7581,-1.7582,-1.7589,-1.774,-1.7996,-1.8534,-1.8795,-1.942,-2.0086,-2.0755,-2.1216,-2.1827,-2.2728,-2.3079,-2.312,-2.3877,-2.4578,-2.4981,-2.5235,-2.543,-2.543,-2.5186,-2.503,-2.4833,-2.4707,-2.4515,-2.4445,-2.444,-2.435,-2.4245,-2.4251,-2.4251,-2.4251,-2.4211,-2.4211,-2.4211,-1.4982,-1.46,-1.503,-1.4928,-1.475,-1.5506,-1.5943,-1.614,-1.7042,-1.7343,-1.738,-1.7482,-1.7455,-1.7333,-1.7475,-1.7535,-1.7422,-1.7308,-1.7328,-1.7226,-1.7448,-1.7382,-1.7146,-1.7085,-1.7099,-1.7058,-1.6807,-1.6994,-1.7321,-1.7236,-1.7009,-1.6662,-1.6512,-1.605,-1.5151,-1.5059,-1.4841,-1.4407,-1.4383,-1.4437,-1.4479,-1.4592,-1.4694,-1.479,-1.479,-1.4885,-1.5083,-1.5178,-1.5363,-1.5689,-1.5825,-1.5825,-1.5825,-1.5825,-1.5825,-1.5825,-1.5825,-1.5825,-1.5832,-1.5838,-1.5825,-1.5832,-1.5852,-1.5825,-1.5825,-1.5832,-1.5832,-1.5832,-1.5832,-1.5925,-1.6179,-1.6486,-1.68,-1.7085,-1.7239,-1.74,-1.7442,-1.7475,-1.7508,-1.7562,-1.7589,-1.7641,-1.7641,-1.7733,-1.816,-1.8579,-1.9309,-2.0027,-2.0747,-2.1514,-2.2417,-2.3329,-2.3578,-2.3777,-2.448,-2.503,-2.5186,-2.543,-2.5586,-2.5567,-2.5324,-2.5178,-2.4985,-2.4811,-2.4619,-2.454,-2.444,-2.4287,-2.4078,-2.4205,-2.4341,-2.4301,-2.4251,-2.4251,-2.4251,-1.4444,-1.4218,-1.4498,-1.4439,-1.4439,-1.5405,-1.5885,-1.6152,-1.71,-1.7502,-1.7408,-1.7528,-1.7488,-1.74,-1.742,-1.7315,-1.7188,-1.7174,-1.7168,-1.7206,-1.7367,-1.734,-1.7246,-1.7219,-1.7253,-1.7288,-1.7118,-1.7237,-1.7416,-1.735,-1.7023,-1.6717,-1.667,-1.6106,-1.5267,-1.5215,-1.492,-1.4461,-1.4437,-1.4443,-1.437,-1.4442,-1.449,-1.4496,-1.4544,-1.4592,-1.4694,-1.4981,-1.5172,-1.5458,-1.5689,-1.5825,-1.5825,-1.5825,-1.5825,-1.5825,-1.5825,-1.5825,-1.5838,-1.5945,-1.5979,-1.5798,-1.5945,-1.6019,-1.5985,-1.5925,-1.5912,-1.5965,-1.5917,-1.5944,-1.6426,-1.674,-1.7085,-1.7326,-1.74,-1.7481,-1.7601,-1.7589,-1.7589,-1.7589,-1.7589,-1.7793,-1.7845,-1.7943,-1.8468,-1.9205,-2.0071,-2.079,-2.1454,-2.2274,-2.3129,-2.3827,-2.4233,-2.4627,-2.5235,-2.5577,-2.5528,-2.5635,-2.5635,-2.5527,-2.5265,-2.5189,-2.5141,-2.4862,-2.4565,-2.445,-2.4286,-2.4125,-2.4122,-2.4342,-2.443,-2.439,-2.439,-2.444,-2.444,-1.4002,-1.3954,-1.4008,-1.4008,-1.4169,-1.5137,-1.5618,-1.5832,-1.6842,-1.7199,-1.7364,-1.7417,-1.7351,-1.7417,-1.7348,-1.7074,-1.6934,-1.6847,-1.7058,-1.7306,-1.734,-1.7353,-1.7313,-1.7333,-1.7355,-1.7516,-1.7371,-1.7417,-1.7417,-1.7325,-1.7081,-1.6723,-1.6607,-1.6068,-1.5354,-1.527,-1.5071,-1.4515,-1.4648,-1.4648,-1.4443,-1.4437,-1.4425,-1.4346,-1.4346,-1.4394,-1.4544,-1.4838,-1.5131,-1.5178,-1.5594,-1.5778,-1.5825,-1.5825,-1.5825,-1.5825,-1.5825,-1.5825,-1.5858,-1.5999,-1.6046,-1.5804,-1.6092,-1.6239,-1.6199,-1.6146,-1.6179,-1.6192,-1.6213,-1.6213,-1.666,-1.6985,-1.7286,-1.7534,-1.7575,-1.7589,-1.7641,-1.7641,-1.7694,-1.7694,-1.7852,-1.8055,-1.8318,-1.852,-1.9153,-1.9828,-2.0688,-2.1446,-2.2114,-2.2828,-2.3578,-2.443,-2.4833,-2.4981,-2.5528,-2.5684,-2.5684,-2.5684,-2.5684,-2.5547,-2.5244,-2.5001,-2.4868,-2.4638,-2.44,-2.4296,-2.4231,-2.4165,-2.424,-2.451,-2.4618,-2.4637,-2.4637,-2.4686,-2.4677,-1.3147,-1.2762,-1.3261,-1.331,-1.331,-1.4116,-1.4648,-1.4922,-1.5867,-1.6205,-1.6299,-1.6617,-1.6823,-1.6975,-1.7391,-1.7455,-1.7223,-1.7141,-1.7246,-1.7428,-1.7448,-1.7435,-1.7467,-1.7454,-1.739,-1.7358,-1.7384,-1.743,-1.7325,-1.7378,-1.7008,-1.6486,-1.6388,-1.5886,-1.5342,-1.5149,-1.5083,-1.4739,-1.4871,-1.4859,-1.4708,-1.4636,-1.4533,-1.4389,-1.4377,-1.4461,-1.4665,-1.4946,-1.5226,-1.5404,-1.5642,-1.5784,-1.5852,-1.5852,-1.5872,-1.5825,-1.5825,-1.5825,-1.5852,-1.5892,-1.5899,-1.5851,-1.6132,-1.6293,-1.6346,-1.6426,-1.6466,-1.652,-1.6553,-1.6607,-1.6693,-1.7058,-1.7326,-1.7548,-1.7641,-1.7641,-1.7687,-1.7852,-1.8016,-1.8062,-1.822,-1.8422,-1.8788,-1.9094,-1.9465,-1.9983,-2.0644,-2.1446,-2.2207,-2.297,-2.3786,-2.4637,-2.5489,-2.5538,-2.5684,-2.5684,-2.5684,-2.5684,-2.5674,-2.5625,-2.5322,-2.4824,-2.4563,-2.446,-2.4266,-2.4035,-2.4031,-2.4159,-2.4393,-2.4668,-2.481,-2.4883,-2.4883,-2.4873,-2.4924,-1.2596,-1.2299,-1.2665,-1.2817,-1.291,-1.3804,-1.4255,-1.4529,-1.5317,-1.5686,-1.5739,-1.6008,-1.6346,-1.6554,-1.646,-1.6625,-1.6899,-1.7183,-1.7315,-1.7515,-1.7487,-1.7355,-1.7382,-1.7427,-1.7205,-1.7095,-1.7239,-1.7219,-1.6955,-1.6902,-1.6743,-1.6458,-1.628,-1.5937,-1.5469,-1.5324,-1.5161,-1.5016,-1.504,-1.5059,-1.4932,-1.4908,-1.4763,-1.4606,-1.4618,-1.4789,-1.4911,-1.5147,-1.5361,-1.5565,-1.5876,-1.5911,-1.5965,-1.6072,-1.6132,-1.5912,-1.5845,-1.5832,-1.5872,-1.5945,-1.6072,-1.6099,-1.6333,-1.6567,-1.6653,-1.672,-1.668,-1.66,-1.6847,-1.6867,-1.674,-1.7159,-1.7513,-1.7759,-1.7806,-1.7852,-1.8062,-1.8265,-1.8422,-1.8586,-1.8632,-1.8938,-1.9457,-1.9724,-1.9828,-2.0241,-2.0696,-2.1404,-2.2198,-2.2861,-2.3587,-2.4341,-2.5137,-2.5538,-2.5635,-2.5684,-2.5684,-2.5684,-2.5674,-2.5625,-2.5449,-2.4971,-2.4648,-2.4446,-2.4219,-2.3926,-2.4134,-2.4336,-2.459,-2.4881,-2.5112,-2.5226,-2.5079,-2.506,-2.5158,-1.2288,-1.2161,-1.2429,-1.2592,-1.2825,-1.364,-1.4045,-1.4256,-1.4763,-1.5082,-1.5258,-1.5443,-1.586,-1.6128,-1.6017,-1.594,-1.6438,-1.6988,-1.7315,-1.7495,-1.7447,-1.7313,-1.73,-1.7235,-1.7132,-1.686,-1.6957,-1.6902,-1.6683,-1.6577,-1.6377,-1.6234,-1.6234,-1.5998,-1.5569,-1.5457,-1.5342,-1.5276,-1.5252,-1.524,-1.5131,-1.5046,-1.4902,-1.469,-1.489,-1.5033,-1.5084,-1.5399,-1.5624,-1.5797,-1.6067,-1.6266,-1.6132,-1.6446,-1.6473,-1.6099,-1.5965,-1.5919,-1.5979,-1.6099,-1.6226,-1.6233,-1.6593,-1.6924,-1.7079,-1.7012,-1.6827,-1.667,-1.6945,-1.7217,-1.7069,-1.7378,-1.7784,-1.801,-1.8122,-1.8167,-1.8422,-1.8684,-1.9049,-1.9101,-1.9146,-1.9457,-1.9931,-2.0189,-2.0351,-2.0454,-2.0858,-2.131,-2.2064,-2.2467,-2.3129,-2.3836,-2.4538,-2.5186,-2.5489,-2.5684,-2.5684,-2.5684,-2.5674,-2.5635,-2.5449,-2.5137,-2.4883,-2.4639,-2.4134,-2.3939,-2.4202,-2.4541,-2.4789,-2.5091,-2.546,-2.5567,-2.5382,-2.5314,-2.5431,-1.2368,-1.2403,-1.2703,-1.2915,-1.2997,-1.3393,-1.3652,-1.3856,-1.3879,-1.398,-1.4467,-1.5083,-1.5305,-1.5411,-1.5999,-1.6319,-1.6644,-1.6944,-1.7335,-1.7542,-1.7515,-1.7482,-1.7515,-1.7581,-1.7167,-1.6792,-1.6751,-1.663,-1.6418,-1.6471,-1.6365,-1.6074,-1.598,-1.5802,-1.5572,-1.5559,-1.5487,-1.5499,-1.5662,-1.5559,-1.5179,-1.4944,-1.4702,-1.457,-1.4672,-1.4972,-1.5252,-1.5625,-1.5902,-1.6188,-1.6464,-1.664,-1.662,-1.664,-1.6687,-1.6547,-1.6393,-1.6219,-1.6239,-1.6293,-1.6366,-1.6516,-1.6837,-1.7099,-1.7246,-1.738,-1.7261,-1.7146,-1.7387,-1.7452,-1.7432,-1.7707,-1.8073,-1.8272,-1.8429,-1.8527,-1.8781,-1.9264,-1.9576,-1.9783,-1.9828,-2.0042,-2.0411,-2.0617,-2.0822,-2.0925,-2.107,-2.1471,-2.1869,-2.2224,-2.2828,-2.3578,-2.4341,-2.5039,-2.5489,-2.5684,-2.5684,-2.5684,-2.5674,-2.5654,-2.5547,-2.5352,-2.5195,-2.4883,-2.4387,-2.4231,-2.4553,-2.4863,-2.5019,-2.5254,-2.5528,-2.5645,-2.5684,-2.5664,-2.5645,-1.2378,-1.228,-1.2719,-1.2969,-1.3055,-1.3369,-1.3678,-1.3735,-1.3588,-1.364,-1.3849,-1.4153,-1.4402,-1.479,-1.5594,-1.6147,-1.6327,-1.676,-1.7187,-1.7549,-1.7589,-1.7589,-1.7582,-1.743,-1.7113,-1.6783,-1.6524,-1.6318,-1.6211,-1.6158,-1.6105,-1.598,-1.5895,-1.5846,-1.5692,-1.571,-1.5722,-1.5753,-1.5795,-1.5686,-1.5396,-1.5203,-1.5022,-1.4781,-1.501,-1.5287,-1.557,-1.5885,-1.624,-1.6511,-1.684,-1.686,-1.6854,-1.6974,-1.7148,-1.6947,-1.6898,-1.67,-1.6553,-1.6526,-1.6593,-1.6797,-1.7065,-1.7246,-1.7407,-1.7475,-1.7462,-1.7226,-1.7467,-1.7592,-1.7664,-1.7859,-1.8224,-1.8541,-1.8795,-1.9049,-1.9309,-1.9732,-2.0109,-2.0359,-2.0514,-2.0617,-2.0676,-2.0771,-2.0873,-2.0925,-2.0976,-2.1173,-2.1522,-2.1869,-2.2627,-2.3479,-2.4233,-2.499,-2.5382,-2.5684,-2.5684,-2.5684,-2.5684,-2.5664,-2.5654,-2.5557,-2.541,-2.54,-2.5177,-2.5089,-2.5089,-2.5098,-2.5176,-2.5381,-2.5557,-2.5625,-2.5684,-2.5684,-2.5538,-1.237,-1.2188,-1.2763,-1.3075,-1.314,-1.3481,-1.372,-1.3745,-1.3427,-1.3483,-1.3626,-1.3748,-1.3995,-1.4539,-1.5399,-1.5974,-1.5998,-1.6577,-1.7107,-1.7477,-1.7589,-1.7589,-1.7536,-1.7325,-1.706,-1.667,-1.6418,-1.6217,-1.5998,-1.5939,-1.5939,-1.5885,-1.5921,-1.5867,-1.5879,-1.5861,-1.5855,-1.5855,-1.5873,-1.5741,-1.5523,-1.5475,-1.5312,-1.5246,-1.5363,-1.5661,-1.5986,-1.6278,-1.6549,-1.6965,-1.7141,-1.7168,-1.7094,-1.7295,-1.7415,-1.7333,-1.7266,-1.7199,-1.6981,-1.6907,-1.7012,-1.7132,-1.7306,-1.742,-1.7568,-1.7575,-1.7634,-1.7464,-1.7605,-1.7769,-1.796,-1.8182,-1.8506,-1.8914,-1.922,-1.9524,-1.9783,-2.005,-2.0359,-2.0617,-2.0719,-2.0771,-2.0873,-2.0873,-2.0925,-2.0925,-2.0925,-2.0976,-2.1428,-2.1869,-2.2769,-2.3777,-2.4578,-2.5235,-2.543,-2.5684,-2.5684,-2.5684,-2.5684,-2.5674,-2.5664,-2.5664,-2.5586,-2.5635,-2.5684,-2.5596,-2.5382,-2.5361,-2.5322,-2.5518,-2.5625,-2.5654,-2.5684,-2.5684,-2.5333,-1.2393,-1.227,-1.3063,-1.3356,-1.3383,-1.3501,-1.3606,-1.3755,-1.3125,-1.3397,-1.3954,-1.4164,-1.434,-1.4922,-1.5357,-1.5785,-1.5939,-1.706,-1.7378,-1.7536,-1.7589,-1.7589,-1.7483,-1.7272,-1.7008,-1.6683,-1.6371,-1.6111,-1.5945,-1.5885,-1.5885,-1.5885,-1.5885,-1.5885,-1.5885,-1.5885,-1.5885,-1.5885,-1.5885,-1.5777,-1.5596,-1.5493,-1.5378,-1.5246,-1.5406,-1.5747,-1.6246,-1.652,-1.6904,-1.7408,-1.7448,-1.7482,-1.7415,-1.7502,-1.7581,-1.7554,-1.7534,-1.7435,-1.7361,-1.7266,-1.7192,-1.728,-1.7414,-1.7561,-1.7575,-1.7589,-1.766,-1.7837,-1.7884,-1.8206,-1.8499,-1.8862,-1.8862,-1.9116,-1.9376,-1.9628,-1.9887,-2.0145,-2.0462,-2.0763,-2.0865,-2.0822,-2.0925,-2.0925,-2.0925,-2.0925,-2.0976,-2.1027,-2.1827,-2.2426,-2.3329,-2.4223,-2.503,-2.5528,-2.5586,-2.5684,-2.5684,-2.5684,-2.5684,-2.5684,-2.5674,-2.5684,-2.5684,-2.5684,-2.5684,-2.5684,-2.5674,-2.5547,-2.5547,-2.5606,-2.5684,-2.5684,-2.5684,-2.5645,-2.5071,-1.3502,-1.3762,-1.4078,-1.3905,-1.3388,-1.3624,-1.3739,-1.3717,-1.3227,-1.3243,-1.3829,-1.3895,-1.4158,-1.4524,-1.4724,-1.5309,-1.5891,-1.6264,-1.6948,-1.7424,-1.7589,-1.7589,-1.7483,-1.716,-1.6789,-1.663,-1.6318,-1.5998,-1.5945,-1.5885,-1.5885,-1.5885,-1.5885,-1.5885,-1.5885,-1.5885,-1.5945,-1.5885,-1.5885,-1.5813,-1.5753,-1.5565,-1.5451,-1.539,-1.5615,-1.5909,-1.6303,-1.6754,-1.7173,-1.7483,-1.7589,-1.7589,-1.7589,-1.7589,-1.7589,-1.7589,-1.7589,-1.7589,-1.7589,-1.7521,-1.7474,-1.7481,-1.7574,-1.7641,-1.7641,-1.7747,-1.7859,-1.801,-1.8174,-1.8496,-1.8764,-1.8921,-1.8974,-1.9272,-1.9532,-1.9732,-1.9939,-2.0205,-2.0411,-2.0668,-2.0719,-2.0719,-2.0822,-2.0925,-2.0925,-2.0925,-2.0968,-2.1224,-2.208,-2.2937,-2.3777,-2.448,-2.5284,-2.5635,-2.5684,-2.5684,-2.5684,-2.5684,-2.5684,-2.5684,-2.5684,-2.5684,-2.5684,-2.5684,-2.5684,-2.5684,-2.5684,-2.5684,-2.5635,-2.5577,-2.5586,-2.5635,-2.5645,-2.5567,-2.4908,-1.4127,-1.4497,-1.4835,-1.4577,-1.4044,-1.4027,-1.4119,-1.4092,-1.3691,-1.3535,-1.3748,-1.3881,-1.4019,-1.4159,-1.4461,-1.4993,-1.5785,-1.6205,-1.6783,-1.7265,-1.7589,-1.7589,-1.7371,-1.71,-1.673,-1.6571,-1.6205,-1.5885,-1.5885,-1.5885,-1.5885,-1.5885,-1.5885,-1.5885,-1.5945,-1.5998,-1.6051,-1.5998,-1.5998,-1.6099,-1.6115,-1.5887,-1.5842,-1.5876,-1.6103,-1.6325,-1.6618,-1.6976,-1.7252,-1.7483,-1.7589,-1.7589,-1.7589,-1.7589,-1.7589,-1.7589,-1.7589,-1.7589,-1.7589,-1.7582,-1.7635,-1.7608,-1.7615,-1.7641,-1.7747,-1.7911,-1.8016,-1.8338,-1.8489,-1.8698,-1.8974,-1.9078,-1.9071,-1.9324,-1.9576,-1.9783,-1.9887,-2.0101,-2.0308,-2.0522,-2.0617,-2.0719,-2.0771,-2.0925,-2.0925,-2.107,-2.1428,-2.1776,-2.2577,-2.3379,-2.4134,-2.4784,-2.5382,-2.5586,-2.5684,-2.5684,-2.5684,-2.5684,-2.5684,-2.5684,-2.5684,-2.5684,-2.5684,-2.5684,-2.5684,-2.5684,-2.5684,-2.5684,-2.5538,-2.5382,-2.5382,-2.5382,-2.5111,-2.4996,-2.4775,-1.4202,-1.4049,-1.5098,-1.5451,-1.5277,-1.4837,-1.4757,-1.4865,-1.4487,-1.4252,-1.4253,-1.4267,-1.4261,-1.4401,-1.4778,-1.5357,-1.5891,-1.6418,-1.6995,-1.7477,-1.7589,-1.7589,-1.7371,-1.7047,-1.667,-1.6577,-1.6205,-1.5885,-1.5885,-1.5885,-1.5885,-1.5992,-1.5992,-1.5992,-1.5945,-1.6164,-1.6271,-1.6324,-1.6324,-1.6424,-1.6465,-1.6321,-1.6355,-1.6449,-1.6601,-1.6759,-1.6996,-1.718,-1.7378,-1.7529,-1.7589,-1.7589,-1.7589,-1.7589,-1.7589,-1.7589,-1.7589,-1.7589,-1.7589,-1.7589,-1.7589,-1.7641,-1.7641,-1.7747,-1.7905,-1.8069,-1.8286,-1.8608,-1.8817,-1.8966,-1.9175,-1.9279,-1.9279,-1.9376,-1.9576,-1.9732,-1.9887,-2.0042,-2.0248,-2.047,-2.0668,-2.0865,-2.0865,-2.0925,-2.0925,-2.1173,-2.1683,-2.2325,-2.3079,-2.3728,-2.448,-2.503,-2.5538,-2.5586,-2.5684,-2.5684,-2.5684,-2.5684,-2.5684,-2.5684,-2.5684,-2.5684,-2.5684,-2.5684,-2.5684,-2.5684,-2.5693,-2.5693,-2.5489,-2.5284,-2.5079,-2.4982,-2.4676,-2.4562,-2.4515,-1.5232,-1.5544,-1.6056,-1.6407,-1.6433,-1.562,-1.5282,-1.5324,-1.5191,-1.5095,-1.5086,-1.5229,-1.5041,-1.5041,-1.5303,-1.5678,-1.5939,-1.6465,-1.6995,-1.7529,-1.7589,-1.7589,-1.7424,-1.7047,-1.6723,-1.6571,-1.6205,-1.5939,-1.5885,-1.5939,-1.6051,-1.6105,-1.6311,-1.6311,-1.6264,-1.6424,-1.6577,-1.6577,-1.6577,-1.663,-1.6683,-1.663,-1.663,-1.6723,-1.6902,-1.712,-1.7226,-1.7331,-1.7483,-1.7582,-1.7589,-1.7589,-1.7589,-1.7589,-1.7589,-1.7589,-1.7589,-1.7589,-1.7589,-1.7589,-1.7589,-1.7641,-1.774,-1.7852,-1.8016,-1.8391,-1.866,-1.8869,-1.9078,-1.9175,-1.9279,-1.9279,-1.9272,-1.9331,-1.9532,-1.968,-1.9835,-2.0034,-2.0241,-2.0411,-2.0624,-2.0822,-2.0873,-2.0925,-2.0976,-2.1224,-2.1725,-2.2787,-2.3628,-2.4084,-2.4686,-2.5235,-2.5635,-2.5684,-2.5684,-2.5538,-2.5635,-2.5684,-2.5684,-2.5684,-2.5684,-2.5684,-2.5684,-2.5684,-2.5684,-2.5684,-2.5684,-2.5635,-2.543,-2.5226,-2.5079,-2.4932,-2.4827,-2.4741,-2.4711,-1.5698,-1.6085,-1.6619,-1.6907,-1.6892,-1.6228,-1.5926,-1.5894,-1.5807,-1.5753,-1.5808,-1.5877,-1.5678,-1.5517,-1.5678,-1.6099,-1.6205,-1.6524,-1.6995,-1.7529,-1.7589,-1.7589,-1.7424,-1.7107,-1.6836,-1.6624,-1.6311,-1.5998,-1.5945,-1.5998,-1.6152,-1.6471,-1.6743,-1.6743,-1.6696,-1.6796,-1.6895,-1.6902,-1.6902,-1.6948,-1.7001,-1.6948,-1.6948,-1.7054,-1.7219,-1.7331,-1.7384,-1.7483,-1.7589,-1.7589,-1.7589,-1.7589,-1.7589,-1.7589,-1.7589,-1.7589,-1.7589,-1.7589,-1.7589,-1.7589,-1.7589,-1.7641,-1.7799,-1.7957,-1.8115,-1.8436,-1.8757,-1.9018,-1.9175,-1.9272,-1.9272,-1.9272,-1.9331,-1.9383,-1.9532,-1.968,-1.9835,-2.0034,-2.0292,-2.0462,-2.0624,-2.0771,-2.0873,-2.0976,-2.1027,-2.1377,-2.1776,-2.2878,-2.3935,-2.4381,-2.4686,-2.5137,-2.5528,-2.5577,-2.5479,-2.5284,-2.5382,-2.5635,-2.5635,-2.5538,-2.5684,-2.5684,-2.5684,-2.5684,-2.5703,-2.5713,-2.5635,-2.5586,-2.5499,-2.5342,-2.5186,-2.5039,-2.4941,-2.4843,-2.4784,-1.5483,-1.5656,-1.6723,-1.6967,-1.676,-1.6686,-1.6673,-1.6686,-1.6484,-1.6355,-1.6367,-1.6166,-1.6045,-1.5939,-1.5992,-1.6258,-1.6624,-1.6736,-1.716,-1.7477,-1.7589,-1.7589,-1.7536,-1.7272,-1.6948,-1.6683,-1.6424,-1.6105,-1.5998,-1.6345,-1.6599,-1.6806,-1.7209,-1.7217,-1.7231,-1.7231,-1.7212,-1.7192,-1.7219,-1.7265,-1.7318,-1.7325,-1.7325,-1.743,-1.7536,-1.7536,-1.7536,-1.7589,-1.7589,-1.7589,-1.7589,-1.7589,-1.7589,-1.7589,-1.7589,-1.7589,-1.7589,-1.7589,-1.7589,-1.7589,-1.7589,-1.7589,-1.7641,-1.7905,-1.8167,-1.8377,-1.8698,-1.8966,-1.9175,-1.9227,-1.9272,-1.9279,-1.9331,-1.9428,-1.9635,-1.9783,-1.9887,-2.0145,-2.0403,-2.0617,-2.0779,-2.0873,-2.0873,-2.0976,-2.1078,-2.1377,-2.1725,-2.2274,-2.3329,-2.4332,-2.4578,-2.4784,-2.5137,-2.5382,-2.5235,-2.4981,-2.5114,-2.5358,-2.5273,-2.5245,-2.544,-2.5693,-2.5771,-2.5791,-2.5762,-2.581,-2.6035,-2.5898,-2.5625,-2.5479,-2.5439,-2.5245,-2.5088,-2.4833,-2.4735,-1.5347,-1.5573,-1.6253,-1.6762,-1.7021,-1.7065,-1.7134,-1.7335,-1.7271,-1.7193,-1.7206,-1.7173,-1.6842,-1.6524,-1.6889,-1.6889,-1.6942,-1.7107,-1.7371,-1.7582,-1.7589,-1.7589,-1.7536,-1.7331,-1.7008,-1.6743,-1.6477,-1.6324,-1.6373,-1.6788,-1.7171,-1.7384,-1.7733,-1.7748,-1.7616,-1.7696,-1.7576,-1.7497,-1.7457,-1.7483,-1.7582,-1.7483,-1.7536,-1.7589,-1.7589,-1.7589,-1.7589,-1.7589,-1.7589,-1.7589,-1.7589,-1.7589,-1.7589,-1.7589,-1.7589,-1.7589,-1.7589,-1.7589,-1.7589,-1.7589,-1.7589,-1.7589,-1.7589,-1.7747,-1.8062,-1.8325,-1.8534,-1.8855,-1.9018,-1.9018,-1.9116,-1.9116,-1.9272,-1.948,-1.968,-1.9939,-2.0094,-2.0403,-2.0668,-2.0719,-2.0873,-2.0873,-2.0925,-2.0925,-2.1019,-2.1318,-2.1674,-2.2072,-2.2677,-2.3678,-2.4282,-2.439,-2.443,-2.4578,-2.4726,-2.4529,-2.4833,-2.5005,-2.4824,-2.4836,-2.5206,-2.5502,-2.5799,-2.6016,-2.6084,-2.6348,-2.6619,-2.6366,-2.5839,-2.5927,-2.5868,-2.5556,-2.5235,-2.4981,-2.4883,-1.5033,-1.5272,-1.5871,-1.6456,-1.6947,-1.7032,-1.7081,-1.7241,-1.7407,-1.7462,-1.7582,-1.7589,-1.7424,-1.7153,-1.7371,-1.7424,-1.7153,-1.7371,-1.7582,-1.7582,-1.7589,-1.7589,-1.7536,-1.743,-1.7219,-1.6902,-1.6743,-1.6643,-1.6706,-1.7036,-1.7414,-1.7581,-1.8109,-1.8003,-1.7796,-1.7782,-1.7869,-1.7736,-1.7675,-1.7609,-1.7602,-1.7609,-1.7589,-1.7602,-1.7602,-1.7589,-1.7589,-1.7589,-1.7589,-1.7589,-1.7589,-1.7589,-1.7589,-1.7589,-1.7589,-1.7589,-1.7589,-1.7589,-1.7589,-1.7589,-1.7589,-1.7589,-1.7589,-1.7687,-1.7852,-1.8062,-1.8331,-1.8653,-1.8705,-1.8757,-1.8855,-1.8952,-1.9212,-1.948,-1.9783,-2.0094,-2.0351,-2.0719,-2.0822,-2.0873,-2.0925,-2.0925,-2.0925,-2.0925,-2.0917,-2.107,-2.1216,-2.1369,-2.2021,-2.2929,-2.3479,-2.3728,-2.3678,-2.3678,-2.3827,-2.3935,-2.3963,-2.4025,-2.3895,-2.4047,-2.4698,-2.5471,-2.5942,-2.6224,-2.6445,-2.6699,-2.6904,-2.6484,-2.6064,-2.6182,-2.6182,-2.5849,-2.5537,-2.5235,-2.5235,-1.47,-1.4773,-1.5564,-1.6137,-1.6554,-1.6573,-1.665,-1.6683,-1.7007,-1.732,-1.7495,-1.7535,-1.7542,-1.7463,-1.7589,-1.7589,-1.7477,-1.7589,-1.7589,-1.7589,-1.7589,-1.7589,-1.7589,-1.7589,-1.7378,-1.7279,-1.7139,-1.6947,-1.6913,-1.7315,-1.7681,-1.7682,-1.8123,-1.8163,-1.7929,-1.8116,-1.8149,-1.8076,-1.7916,-1.7809,-1.7742,-1.7682,-1.7615,-1.7635,-1.7622,-1.7589,-1.7589,-1.7589,-1.7589,-1.7589,-1.7589,-1.7589,-1.7589,-1.7589,-1.7589,-1.7589,-1.7589,-1.7589,-1.7589,-1.7589,-1.7589,-1.7589,-1.7589,-1.7635,-1.774,-1.7852,-1.8122,-1.8331,-1.8384,-1.8489,-1.8586,-1.8691,-1.89,-1.9316,-1.9732,-2.0145,-2.0565,-2.0771,-2.0873,-2.0925,-2.0925,-2.0925,-2.0925,-2.0925,-2.0925,-2.0917,-2.0968,-2.1019,-2.1369,-2.2224,-2.2577,-2.2878,-2.2677,-2.2627,-2.2979,-2.3046,-2.2931,-2.2909,-2.3014,-2.3658,-2.4672,-2.5433,-2.6177,-2.6554,-2.6865,-2.6875,-2.6914,-2.6475,-2.624,-2.6416,-2.6357,-2.6152,-2.5829,-2.5527,-2.544,-1.4496,-1.476,-1.5327,-1.5682,-1.5832,-1.6022,-1.6203,-1.6413,-1.6673,-1.6967,-1.7273,-1.7326,-1.7402,-1.7569,-1.7589,-1.7589,-1.7589,-1.7589,-1.7589,-1.7589,-1.7589,-1.7589,-1.7589,-1.7589,-1.7437,-1.7279,-1.7205,-1.7271,-1.7401,-1.7772,-1.8154,-1.8303,-1.8624,-1.8644,-1.823,-1.8477,-1.8482,-1.8384,-1.8303,-1.8243,-1.8263,-1.8056,-1.7936,-1.7862,-1.7796,-1.7635,-1.7615,-1.7595,-1.7589,-1.7589,-1.7589,-1.7589,-1.7589,-1.7595,-1.7595,-1.7589,-1.7622,-1.7622,-1.7589,-1.7589,-1.7589,-1.7589,-1.7589,-1.7589,-1.7641,-1.7694,-1.7799,-1.801,-1.8115,-1.8213,-1.8318,-1.8422,-1.8684,-1.9212,-1.968,-2.0197,-2.0719,-2.0822,-2.0925,-2.0925,-2.0925,-2.0925,-2.0925,-2.0925,-2.0925,-2.0925,-2.0925,-2.0925,-2.0976,-2.142,-2.1522,-2.1725,-2.1522,-2.1573,-2.203,-2.23,-2.2181,-2.2663,-2.3013,-2.3761,-2.458,-2.5899,-2.7021,-2.7104,-2.7285,-2.7275,-2.7021,-2.6356,-2.6299,-2.6641,-2.6514,-2.6289,-2.6113,-2.5819,-2.5732,-1.4394,-1.4562,-1.5,-1.5215,-1.536,-1.5638,-1.5833,-1.5983,-1.6361,-1.655,-1.6733,-1.709,-1.7383,-1.747,-1.7536,-1.7589,-1.7589,-1.7589,-1.7589,-1.7589,-1.7589,-1.7589,-1.7589,-1.7589,-1.7536,-1.7378,-1.7384,-1.749,-1.7701,-1.794,-1.827,-1.843,-1.8844,-1.8998,-1.8591,-1.8751,-1.8858,-1.8691,-1.8684,-1.8738,-1.8764,-1.8504,-1.827,-1.8156,-1.7989,-1.7822,-1.7722,-1.7709,-1.7682,-1.7742,-1.7809,-1.7809,-1.7816,-1.7816,-1.7802,-1.7802,-1.7796,-1.7729,-1.7655,-1.7609,-1.7615,-1.7615,-1.7589,-1.7589,-1.7589,-1.7641,-1.7641,-1.7799,-1.7793,-1.7891,-1.8055,-1.816,-1.8691,-1.922,-1.9724,-2.0241,-2.0609,-2.0873,-2.0925,-2.0925,-2.0925,-2.0925,-2.0925,-2.0925,-2.0925,-2.0925,-2.0925,-2.0933,-2.0933,-2.0972,-2.0956,-2.0925,-2.0925,-2.0917,-2.1318,-2.1538,-2.1571,-2.2113,-2.2869,-2.3695,-2.4623,-2.6582,-2.791,-2.7764,-2.7666,-2.7637,-2.7266,-2.6738,-2.6787,-2.7197,-2.6865,-2.6416,-2.6279,-2.6152,-2.5908,-1.4298,-1.4346,-1.455,-1.479,-1.5083,-1.5315,-1.5471,-1.5612,-1.6056,-1.6133,-1.6075,-1.7,-1.7279,-1.7325,-1.743,-1.7529,-1.7582,-1.7589,-1.7589,-1.7589,-1.7589,-1.7589,-1.7589,-1.7589,-1.7589,-1.7589,-1.7536,-1.7596,-1.7716,-1.805,-1.8215,-1.8229,-1.8488,-1.8865,-1.8751,-1.8824,-1.8985,-1.8985,-1.9011,-1.9118,-1.9025,-1.8851,-1.8631,-1.8444,-1.8283,-1.8123,-1.8009,-1.7903,-1.7856,-1.7856,-1.7936,-1.7936,-1.7922,-1.7976,-1.8009,-1.8009,-1.8103,-1.7983,-1.7842,-1.7742,-1.7709,-1.7662,-1.7622,-1.7595,-1.7602,-1.7589,-1.7589,-1.7648,-1.7641,-1.7694,-1.7859,-1.8188,-1.8719,-1.9368,-1.988,-2.0375,-2.0692,-2.1004,-2.1052,-2.1044,-2.0988,-2.0996,-2.0948,-2.0948,-2.0941,-2.0941,-2.0964,-2.0948,-2.0972,-2.1052,-2.1091,-2.0996,-2.0925,-2.0917,-2.0968,-2.1139,-2.1298,-2.1677,-2.2445,-2.344,-2.4748,-2.6799,-2.8043,-2.8144,-2.8057,-2.7842,-2.7715,-2.7334,-2.7519,-2.766,-2.7148,-2.668,-2.6699,-2.6523,-2.6143,-1.4298,-1.4298,-1.4346,-1.4544,-1.479,-1.5077,-1.5309,-1.5545,-1.6042,-1.6029,-1.5877,-1.6418,-1.6827,-1.6899,-1.7141,-1.7378,-1.7589,-1.7589,-1.7589,-1.7589,-1.7589,-1.7589,-1.7589,-1.7589,-1.7589,-1.7589,-1.7615,-1.7729,-1.7869,-1.8203,-1.8524,-1.8661,-1.9025,-1.9225,-1.9283,-1.9259,-1.9232,-1.9225,-1.9232,-1.935,-1.9225,-1.9065,-1.8898,-1.8724,-1.8564,-1.8457,-1.833,-1.8062,-1.7982,-1.7902,-1.7896,-1.7949,-1.8009,-1.8115,-1.8195,-1.837,-1.8404,-1.833,-1.8183,-1.8029,-1.7976,-1.7929,-1.7862,-1.7675,-1.7655,-1.7609,-1.7615,-1.7695,-1.7688,-1.7688,-1.7913,-1.8369,-1.8917,-1.9702,-2.03,-2.0669,-2.0956,-2.1322,-2.152,-2.1385,-2.1242,-2.1171,-2.1068,-2.106,-2.1044,-2.1099,-2.1214,-2.1182,-2.106,-2.1131,-2.1234,-2.1115,-2.0996,-2.0925,-2.0933,-2.1219,-2.139,-2.1651,-2.2249,-2.3734,-2.5317,-2.7047,-2.8024,-2.8169,-2.8047,-2.7793,-2.7685,-2.7754,-2.7656,-2.7617,-2.7266,-2.6973,-2.7021,-2.6865,-2.6455]},{"header":{"parameterUnit":"m.s-1","parameterCategory":1,"la1":31.0,"la2":29.5877,"lo1":-88.7671,"lo2":-86.6584,"dy":0.0162,"dx":0.0185,"nx":115,"ny":88,"refTime":"2024-03-01T18:00:00:Z","depth":0,"parameterNumber":3,"parameterNumberName":"V-component_of_WINDS"},"data":[0.0,0.0,0.0,0.0,0.0,0.0,0.0,0.0,0.0,0.0,0.0,0.0,0.0,0.0,0.0,0.0,0.0,0.0,0.0,0.0,0.0,0.0,0.0,0.0,0.0,0.0,0.0,0.0,0.0,0.0,0.0,0.0,0.0,0.0,0.0,0.0,0.0,0.0,0.0,0.0,0.0,0.0,0.0,0.0,0.0,0.0,0.0,0.0,0.0,0.0,0.0,0.0,0.0,0.0,0.0,0.0,0.0,0.0,0.0,0.0,0.0,0.0,0.0,0.0,0.0,0.0,0.0,0.0,0.0,0.0,0.0,0.0,0.0,0.0,0.0,0.0,0.0,0.0,0.0,0.0,0.0,0.0,0.0,0.0,0.0,0.0,0.0,0.0,0.0,0.0,0.0,0.0,0.0,0.0,0.0,0.0,0.0,0.0,0.0,0.0,0.0,0.0,0.0,0.0,0.0,0.0,0.0,0.0,0.0,0.0,0.0,0.0,0.0,0.0,0.0,0.0,0.0,0.0,0.0,0.0,0.0,0.0,0.0,0.0,0.0,0.0,0.0,0.0,0.0,0.0,0.0,0.0,0.0,0.0,0.0,0.0,0.0,0.0,0.0,0.0,0.0,0.0,0.0,0.0,0.0,0.0,0.0,0.0,0.0,0.0,0.0,0.0,0.0,0.0,0.0,0.0,0.0,0.0,0.0,0.0,0.0,0.0,0.0,0.0,0.0,0.0,0.0,0.0,0.0,0.0,0.0,0.0,0.0,0.0,0.0,0.0,0.0,0.0,0.0,0.0,0.0,0.0,0.0,0.0,0.0,0.0,0.0,0.0,0.0,0.0,0.0,0.0,0.0,0.0,0.0,0.0,0.0,0.0,0.0,0.0,0.0,0.0,0.0,0.0,0.0,0.0,0.0,0.0,0.0,0.0,0.0,0.0,0.0,0.0,0.0,0.0,0.0,0.0,0.0,0.0,0.0,0.0,0.0,0.0,0.0,0.0,0.0,0.0,0.0,0.0,0.0,0.0,0.0,0.0,0.0,0.0,0.0,0.0,0.0,0.0,0.0,0.0,0.0,0.0,0.0,0.0,0.0,0.0,0.0,0.0,0.0,0.0,0.0,0.0,0.0,0.0,0.0,0.0,0.0,0.0,0.0,0.0,0.0,0.0,0.0,0.0,0.0,0.0,0.0,0.0,0.0,0.0,0.0,0.0,0.0,0.0,0.0,0.0,0.0,0.0,0.0,0.0,0.0,0.0,0.0,0.0,0.0,0.0,0.0,0.0,0.0,0.0,0.0,0.0,0.0,0.0,0.0,0.0,0.0,0.0,0.0,0.0,0.0,0.0,0.0,0.0,0.0,0.0,0.0,0.0,0.0,0.0,0.0,0.0,0.0,0.0,0.0,0.0,0.0,0.0,0.0,0.0,0.0,0.0,0.0,0.0,0.0,0.0,0.0,0.0,0.0,0.0,0.0,0.0,0.0,0.0,0.0,0.0,0.0,0.0,0.0,0.0,0.0,0.0,0.0,0.0,0.0,0.0,0.0,0.0,0.0,0.0,0.0,0.0,0.0,0.0,0.0,0.0,0.0,0.0,0.0,0.0,0.0,0.0,0.0,0.0,0.0,0.0,0.0,0.0,0.0,0.0,0.0,0.0,0.0,0.0,0.0,0.0,0.0,0.0,0.0,0.0,0.0,0.0,0.0,0.0,0.0,0.0,0.0,0.0,0.0,0.0,0.0,0.0,0.0,0.0,0.0,0.0,0.0,0.0,0.0,0.0,0.0,0.0,0.0,0.0,0.0,0.0,0.0,0.0,0.0,0.0,0.0,0.0,0.0,0.0,0.0,0.0,0.0,0.0,0.0,0.0,0.0,0.0,0.0,0.0,0.0,0.0,0.0,0.0,0.0,0.0,0.0,0.0,0.0,0.0,0.0,0.0,0.0,0.0,0.0,0.0,0.0,0.0,0.0,0.0,0.0,0.0,0.0,0.0,0.0,0.0,0.0,0.0,0.0,0.0,0.0,0.0,0.0,0.0,0.0,0.0,0.0,0.0,0.0,0.0,0.0,0.0,0.0,0.0,0.0,0.0,0.0,0.0,0.0,0.0,0.0,0.0,0.0,0.0,0.0,0.0,0.0,0.0,0.0,0.0,0.0,0.0,0.0,0.0,0.0,0.0,0.0,0.0,0.0,0.0,0.0,0.0,0.0,0.0,0.0,0.0,0.0,0.0,0.0,0.0,0.0,0.0,0.0,0.0,0.0,0.0,0.0,0.0,0.0,0.0,0.0,0.0,0.0,0.0,0.0,0.0,0.0,0.0,0.0,0.0,0.0,0.0,0.0,0.0,0.0,0.0,0.0,0.0,0.0,0.0,0.0,0.0,0.0,0.0,0.0,0.0,0.0,0.0,0.0,0.0,0.0,0.0,0.0,0.0,0.0,0.0,0.0,0.0,0.0,0.0,0.0,0.0,0.0,0.0,0.0,0.0,0.0,0.0,0.0,0.0,0.0,0.0,0.0,0.0,0.0,0.0,0.0,0.0,0.0,0.0,0.0,0.0,0.0,0.0,0.0,0.0,0.0,0.0,0.0,0.0,0.0,0.0,0.0,0.0,0.0,0.0,0.0,0.0,0.0,0.0,0.0,0.0,0.0,0.0,0.0,0.0,0.0,0.0,0.0,0.0,0.0,0.0,0.0,0.0,0.0,0.0,0.0,0.0,0.0,0.0,0.0,0.0,0.0,0.0,0.0,0.0,0.0,0.0,0.0,0.0,0.0,0.0,0.0,0.0,0.0,0.0,0.0,0.0,0.0,0.0,0.0,0.0,0.0,0.0,0.0,0.0,0.0,0.0,0.0,0.0,0.0,0.0,0.0,0.0,0.0,0.0,0.0,0.0,0.0,0.0,0.0,0.0,0.0,0.0,0.0,0.0,0.0,0.0,0.0,0.0,0.0,0.0,0.0,0.0,0.0,0.0,0.0,0.0,0.0,0.0,0.0,0.0,0.0,0.0,0.0,0.0,0.0,0.0,0.0,0.0,0.0,0.0,0.0,0.0,0.0,0.0,0.0,0.0,0.0,0.0,0.0,0.0,0.0,0.0,0.0,0.0,0.0,0.0,0.0,0.0,0.0,0.0,0.0,0.0,0.0,0.0,0.0,0.0,0.0,0.0,0.0,0.0,0.0,0.0,0.0,0.0,0.0,0.0,0.0,0.0,0.0,0.0,0.0,0.0,0.0,0.0,0.0,0.0,0.0,0.0,0.0,0.0,0.0,0.0,0.0,0.0,0.0,0.0,0.0,0.0,0.0,0.0,0.0,0.0,0.0,0.0,0.0,0.0,0.0,0.0,0.0,0.0,0.0,0.0,0.0,0.0,0.0,0.0,0.0,0.0,0.0,0.0,0.0,0.0,0.0,0.0,0.0,0.0,0.0,0.0,0.0,0.0,0.0,0.0,0.0,0.0,0.0,0.0,0.0,0.0,0.0,0.0,0.0,0.0,0.0,0.0,0.0,0.0,0.0,0.0,0.0,0.0,0.0,0.0,0.0,0.0,0.0,0.0,0.0,0.0,0.0,0.0,0.0,0.0,0.0,0.0,0.0,0.0,0.0,0.0,0.0,0.0,0.0,0.0,0.0,0.0,0.0,0.0,0.0,0.0,0.0,0.0,0.0,0.0,0.0,0.0,0.0,0.0,0.0,0.0,0.0,0.0,0.0,0.0,0.0,0.0,0.0,0.0,0.0,0.0,0.0,0.0,0.0,0.0,0.0,0.0,0.0,0.0,0.0,0.0,0.0,0.0,0.0,0.0,0.0,0.0,0.0,0.0,0.0,0.0,0.0,0.0,0.0,0.0,0.0,0.0,0.0,0.0,0.0,0.0,0.0,0.0,0.0,0.0,0.0,0.0,0.0,0.0,0.0,0.0,0.0,0.0,0.0,0.0,0.0,0.0,0.0,0.0,0.0,0.0,0.0,0.0,0.0,0.0,0.0,0.0,0.0,0.0,0.0,0.0,0.0,0.0,0.0,0.0,0.0,0.0,0.0,0.0,0.0,0.0,0.0,0.0,0.0,0.0,0.0,0.0,0.0,0.0,0.0,0.0,0.0,0.0,0.0,0.0,0.0,0.0,0.0,0.0,0.0,0.0,0.0,0.0,0.0,0.0,0.0,0.0,0.0,0.0,0.0,0.0,0.0,0.0,0.0,0.0,0.0,0.0,0.0,0.0,0.0,0.0,0.0,0.0,0.0,0.0,0.0,0.0,0.0,0.0,0.0,0.0,1.9153,0.0,0.0,0.0,0.0,0.0,0.0,0.0,0.0,0.0,0.0,0.0,0.0,0.0,0.0,0.0,0.0,0.0,0.0,0.0,0.0,0.0,0.0,0.0,0.0,0.0,0.0,0.0,0.0,0.0,0.0,0.0,0.0,0.0,0.0,0.0,0.0,0.0,0.0,0.0,0.0,0.0,0.0,0.0,0.0,0.0,0.0,0.0,0.0,0.0,0.0,0.0,0.0,0.0,0.0,0.0,0.0,0.0,0.0,0.0,0.0,0.0,0.0,0.0,0.0,0.0,0.0,0.0,0.0,0.0,0.0,0.0,0.0,0.0,0.0,0.0,0.0,0.0,0.0,0.0,0.0,0.0,0.0,0.0,0.0,0.0,0.0,0.0,0.0,0.0,0.0,0.0,0.0,0.0,0.0,0.0,0.0,0.0,0.0,0.0,0.0,0.0,0.0,0.0,0.0,0.0,0.0,0.0,0.0,0.0,0.0,2.0177,1.9391,2.0495,2.0596,1.9508,0.0,0.0,0.0,0.0,0.0,0.0,0.0,0.0,0.0,0.0,0.0,0.0,0.0,0.0,0.0,0.0,0.0,0.0,0.0,0.0,0.0,0.0,0.0,0.0,0.0,0.0,0.0,0.0,0.0,0.0,0.0,0.0,0.0,0.0,0.0,0.0,0.0,0.0,0.0,0.0,0.0,0.0,0.0,0.0,0.0,0.0,0.0,0.0,0.0,0.0,0.0,0.0,0.0,0.0,0.0,0.0,0.0,0.0,0.0,0.0,0.0,0.0,0.0,0.0,0.0,0.0,0.0,0.0,0.0,0.0,0.0,0.0,0.0,0.0,0.0,0.0,0.0,0.0,0.0,0.0,0.0,0.0,0.0,0.0,0.0,0.0,0.0,0.0,0.0,0.0,0.0,0.0,0.0,0.0,0.0,0.0,0.0,0.0,0.0,0.0,0.0,0.0,0.0,0.0,0.0,0.0,0.0,0.0,0.0,0.0,0.0,0.0,2.0921,2.1023,2.0157,0.0,0.0,0.0,0.0,0.0,0.0,0.0,0.0,0.0,0.0,0.0,0.0,0.0,0.0,0.0,0.0,0.0,0.0,0.0,0.0,0.0,0.0,0.0,0.0,0.0,0.0,0.0,0.0,0.0,0.0,0.0,0.0,0.0,0.0,0.0,0.0,0.0,0.0,0.0,0.0,0.0,0.0,0.0,0.0,0.0,0.0,0.0,0.0,0.0,0.0,0.0,0.0,0.0,0.0,0.0,0.0,0.0,0.0,0.0,0.0,0.0,0.0,0.0,0.0,0.0,0.0,0.0,0.0,0.0,0.0,0.0,0.0,0.0,0.0,0.0,0.0,0.0,0.0,0.0,0.0,0.0,0.0,0.0,0.0,0.0,0.0,0.0,0.0,0.0,0.0,0.0,0.0,0.0,0.0,0.0,0.0,0.0,0.0,0.0,0.0,0.0,0.0,0.0,0.0,0.0,0.0,0.0,0.0,0.0,0.0,1.9728,2.0911,2.0958,0.0,2.0955,0.0,0.0,0.0,0.0,0.0,0.0,0.0,0.0,0.0,0.0,0.0,0.0,0.0,0.0,0.0,0.0,0.0,0.0,0.0,0.0,0.0,0.0,0.0,0.0,0.0,0.0,0.0,0.0,0.0,0.0,0.0,0.0,0.0,0.0,0.0,0.0,0.0,0.0,0.0,0.0,0.0,0.0,0.0,0.0,0.0,0.0,0.0,0.0,0.0,0.0,0.0,0.0,0.0,0.0,0.0,0.0,0.0,0.0,0.0,0.0,0.0,0.0,0.0,0.0,0.0,0.0,0.0,0.0,0.0,0.0,0.0,0.0,0.0,0.0,0.0,0.0,0.0,0.0,0.0,0.0,0.0,0.0,0.0,0.0,0.0,0.0,0.0,0.0,0.0,0.0,0.0,0.0,0.0,0.0,0.0,0.0,0.0,0.0,0.0,0.0,0.0,0.0,0.0,0.0,0.0,0.0,0.0,0.0,0.0,0.0,1.9682,2.0563,2.0631,2.0526,0.0,0.0,0.0,0.0,0.0,0.0,0.0,0.0,0.0,0.0,0.0,0.0,0.0,0.0,0.0,0.0,0.0,0.0,0.0,0.0,0.0,0.0,0.0,0.0,0.0,0.0,0.0,0.0,0.0,0.0,0.0,0.0,0.0,0.0,0.0,0.0,0.0,0.0,0.0,0.0,0.0,0.0,0.0,0.0,0.0,0.0,0.0,0.0,0.0,0.0,0.0,0.0,0.0,0.0,0.0,0.0,0.0,0.0,0.0,0.0,0.0,0.0,0.0,0.0,0.0,0.0,0.0,0.0,0.0,0.0,0.0,0.0,0.0,0.0,0.0,0.0,0.0,0.0,0.0,0.0,0.0,0.0,0.0,0.0,0.0,0.0,0.0,0.0,0.0,0.0,0.0,0.0,0.0,0.0,0.0,0.0,0.0,0.0,0.0,0.0,0.0,0.0,0.0,0.0,0.0,0.0,0.0,0.0,0.0,0.0,2.0384,2.0443,2.1113,2.088,2.0679,2.0526,0.0,0.0,0.0,0.0,0.0,0.0,0.0,0.0,0.0,0.0,0.0,0.0,0.0,0.0,0.0,0.0,0.0,0.0,0.0,0.0,0.0,0.0,0.0,0.0,0.0,0.0,0.0,0.0,0.0,0.0,0.0,0.0,0.0,0.0,0.0,0.0,0.0,0.0,0.0,0.0,0.0,0.0,0.0,0.0,0.0,0.0,0.0,0.0,0.0,0.0,0.0,0.0,0.0,0.0,0.0,0.0,0.0,0.0,0.0,0.0,0.0,0.0,0.0,0.0,0.0,0.0,0.0,0.0,0.0,0.0,0.0,0.0,0.0,0.0,0.0,0.0,0.0,0.0,0.0,0.0,0.0,0.0,0.0,0.0,0.0,0.0,0.0,0.0,0.0,0.0,0.0,0.0,0.0,0.0,0.0,0.0,0.0,0.0,0.0,0.0,0.0,0.0,0.0,0.0,0.0,0.0,0.0,0.0,2.2743,2.2128,2.2377,2.3472,2.2165,2.1826,0.0,0.0,0.0,0.0,0.0,0.0,0.0,0.0,0.0,0.0,0.0,0.0,0.0,0.0,0.0,0.0,0.0,0.0,0.0,0.0,0.0,0.0,0.0,0.0,0.0,0.0,0.0,0.0,0.0,0.0,0.0,0.0,0.0,0.0,0.0,0.0,0.0,0.0,0.0,0.0,0.0,0.0,0.0,0.0,0.0,0.0,0.0,0.0,0.0,0.0,0.0,0.0,0.0,0.0,0.0,0.0,0.0,0.0,0.0,0.0,0.0,0.0,0.0,0.0,0.0,0.0,0.0,0.0,0.0,0.0,0.0,0.0,0.0,0.0,0.0,0.0,0.0,0.0,0.0,0.0,0.0,0.0,0.0,0.0,0.0,0.0,0.0,0.0,0.0,0.0,0.0,0.0,0.0,0.0,0.0,0.0,0.0,0.0,0.0,0.0,0.0,0.0,0.0,0.0,0.0,0.0,0.0,0.0,0.0,2.2355,2.2227,2.2199,2.2366,2.2076,2.2117,0.0,0.0,0.0,0.0,0.0,0.0,0.0,0.0,0.0,0.0,0.0,0.0,0.0,0.0,0.0,0.0,0.0,0.0,0.0,0.0,0.0,0.0,0.0,0.0,0.0,0.0,0.0,0.0,0.0,0.0,0.0,0.0,0.0,0.0,0.0,0.0,0.0,0.0,0.0,0.0,0.0,0.0,0.0,0.0,0.0,0.0,0.0,0.0,0.0,0.0,0.0,0.0,0.0,0.0,0.0,0.0,0.0,0.0,0.0,0.0,0.0,0.0,0.0,0.0,0.0,0.0,0.0,0.0,0.0,0.0,0.0,0.0,0.0,0.0,0.0,0.0,0.0,0.0,0.0,0.0,0.0,0.0,0.0,0.0,0.0,0.0,0.0,0.0,0.0,0.0,0.0,0.0,0.0,0.0,0.0,0.0,0.0,0.0,0.0,0.0,0.0,0.0,0.0,0.0,0.0,0.0,0.0,0.0,0.0,2.298,0.0,2.3149,2.2705,2.2638,2.2556,0.0,0.0,0.0,0.0,0.0,0.0,0.0,0.0,0.0,0.0,0.0,0.0,0.0,0.0,0.0,0.0,0.0,0.0,0.0,0.0,0.0,0.0,0.0,0.0,0.0,0.0,0.0,0.0,0.0,0.0,0.0,0.0,0.0,0.0,0.0,0.0,0.0,0.0,0.0,0.0,0.0,0.0,0.0,0.0,0.0,0.0,0.0,0.0,0.0,0.0,0.0,0.0,0.0,0.0,0.0,0.0,0.0,0.0,0.0,0.0,0.0,0.0,0.0,0.0,0.0,0.0,0.0,0.0,0.0,0.0,0.0,0.0,0.0,0.0,0.0,0.0,0.0,0.0,0.0,0.0,0.0,0.0,0.0,0.0,0.0,0.0,0.0,0.0,0.0,0.0,0.0,0.0,0.0,0.0,0.0,0.0,0.0,0.0,0.0,0.0,0.0,0.0,0.0,0.0,0.0,0.0,0.0,0.0,2.2384,2.4703,2.5375,2.5311,2.4868,2.3937,2.3226,0.0,0.0,0.0,0.0,0.0,0.0,0.0,0.0,0.0,0.0,0.0,0.0,0.0,0.0,0.0,0.0,0.0,0.0,0.0,0.0,0.0,0.0,0.0,0.0,0.0,0.0,0.0,0.0,0.0,0.0,0.0,0.0,0.0,0.0,0.0,0.0,0.0,0.0,0.0,0.0,0.0,0.0,0.0,0.0,0.0,0.0,0.0,0.0,0.0,0.0,0.0,0.0,0.0,0.0,0.0,0.0,0.0,0.0,0.0,0.0,0.0,0.0,0.0,0.0,0.0,0.0,0.0,0.0,0.0,0.0,0.0,0.0,0.0,0.0,0.0,0.0,0.0,0.0,0.0,0.0,0.0,0.0,0.0,0.0,0.0,0.0,0.0,0.0,0.0,0.0,0.0,0.0,0.0,0.0,0.0,0.0,0.0,0.0,0.0,0.0,0.0,0.0,0.0,0.0,0.0,0.0,0.0,0.0,0.0,2.2491,2.4218,2.4865,2.4351,2.3985,2.3889,0.0,0.0,0.0,0.0,0.0,0.0,0.0,0.0,0.0,0.0,0.0,0.0,0.0,0.0,0.0,0.0,0.0,0.0,0.0,0.0,0.0,0.0,0.0,0.0,0.0,0.0,0.0,0.0,0.0,0.0,0.0,0.0,0.0,0.0,0.0,0.0,0.0,0.0,0.0,0.0,0.0,0.0,0.0,0.0,0.0,0.0,0.0,0.0,0.0,0.0,0.0,0.0,0.0,0.0,0.0,0.0,0.0,0.0,0.0,0.0,0.0,0.0,0.0,0.0,0.0,0.0,0.0,0.0,0.0,0.0,0.0,0.0,0.0,0.0,0.0,0.0,0.0,0.0,0.0,0.0,0.0,0.0,0.0,0.0,0.0,0.0,0.0,0.0,0.0,0.0,0.0,0.0,0.0,0.0,0.0,0.0,0.0,0.0,0.0,0.0,0.0,0.0,0.0,0.0,0.0,0.0,0.0,0.0,0.0,2.2707,2.4444,2.5293,2.4998,2.4601,2.435,2.4288,0.0,0.0,0.0,0.0,0.0,0.0,0.0,0.0,0.0,0.0,0.0,0.0,0.0,0.0,0.0,0.0,0.0,0.0,0.0,0.0,0.0,0.0,0.0,0.0,0.0,0.0,0.0,0.0,0.0,0.0,0.0,0.0,0.0,0.0,0.0,0.0,0.0,0.0,0.0,0.0,0.0,0.0,0.0,0.0,0.0,0.0,0.0,0.0,0.0,0.0,0.0,0.0,0.0,0.0,0.0,0.0,0.0,0.0,0.0,0.0,0.0,0.0,0.0,0.0,0.0,0.0,0.0,0.0,0.0,0.0,0.0,0.0,0.0,0.0,0.0,0.0,0.0,0.0,0.0,0.0,0.0,0.0,0.0,0.0,0.0,0.0,0.0,0.0,0.0,0.0,0.0,0.0,0.0,0.0,0.0,0.0,0.0,0.0,0.0,0.0,0.0,0.0,0.0,0.0,0.0,0.0,0.0,0.0,2.469,2.5928,2.656,2.6502,2.5673,2.4714,0.0,0.0,0.0,0.0,0.0,0.0,0.0,0.0,0.0,0.0,0.0,0.0,0.0,0.0,0.0,0.0,0.0,0.0,0.0,0.0,0.0,0.0,0.0,0.0,0.0,0.0,0.0,0.0,0.0,0.0,0.0,0.0,0.0,0.0,0.0,0.0,0.0,0.0,0.0,0.0,0.0,0.0,0.0,0.0,0.0,0.0,0.0,0.0,0.0,0.0,0.0,0.0,0.0,0.0,0.0,0.0,0.0,0.0,0.0,0.0,0.0,0.0,0.0,0.0,0.0,0.0,0.0,0.0,0.0,0.0,0.0,0.0,0.0,0.0,0.0,0.0,0.0,0.0,0.0,0.0,0.0,0.0,0.0,0.0,0.0,0.0,0.0,0.0,0.0,0.0,0.0,0.0,0.0,0.0,0.0,0.0,0.0,0.0,0.0,0.0,0.0,0.0,0.0,0.0,0.0,0.0,0.0,0.0,0.0,2.5866,2.6958,2.7357,2.6998,2.6021,2.5357,0.0,0.0,0.0,0.0,0.0,0.0,0.0,0.0,0.0,0.0,0.0,0.0,0.0,0.0,0.0,0.0,0.0,0.0,0.0,0.0,0.0,0.0,0.0,0.0,0.0,0.0,0.0,0.0,0.0,0.0,0.0,0.0,0.0,0.0,0.0,0.0,0.0,0.0,0.0,0.0,0.0,0.0,0.0,0.0,0.0,0.0,0.0,0.0,0.0,0.0,0.0,0.0,0.0,0.0,0.0,0.0,0.0,0.0,0.0,0.0,0.0,0.0,0.0,0.0,0.0,0.0,0.0,0.0,0.0,0.0,0.0,0.0,0.0,0.0,0.0,0.0,0.0,0.0,0.0,0.0,0.0,0.0,0.0,0.0,0.0,0.0,0.0,0.0,0.0,0.0,0.0,0.0,0.0,0.0,0.0,0.0,0.0,0.0,0.0,0.0,0.0,0.0,0.0,0.0,0.0,0.0,0.0,0.0,2.5752,2.6671,2.7952,2.8598,2.8589,2.7355,2.6474,0.0,0.0,0.0,0.0,0.0,0.0,0.0,0.0,0.0,0.0,0.0,0.0,0.0,0.0,0.0,0.0,0.0,0.0,0.0,0.0,0.0,0.0,0.0,0.0,0.0,0.0,0.0,0.0,0.0,0.0,0.0,0.0,0.0,0.0,0.0,0.0,0.0,0.0,0.0,0.0,0.0,0.0,0.0,0.0,0.0,0.0,0.0,0.0,0.0,0.0,0.0,0.0,0.0,0.0,0.0,0.0,0.0,0.0,0.0,0.0,0.0,0.0,0.0,0.0,0.0,0.0,0.0,0.0,0.0,0.0,0.0,0.0,0.0,0.0,0.0,0.0,0.0,0.0,0.0,0.0,0.0,0.0,0.0,0.0,0.0,0.0,0.0,0.0,0.0,0.0,0.0,0.0,0.0,0.0,0.0,0.0,0.0,0.0,0.0,0.0,0.0,0.0,0.0,0.0,0.0,0.0,0.0,0.0,2.6614,2.7285,2.8796,2.9869,3.0347,2.8919,2.7654,0.0,0.0,0.0,0.0,0.0,0.0,0.0,0.0,0.0,0.0,0.0,0.0,0.0,0.0,0.0,0.0,0.0,0.0,0.0,0.0,0.0,0.0,0.0,0.0,0.0,0.0,0.0,0.0,0.0,0.0,0.0,0.0,0.0,0.0,0.0,0.0,0.0,0.0,0.0,0.0,0.0,0.0,0.0,0.0,0.0,0.0,0.0,0.0,0.0,0.0,0.0,0.0,0.0,0.0,0.0,0.0,0.0,0.0,0.0,0.0,0.0,0.0,0.0,0.0,0.0,0.0,0.0,0.0,0.0,0.0,0.0,0.0,0.0,0.0,0.0,0.0,0.0,0.0,0.0,0.0,0.0,0.0,0.0,0.0,0.0,0.0,0.0,0.0,0.0,0.0,0.0,0.0,0.0,0.0,0.0,0.0,0.0,0.0,0.0,0.0,0.0,0.0,0.0,0.0,0.0,0.0,0.0,0.0,2.6773,2.7754,2.8947,2.9673,2.9785,2.8265,2.7527,0.0,0.0,0.0,0.0,0.0,0.0,0.0,0.0,0.0,0.0,0.0,0.0,0.0,0.0,0.0,0.0,0.0,0.0,0.0,0.0,0.0,0.0,0.0,0.0,0.0,0.0,0.0,0.0,0.0,0.0,0.0,0.0,0.0,0.0,0.0,0.0,0.0,0.0,0.0,0.0,0.0,0.0,0.0,0.0,0.0,0.0,0.0,0.0,2.5222,0.0,0.0,0.0,0.0,0.0,0.0,0.0,0.0,0.0,0.0,0.0,0.0,0.0,0.0,0.0,0.0,0.0,0.0,0.0,0.0,0.0,0.0,0.0,0.0,0.0,0.0,0.0,0.0,0.0,0.0,0.0,0.0,0.0,0.0,0.0,0.0,0.0,0.0,0.0,0.0,0.0,0.0,0.0,0.0,0.0,0.0,0.0,0.0,0.0,0.0,0.0,0.0,0.0,0.0,0.0,0.0,0.0,0.0,0.0,2.7438,2.8582,2.943,2.9976,3.0202,2.9209,2.8497,0.0,0.0,0.0,0.0,0.0,0.0,0.0,0.0,0.0,0.0,0.0,0.0,0.0,0.0,0.0,0.0,0.0,0.0,0.0,0.0,0.0,0.0,0.0,0.0,0.0,0.0,0.0,0.0,0.0,0.0,0.0,0.0,0.0,0.0,0.0,0.0,0.0,0.0,0.0,0.0,0.0,0.0,0.0,0.0,0.0,0.0,0.0,0.0,0.0,0.0,0.0,0.0,0.0,0.0,0.0,0.0,0.0,0.0,0.0,0.0,0.0,0.0,0.0,0.0,0.0,0.0,0.0,0.0,0.0,0.0,0.0,0.0,0.0,0.0,0.0,0.0,0.0,0.0,0.0,0.0,0.0,0.0,0.0,0.0,0.0,0.0,0.0,0.0,0.0,0.0,0.0,0.0,0.0,0.0,0.0,0.0,0.0,0.0,0.0,0.0,0.0,0.0,0.0,0.0,0.0,0.0,0.0,2.6953,2.8065,2.9447,2.9856,3.0335,3.0948,3.0504,2.966,2.8411,0.0,0.0,0.0,0.0,0.0,0.0,0.0,0.0,0.0,0.0,0.0,0.0,0.0,0.0,0.0,0.0,0.0,0.0,0.0,0.0,0.0,0.0,0.0,0.0,0.0,0.0,0.0,0.0,0.0,0.0,0.0,0.0,0.0,0.0,0.0,0.0,0.0,0.0,2.4597,2.5673,0.0,0.0,0.0,0.0,0.0,0.0,0.0,0.0,2.6527,0.0,0.0,0.0,0.0,0.0,0.0,0.0,0.0,0.0,0.0,0.0,0.0,0.0,0.0,0.0,0.0,0.0,0.0,0.0,0.0,0.0,0.0,0.0,0.0,0.0,0.0,0.0,0.0,0.0,0.0,0.0,0.0,0.0,0.0,0.0,0.0,0.0,0.0,0.0,0.0,0.0,0.0,0.0,0.0,0.0,0.0,0.0,0.0,0.0,0.0,0.0,0.0,0.0,0.0,0.0,0.0,2.7907,2.7117,2.7766,2.9913,2.9903,3.0165,3.0793,3.0363,2.9754,2.9026,0.0,0.0,0.0,0.0,0.0,0.0,0.0,0.0,0.0,0.0,0.0,0.0,0.0,0.0,0.0,0.0,0.0,0.0,0.0,0.0,0.0,0.0,0.0,0.0,0.0,0.0,0.0,0.0,0.0,0.0,0.0,0.0,0.0,0.0,0.0,0.0,0.0,0.0,0.0,2.803,2.8601,0.0,0.0,0.0,0.0,0.0,0.0,0.0,0.0,2.7247,0.0,0.0,0.0,0.0,0.0,0.0,0.0,0.0,0.0,0.0,0.0,0.0,0.0,0.0,0.0,0.0,0.0,0.0,0.0,0.0,0.0,0.0,0.0,0.0,0.0,0.0,0.0,0.0,0.0,0.0,0.0,0.0,0.0,0.0,0.0,0.0,0.0,0.0,0.0,0.0,0.0,0.0,0.0,0.0,0.0,0.0,0.0,0.0,0.0,0.0,0.0,0.0,0.0,0.0,0.0,2.7918,2.8077,2.8843,3.0283,3.0174,3.0383,3.1011,3.0487,2.9888,0.0,0.0,0.0,0.0,0.0,0.0,0.0,0.0,0.0,0.0,0.0,0.0,0.0,0.0,0.0,0.0,0.0,0.0,0.0,0.0,0.0,0.0,0.0,0.0,0.0,0.0,0.0,0.0,0.0,0.0,0.0,0.0,0.0,0.0,0.0,0.0,0.0,0.0,0.0,0.0,2.9032,2.9434,2.9876,0.0,0.0,0.0,0.0,0.0,0.0,2.8477,2.824,0.0,0.0,0.0,0.0,0.0,0.0,0.0,0.0,0.0,0.0,0.0,0.0,0.0,0.0,0.0,0.0,0.0,0.0,0.0,0.0,0.0,0.0,0.0,0.0,0.0,0.0,0.0,0.0,0.0,0.0,0.0,0.0,0.0,0.0,0.0,0.0,0.0,0.0,0.0,0.0,0.0,0.0,0.0,0.0,0.0,0.0,0.0,0.0,0.0,0.0,0.0,0.0,0.0,0.0,0.0,2.7804,2.8982,2.9973,3.0718,3.0598,3.0812,3.1449,3.0755,3.0073,0.0,0.0,0.0,0.0,0.0,0.0,0.0,0.0,0.0,0.0,0.0,0.0,0.0,0.0,0.0,0.0,0.0,0.0,0.0,0.0,0.0,0.0,0.0,0.0,0.0,0.0,0.0,0.0,0.0,0.0,0.0,0.0,0.0,0.0,0.0,0.0,0.0,0.0,0.0,0.0,0.0,3.0928,3.1532,3.1148,0.0,0.0,0.0,0.0,2.9978,3.0178,0.0,0.0,0.0,0.0,0.0,0.0,0.0,0.0,0.0,0.0,0.0,0.0,0.0,0.0,0.0,0.0,0.0,0.0,0.0,0.0,0.0,0.0,0.0,0.0,0.0,0.0,0.0,0.0,0.0,0.0,0.0,0.0,0.0,0.0,0.0,0.0,0.0,0.0,0.0,0.0,0.0,0.0,0.0,0.0,0.0,0.0,0.0,0.0,0.0,0.0,0.0,0.0,0.0,0.0,0.0,0.0,2.8125,2.9077,3.0182,3.1333,3.1263,3.1471,3.2077,3.104,3.0243,0.0,0.0,0.0,0.0,0.0,0.0,0.0,0.0,0.0,0.0,0.0,0.0,0.0,0.0,0.0,0.0,0.0,0.0,0.0,0.0,0.0,0.0,0.0,0.0,0.0,0.0,0.0,0.0,0.0,0.0,0.0,0.0,0.0,0.0,0.0,0.0,0.0,0.0,0.0,0.0,0.0,3.4891,3.3258,3.4724,3.5087,0.0,0.0,3.3188,3.2076,3.432,0.0,0.0,0.0,0.0,0.0,0.0,0.0,0.0,0.0,0.0,0.0,0.0,0.0,0.0,0.0,0.0,0.0,0.0,0.0,0.0,0.0,0.0,0.0,0.0,0.0,0.0,0.0,0.0,0.0,0.0,0.0,0.0,0.0,0.0,0.0,0.0,0.0,0.0,0.0,0.0,0.0,0.0,0.0,0.0,0.0,0.0,0.0,0.0,0.0,0.0,0.0,0.0,0.0,0.0,0.0,2.8606,2.9192,3.0322,3.1149,3.1707,3.1595,3.1823,3.2392,3.0878,3.0103,0.0,0.0,0.0,0.0,0.0,0.0,0.0,0.0,0.0,0.0,0.0,0.0,0.0,0.0,0.0,0.0,0.0,0.0,0.0,0.0,0.0,0.0,0.0,0.0,0.0,0.0,0.0,0.0,0.0,0.0,0.0,0.0,0.0,0.0,0.0,0.0,0.0,0.0,0.0,0.0,0.0,0.0,3.4871,3.5731,0.0,0.0,0.0,3.4956,3.5502,0.0,0.0,0.0,0.0,0.0,0.0,0.0,0.0,0.0,0.0,0.0,0.0,0.0,0.0,0.0,0.0,0.0,0.0,0.0,0.0,0.0,0.0,0.0,0.0,0.0,0.0,0.0,0.0,0.0,0.0,0.0,0.0,0.0,0.0,0.0,0.0,0.0,0.0,0.0,0.0,0.0,0.0,0.0,0.0,0.0,0.0,0.0,0.0,0.0,0.0,0.0,0.0,0.0,0.0,0.0,0.0,0.0,3.0022,3.1418,3.2224,3.2405,3.232,3.254,3.3134,3.1625,0.0,0.0,0.0,0.0,0.0,0.0,0.0,0.0,0.0,0.0,0.0,0.0,0.0,0.0,0.0,0.0,0.0,0.0,0.0,0.0,0.0,0.0,0.0,0.0,0.0,0.0,0.0,2.6029,0.0,0.0,0.0,0.0,0.0,0.0,0.0,0.0,0.0,0.0,0.0,0.0,0.0,0.0,3.6814,3.6678,3.7481,3.8273,0.0,0.0,3.7166,3.8248,3.9074,3.8379,0.0,0.0,0.0,0.0,0.0,0.0,0.0,0.0,0.0,0.0,0.0,0.0,0.0,0.0,0.0,0.0,0.0,0.0,0.0,0.0,0.0,0.0,0.0,0.0,0.0,0.0,0.0,0.0,0.0,0.0,0.0,0.0,0.0,0.0,0.0,0.0,0.0,0.0,0.0,0.0,0.0,0.0,0.0,0.0,0.0,0.0,0.0,0.0,0.0,0.0,0.0,0.0,0.0,0.0,0.0,3.0428,3.1978,3.3139,3.373,3.3761,3.4073,3.4698,3.4151,3.3026,0.0,0.0,0.0,0.0,0.0,0.0,0.0,0.0,0.0,0.0,0.0,0.0,0.0,0.0,0.0,0.0,0.0,0.0,0.0,0.0,0.0,0.0,0.0,0.0,0.0,0.0,0.0,0.0,0.0,0.0,0.0,0.0,0.0,0.0,0.0,0.0,0.0,0.0,0.0,0.0,0.0,3.9742,3.8815,4.1441,4.3024,0.0,0.0,4.0891,3.9314,4.1999,4.2395,3.6685,0.0,0.0,0.0,0.0,0.0,0.0,0.0,0.0,0.0,0.0,0.0,0.0,0.0,0.0,0.0,0.0,0.0,0.0,0.0,0.0,0.0,0.0,0.0,0.0,0.0,0.0,0.0,0.0,0.0,0.0,0.0,0.0,0.0,0.0,0.0,0.0,0.0,0.0,0.0,0.0,0.0,0.0,0.0,0.0,0.0,0.0,0.0,0.0,0.0,0.0,0.0,0.0,0.0,3.1111,3.1591,3.3002,3.4093,3.4785,3.4844,3.4927,3.5194,3.4557,3.3522,0.0,0.0,0.0,0.0,0.0,0.0,0.0,0.0,0.0,0.0,0.0,0.0,0.0,0.0,0.0,0.0,0.0,0.0,0.0,0.0,0.0,0.0,0.0,0.0,0.0,0.0,0.0,0.0,2.806,2.8407,2.9294,0.0,0.0,0.0,0.0,0.0,0.0,0.0,0.0,0.0,0.0,3.9449,4.0049,4.1261,0.0,0.0,4.2427,4.1983,4.1941,4.2416,4.1479,3.7546,3.5851,0.0,0.0,0.0,0.0,0.0,0.0,0.0,0.0,0.0,0.0,0.0,0.0,0.0,0.0,0.0,0.0,0.0,0.0,0.0,0.0,0.0,0.0,0.0,0.0,0.0,0.0,0.0,0.0,0.0,0.0,0.0,0.0,0.0,0.0,0.0,0.0,0.0,0.0,0.0,0.0,0.0,0.0,0.0,0.0,0.0,0.0,0.0,0.0,0.0,0.0,0.0,0.0,3.176,3.2291,3.3841,3.4968,3.5695,3.5695,3.5805,3.5979,3.511,3.411,0.0,0.0,0.0,0.0,0.0,0.0,0.0,0.0,0.0,0.0,0.0,0.0,0.0,0.0,0.0,0.0,0.0,0.0,0.0,0.0,0.0,0.0,0.0,0.0,0.0,0.0,0.0,0.0,2.9221,2.9767,3.0553,0.0,0.0,0.0,0.0,0.0,0.0,0.0,0.0,0.0,0.0,3.9535,4.0638,4.1169,4.193,4.321,4.2378,4.193,4.2913,4.2394,4.0926,3.797,0.0,0.0,0.0,0.0,0.0,0.0,0.0,0.0,0.0,0.0,0.0,0.0,0.0,0.0,0.0,0.0,0.0,0.0,0.0,0.0,0.0,0.0,0.0,0.0,0.0,0.0,0.0,2.9146,0.0,0.0,2.9153,0.0,0.0,0.0,0.0,0.0,0.0,0.0,0.0,0.0,0.0,0.0,0.0,0.0,0.0,0.0,0.0,0.0,0.0,0.0,0.0,0.0,0.0,3.2276,3.2323,3.4347,3.571,3.6361,3.6377,3.6706,3.7336,3.609,3.5027,3.4236,0.0,0.0,0.0,0.0,0.0,0.0,0.0,0.0,0.0,0.0,0.0,0.0,0.0,0.0,0.0,0.0,0.0,0.0,0.0,0.0,0.0,0.0,0.0,0.0,0.0,0.0,3.0456,3.1078,3.1508,0.0,0.0,0.0,0.0,0.0,0.0,0.0,0.0,0.0,0.0,3.8649,4.0546,4.064,4.1778,4.2616,4.276,4.1588,4.0925,4.1588,4.2189,4.1494,0.0,0.0,0.0,0.0,0.0,0.0,0.0,0.0,0.0,0.0,0.0,0.0,0.0,0.0,0.0,0.0,0.0,0.0,0.0,0.0,0.0,0.0,0.0,0.0,0.0,0.0,0.0,3.303,3.3062,0.0,0.0,0.0,0.0,0.0,0.0,0.0,0.0,0.0,0.0,0.0,3.878,3.884,0.0,0.0,0.0,0.0,0.0,0.0,0.0,0.0,0.0,0.0,0.0,0.0,3.2513,3.305,3.5313,3.6704,3.713,3.7377,3.7409,3.7173,3.6454,3.5439,3.4052,0.0,0.0,0.0,0.0,0.0,0.0,0.0,0.0,0.0,0.0,0.0,0.0,0.0,0.0,0.0,0.0,0.0,0.0,0.0,0.0,0.0,0.0,0.0,0.0,0.0,3.1157,0.0,0.0,0.0,0.0,0.0,0.0,0.0,0.0,0.0,0.0,0.0,3.6102,3.7912,3.8691,3.9882,4.2136,4.1773,4.1943,0.0,0.0,0.0,0.0,0.0,0.0,0.0,0.0,0.0,0.0,0.0,0.0,0.0,0.0,4.215,3.8645,3.666,3.5645,3.6072,0.0,0.0,0.0,0.0,0.0,0.0,0.0,0.0,0.0,0.0,0.0,0.0,0.0,0.0,3.5661,0.0,3.6226,0.0,0.0,0.0,0.0,0.0,0.0,0.0,0.0,4.0424,4.094,4.0985,4.107,4.0981,0.0,3.999,3.844,0.0,0.0,0.0,0.0,0.0,0.0,0.0,0.0,3.3802,3.4333,3.6599,3.7788,3.7648,3.7886,3.7772,3.7252,3.68,3.5954,3.4673,3.2818,3.1968,0.0,0.0,0.0,0.0,0.0,0.0,0.0,0.0,0.0,0.0,0.0,0.0,0.0,0.0,0.0,0.0,0.0,0.0,0.0,0.0,0.0,0.0,0.0,3.269,0.0,0.0,0.0,0.0,0.0,0.0,0.0,0.0,0.0,3.6004,3.666,3.7852,3.9621,3.932,3.9951,4.2696,0.0,0.0,0.0,0.0,0.0,0.0,0.0,4.0849,4.0641,4.0277,4.004,4.0198,4.1968,4.3248,4.2758,0.0,0.0,4.1256,3.929,3.8289,3.8721,3.8752,3.8845,3.9261,3.9369,3.9201,0.0,0.0,0.0,0.0,0.0,0.0,0.0,0.0,3.7193,3.7224,0.0,3.747,0.0,0.0,0.0,0.0,3.7674,3.9598,0.0,0.0,4.3585,4.419,4.3617,4.3022,4.2725,4.2672,4.2046,4.127,4.0293,3.771,0.0,0.0,0.0,0.0,0.0,0.0,3.6025,3.6083,3.8096,3.8778,3.7992,3.7959,3.79,3.7642,3.7084,3.6529,3.5991,3.4605,3.4157,3.4861,3.2851,0.0,0.0,0.0,0.0,0.0,0.0,0.0,0.0,0.0,0.0,0.0,0.0,0.0,0.0,0.0,0.0,0.0,0.0,0.0,0.0,3.4963,0.0,0.0,0.0,0.0,0.0,0.0,0.0,0.0,0.0,0.0,3.6261,3.7999,3.9862,4.094,0.0,0.0,0.0,0.0,4.1702,4.2588,4.2041,4.1618,4.1671,4.2747,4.2945,4.1071,0.0,0.0,4.2129,4.344,4.4357,4.3092,4.4531,4.5807,4.5697,4.4382,4.3494,4.3447,4.2453,4.1762,4.1699,4.1759,4.157,4.1027,0.0,0.0,0.0,0.0,3.8766,3.9666,4.0924,4.1528,4.1681,4.1516,4.1764,0.0,0.0,0.0,0.0,0.0,0.0,4.3093,4.3863,4.4389,4.4871,4.5309,4.5124,4.5068,4.5131,4.4424,4.3921,4.3488,4.169,3.8935,3.5443,0.0,0.0,0.0,0.0,3.6257,3.6846,3.8671,3.937,3.8838,3.9085,3.8585,3.7248,3.6779,3.6506,3.636,3.5431,3.531,3.6028,3.4516,0.0,0.0,0.0,0.0,0.0,0.0,0.0,0.0,0.0,0.0,0.0,0.0,0.0,0.0,0.0,0.0,0.0,0.0,0.0,3.4373,3.5066,3.5359,0.0,0.0,0.0,0.0,0.0,0.0,0.0,0.0,0.0,3.9598,4.0191,4.07,0.0,0.0,4.1422,4.2816,4.2964,4.3548,4.5182,4.4933,0.0,4.4492,4.4474,4.4167,4.3369,4.4691,4.5794,4.5746,4.5908,4.5955,4.5523,4.5651,4.5807,4.576,4.508,4.4306,4.3845,4.4148,4.4385,4.3959,4.4211,4.4354,4.3938,4.2614,4.0969,4.0472,4.0886,4.1481,4.2406,4.3603,4.4208,4.4338,4.4143,4.4422,4.3291,4.1202,4.1922,0.0,0.0,0.0,4.4582,4.5281,4.5299,4.5568,4.6055,4.58,4.5684,4.5723,4.4992,4.4442,4.4073,4.2812,4.0712,3.785,0.0,0.0,3.644,3.7502,3.8237,3.8717,3.9992,4.0239,3.9387,3.9539,3.8973,3.7621,3.7635,3.7708,3.7738,3.7058,3.703,3.7757,3.6428,3.5462,0.0,0.0,0.0,0.0,0.0,0.0,0.0,0.0,0.0,0.0,0.0,3.2466,3.2295,0.0,0.0,0.0,3.476,3.5381,3.6173,3.6399,0.0,0.0,0.0,0.0,0.0,0.0,0.0,3.9985,3.9912,4.0106,4.1115,4.1169,4.1375,4.212,4.2139,4.2663,4.4311,0.0,4.4947,4.6771,4.676,4.6464,4.6146,4.6042,4.5935,4.5753,4.6402,4.7029,4.749,4.7271,4.6999,4.6965,4.6687,4.6359,4.6086,4.548,4.4948,4.4626,4.5223,4.5539,4.4859,4.5302,4.546,4.6165,4.6,4.3028,4.2126,4.2777,4.3491,4.4188,4.4861,4.5533,4.5513,4.5061,4.5708,4.5236,4.3908,4.3896,0.0,4.5029,4.5161,4.5554,4.6204,4.6144,4.6109,4.6091,4.5361,4.501,4.4992,4.4255,4.3535,4.2921,4.2073,4.1323,4.059,4.0267,4.0083,4.0043,4.0591,4.0938,4.0978,4.1512,4.1123,3.9731,3.9579,3.9179,3.854,3.9152,3.9542,3.9681,3.8974,3.8957,3.9698,3.8392,3.7564,3.7443,0.0,0.0,0.0,0.0,0.0,0.0,0.0,0.0,0.0,0.0,0.0,0.0,0.0,0.0,0.0,3.739,0.0,3.8794,3.8339,0.0,0.0,0.0,3.779,4.0066,3.9119,3.9164,4.1341,0.0,0.0,4.1403,4.1343,4.1953,4.3957,4.3694,4.4031,4.5941,4.5673,4.5914,4.7196,4.7603,4.7442,4.6741,4.7065,4.7494,4.7723,4.7932,4.7898,4.7931,4.7819,4.7721,4.7704,4.7523,4.7126,4.652,4.5959,4.5628,4.5718,4.5627,4.5396,4.478,4.508,4.497,4.6772,4.6742,4.5973,4.5505,4.5316,4.5492,4.5684,4.586,4.6027,4.6017,4.5902,4.6077,4.5954,4.5604,4.5604,4.5813,4.6188,4.6013,4.6143,4.6459,4.5697,4.5378,4.5343,4.4553,4.4185,4.4185,4.3992,4.3799,4.3605,4.2886,4.2113,4.1358,4.0718,4.0014,3.9282,3.9324,3.9576,4.0043,4.017,4.0353,4.0588,4.0565,4.0186,3.9416,3.9549,3.9675,3.9698,3.8974,3.9215,4.0515,3.9169,3.8082,3.7512,3.589,0.0,0.0,0.0,0.0,0.0,0.0,0.0,0.0,0.0,3.4646,3.4231,0.0,3.5166,0.0,3.7117,3.8093,3.8254,3.8155,0.0,0.0,3.8365,3.8491,4.0249,4.0147,4.0358,4.1464,4.1424,4.155,4.2247,4.2288,4.2573,4.3408,4.2832,4.2524,4.3061,4.4492,4.5518,4.6,4.6983,4.7438,4.6835,4.6621,4.7096,4.8247,4.8333,4.829,4.829,4.8363,4.8433,4.8351,4.755,4.6878,4.6664,4.6518,4.6208,4.5734,4.4871,4.4129,4.399,4.4117,4.3927,4.6998,4.6998,4.6998,4.6836,4.656,4.656,4.656,4.656,4.6542,4.656,4.656,4.656,4.656,4.656,4.656,4.6655,4.6754,4.6277,4.61,4.6204,4.5303,4.488,4.4845,4.4067,4.3695,4.3655,4.3342,4.3182,4.3165,4.2776,4.2351,4.1892,4.1382,4.0654,3.9746,3.9508,3.9522,3.9772,3.9744,4.0077,4.086,4.0567,4.0146,3.9698,3.9388,3.9043,3.8755,3.8629,3.8858,3.9341,3.8893,3.841,3.7996,3.6525,3.5318,0.0,0.0,0.0,0.0,0.0,0.0,0.0,0.0,0.0,0.0,0.0,3.6087,3.6419,3.7904,3.8861,3.8941,3.8958,3.9259,4.0017,3.9699,3.9931,4.1152,4.1294,4.1453,4.1856,4.178,4.1824,4.2179,4.2049,4.2143,4.2722,4.2047,4.1992,4.3371,4.4932,4.5914,4.5966,4.6931,4.7596,4.7121,4.698,4.72,4.7991,4.814,4.8083,4.8083,4.8148,4.8184,4.8103,4.7477,4.6932,4.6915,4.6447,4.6074,4.5853,4.4669,4.3832,4.391,4.4182,4.4066,4.7165,4.7165,4.7183,4.7183,4.716,4.716,4.7116,4.7025,4.6963,4.6856,4.6767,4.6749,4.682,4.6927,4.691,4.6932,4.6901,4.6217,4.5841,4.5698,4.4907,4.4528,4.4493,4.3706,4.3331,4.3313,4.2673,4.2351,4.2331,4.2348,4.2274,4.2144,4.1919,4.1347,4.05,4.018,3.9916,3.9725,3.9801,4.0221,4.0877,4.0112,3.9646,3.9526,3.8836,3.8094,3.7409,3.8082,3.8168,3.7581,3.8203,3.8617,3.8627,3.7275,3.6502,0.0,3.5353,0.0,0.0,0.0,0.0,0.0,0.0,0.0,0.0,3.7094,3.6967,3.7614,3.8973,3.9866,4.0047,4.0155,4.053,4.1207,4.1314,4.1582,4.2282,4.2371,4.2351,4.2331,4.2079,4.1866,4.1858,4.1466,4.1447,4.1973,4.1773,4.2265,4.4492,4.5483,4.5924,4.6165,4.6803,4.6993,4.7138,4.7258,4.731,4.7482,4.7689,4.7665,4.7551,4.7561,4.7528,4.7528,4.7284,4.7107,4.7107,4.6248,4.5797,4.6081,4.4984,4.4115,4.4278,4.4535,4.4411,4.8053,4.8072,4.8034,4.8053,4.8053,4.8053,4.7749,4.7218,4.6747,4.6104,4.5452,4.5452,4.5869,4.6486,4.6504,4.6608,4.6733,4.6442,4.6026,4.5497,4.456,4.4119,4.4065,4.329,4.2912,4.2912,4.2768,4.2617,4.2458,4.2458,4.2074,4.1341,4.1283,4.0753,3.9828,0.0,0.0,0.0,4.0049,4.0756,4.0877,4.0135,3.9405,3.8819,3.8099,0.0,3.6611,3.7267,3.765,3.7547,3.822,0.0,0.0,0.0,0.0,0.0,0.0,0.0,0.0,0.0,0.0,0.0,3.9949,3.9774,3.8868,3.8163,3.7871,3.8017,3.8866,3.9661,4.0275,4.0962,4.1685,4.2371,4.2479,4.2551,4.2696,4.2696,4.2656,4.2478,4.2358,4.2213,4.2061,4.1823,4.1652,4.1724,4.241,4.3117,4.3577,4.3914,4.3897,4.3914,4.4604,4.5182,4.5742,4.5845,4.6079,4.6665,4.7372,4.7372,4.6896,4.7224,4.7593,4.7541,4.7152,4.6677,4.6677,4.6502,4.6117,4.5699,4.5637,4.5513,4.471,4.4167,4.368,4.8324,4.8324,4.8324,4.8324,0.0,4.8383,4.803,4.7315,4.6933,4.6275,4.5491,4.5491,4.5747,4.613,4.6148,4.6206,4.6283,4.5786,4.5385,4.5059,4.4163,4.3761,4.3743,4.3342,4.3142,4.3142,4.3142,4.3087,4.2995,4.3014,4.2758,4.2285,4.2038,4.1669,4.1293,4.108,4.0515,3.9543,4.0309,4.0833,4.1013,4.0279,3.9645,3.9129,3.8405,0.0,0.0,0.0,0.0,0.0,0.0,0.0,0.0,3.8755,0.0,3.8858,3.8998,3.9316,3.9924,4.0202,4.0689,4.1469,4.177,4.1438,4.0268,3.9436,3.9347,4.0095,4.0568,4.1097,4.1864,4.2703,4.3178,4.316,4.3142,4.3142,4.3142,4.3142,4.3087,4.2921,4.2771,4.2596,4.2274,4.2082,4.2132,4.2399,4.2694,4.3166,4.3637,4.3741,4.3638,4.3258,4.3103,4.3586,4.4561,4.4527,4.4596,4.5285,4.5458,4.5458,4.5458,4.5458,4.5579,4.5889,4.5699,4.5475,4.5492,4.5734,4.5862,4.5535,4.5637,4.5716,4.5072,4.4597,4.4145,4.8401,4.8401,4.8401,4.8401,4.8402,4.8587,4.8124,4.7219,0.0,0.0,0.0,4.557,4.5662,4.579,4.579,4.579,4.5735,4.5109,4.4723,4.4558,4.3894,4.3582,4.3582,4.3582,4.36,4.3582,4.3582,4.3565,4.3549,4.3549,4.3532,4.3462,4.305,4.292,4.3014,4.2655,4.1971,4.0969,4.0828,4.0981,4.1361,4.0617,4.0035,3.9678,3.8967,3.8244,3.7515,3.8426,3.8653,3.8044,3.8892,3.9506,3.9653,3.967,3.9825,4.0172,4.0308,4.077,4.1684,4.1378,4.1804,4.3399,4.3069,4.2399,4.1428,4.0643,4.0746,4.2071,4.2421,4.2862,4.3545,4.4464,4.4758,4.4114,4.404,4.3986,4.3875,4.3785,4.3697,4.341,4.316,4.2921,4.2575,4.2374,4.2541,4.326,4.3115,4.303,4.4025,4.4259,4.4052,4.3534,4.312,4.3017,4.3862,4.3931,4.3655,4.4311,4.3914,4.3603,4.3862,4.3603,4.3534,4.438,4.4311,4.4449,4.4552,4.5079,4.538,4.5414,4.5414,4.5414,4.5388,4.5238,4.4923,4.8821,4.8821,4.8803,4.8803,4.8803,4.8856,4.8002,4.6591,4.5871,4.5057,4.426,4.426,4.4686,4.5372,4.5407,4.5372,4.5354,4.5259,4.4814,4.4093,4.3982,4.3942,4.3942,4.3926,4.3923,4.3926,4.3926,4.3862,4.3788,4.3771,4.3669,4.3515,4.3427,4.3303,4.316,4.2939,4.2733,4.2567,4.2157,4.2006,4.2053,4.118,4.035,3.9623,3.8916,3.8178,3.7472,3.8336,3.8788,3.8681,3.9394,4.0203,4.1038,4.1093,4.1513,4.2352,4.2556,4.2796,4.3156,4.3184,4.3389,4.3818,4.3212,4.2445,4.1635,4.1453,4.1456,4.1753,4.2981,4.3812,4.4016,4.5317,4.6133,4.6021,4.6038,4.5797,4.5097,4.4883,4.4487,4.3709,4.3373,4.3196,4.3048,4.2898,4.3066,4.3647,4.3939,4.4056,4.4281,4.4311,4.4276,4.4173,4.4052,4.4087,4.4225,4.4242,4.4069,4.4259,4.4138,4.3793,4.3569,4.3345,4.3483,4.4173,4.4311,4.4535,4.5027,4.5294,4.5397,4.5414,4.5414,4.5414,4.5414,4.5344,4.5247,4.889,4.889,4.889,4.889,4.8834,4.798,4.6921,4.5788,4.4952,4.4376,4.4042,4.4005,4.4228,4.4581,4.4599,4.4581,4.4599,4.4599,4.4376,4.4023,4.4005,4.4005,4.4005,4.4005,4.4005,4.4005,4.4005,4.3974,4.3913,4.3913,4.3846,4.3765,4.3682,4.3533,4.3214,4.3214,4.3232,4.3196,4.2807,4.2498,4.236,4.194,4.1502,4.1045,4.0261,3.971,3.9354,3.9437,3.9711,4.0142,4.0632,4.1284,4.2135,4.2226,4.2502,4.3069,4.3251,4.341,4.3652,4.3734,4.383,4.3971,4.3652,4.3299,4.2927,4.25,4.2445,4.289,4.4005,4.4692,4.4729,4.5788,4.6513,4.6513,4.6122,4.5846,4.5797,4.5375,4.4868,4.4312,4.3769,4.3557,4.3761,4.3742,4.408,4.4847,4.52,4.5183,4.4923,4.4889,4.4596,4.3897,4.3707,4.388,4.4173,4.3552,4.3483,4.4121,4.3586,4.3379,4.3517,4.3517,4.3534,4.4138,4.4311,4.4432,4.4803,4.5139,4.5345,4.5414,4.5414,4.5414,4.5414,4.5414,4.5371,4.889,4.889,4.889,4.889,4.876,4.7181,4.6122,4.5472,4.4469,4.4005,4.4005,4.4005,4.4005,4.4005,4.4005,4.4082,4.4196,4.4066,4.4066,4.4202,4.4051,4.3974,4.3974,4.3989,4.4005,4.4005,4.4005,4.4005,4.4005,4.4005,4.4005,4.3989,4.3867,4.3654,4.3339,4.3629,4.3754,4.3755,4.3452,4.312,4.2732,4.2693,4.2577,4.2384,4.1809,4.1486,4.1488,4.1084,4.116,4.1756,4.1995,4.2396,4.2977,4.305,4.3142,4.3356,4.3461,4.3617,4.3786,4.3881,4.3945,4.3989,4.4191,4.4209,4.3986,4.3633,4.3503,4.4023,4.4729,4.5268,4.5379,4.6215,4.6773,4.6735,4.6403,4.6333,4.647,4.5993,4.5428,4.5106,4.452,4.4305,4.4638,4.4729,4.5087,4.5816,4.629,4.6224,4.5701,4.5563,4.5052,4.4215,4.3757,4.4,4.4354,4.3534,4.3258,4.4173,4.3241,4.3069,4.3569,4.3396,4.3293,4.3793,4.4018,4.4121,4.4294,4.4906,4.5328,4.5414,4.5414,4.5414,4.5414,4.5414,4.5414,4.889,4.889,4.889,4.889,4.8686,4.7163,4.6438,4.6122,4.4692,4.4005,4.4061,4.4023,4.4042,4.4005,4.4042,4.4366,4.4876,4.4246,4.4253,4.4722,4.4216,4.3915,4.3913,4.3974,4.4005,4.4005,4.4005,4.3989,4.4005,4.4005,4.4005,4.3989,4.3867,4.3771,4.3793,4.4265,4.4544,4.4599,4.4563,4.4161,4.3447,4.3232,4.3123,4.3105,4.3014,4.2978,4.2869,4.3121,4.319,4.3281,4.3263,4.3335,4.3427,4.3427,4.3497,4.3565,4.3582,4.3684,4.3865,4.3942,4.3989,4.4061,4.4711,4.4822,4.4172,4.4674,4.4729,4.4413,4.4841,4.5268,4.5379,4.6605,4.7423,4.7499,4.7893,4.8249,4.7547,4.7257,4.6818,4.6063,4.568,4.5718,4.57,4.5773,4.5896,4.6206,4.6751,4.688,4.6259,4.6038,4.5928,4.5542,4.5329,4.5113,4.507,4.463,4.4121,4.4207,4.3672,4.3362,4.3345,4.2965,4.2413,4.3534,4.3483,4.3724,4.4345,4.4889,4.538,4.5414,4.5414,4.5414,4.5414,4.5414,4.5414,4.889,4.889,4.889,4.8612,4.8054,4.6977,4.6215,4.5677,4.4525,4.4283,4.4748,4.4681,4.47,4.4748,4.4681,4.4819,4.5047,4.4702,4.4428,4.4284,4.3985,4.3853,4.3835,4.3867,4.3915,4.3926,4.3926,4.3942,4.3989,4.4005,4.3974,4.3945,4.3835,4.3788,4.3824,4.3932,4.401,4.4044,4.401,4.3828,4.3534,4.3428,4.3375,4.332,4.2918,4.2661,4.2624,4.229,4.2304,4.2727,4.28,4.3002,4.3479,4.3479,4.3566,4.3703,4.3769,4.3832,4.3942,4.3942,4.3942,4.3989,4.4804,4.5119,4.4859,4.5528,4.5825,4.5565,4.5379,4.5287,4.5398,4.6327,4.7164,4.7559,4.7915,4.8085,4.8144,4.7629,4.7114,4.6728,4.6214,4.614,4.6581,4.704,4.7196,4.7081,4.7319,4.7226,4.6701,4.6387,4.6161,4.5995,4.5675,4.5225,4.4872,4.4544,4.4328,4.4259,4.4069,4.3862,4.3741,4.3638,4.3517,4.3793,4.3793,4.4087,4.4872,4.5113,4.5414,4.5414,4.5414,4.5414,4.5414,4.5414,4.5414,4.889,4.889,4.889,4.8574,4.798,4.7181,4.6494,4.5881,4.5064,4.5045,4.5565,4.5263,4.543,4.5832,4.5582,4.5514,4.5646,4.519,4.4751,4.4328,4.3957,4.3736,4.3736,4.3788,4.3837,4.3867,4.3883,4.3897,4.3926,4.3961,4.3913,4.3867,4.3837,4.3788,4.3806,4.3801,4.3879,4.3931,4.3861,4.3828,4.3809,4.3625,4.3479,4.3424,4.2928,4.2616,4.2616,4.2066,4.2029,4.258,4.2635,4.2873,4.3442,4.3479,4.3566,4.3719,4.3818,4.3881,4.3926,4.3897,4.3899,4.4,4.474,4.5238,4.5384,4.5978,4.6405,4.6368,4.5923,4.5588,4.5644,4.609,4.665,4.7158,4.7364,4.7719,4.8016,4.7721,4.7555,4.7388,4.7021,4.6764,4.7351,4.7865,4.8041,4.7759,4.7695,4.7545,4.7089,4.6672,4.6381,4.6193,4.5803,4.5226,4.4449,4.4052,4.4052,4.4,4.3897,4.3949,4.4207,4.4276,4.4276,4.4087,4.4259,4.4414,4.4716,4.5027,4.5414,4.5414,4.5414,4.5414,4.5414,4.5414,4.5414,4.889,4.889,4.889,4.8872,4.876,4.7943,4.759,4.7367,4.6643,4.6382,4.631,4.5578,4.6008,4.7305,4.6481,4.6522,4.6874,4.5549,4.5127,4.5369,4.4264,4.3635,4.3615,4.3736,4.3804,4.3786,4.3804,4.382,4.382,4.382,4.3804,4.3804,4.3804,4.3788,4.3861,4.4295,4.4703,4.4574,4.4504,4.458,4.4507,4.3864,4.3479,4.3479,4.3441,4.3386,4.3387,4.3387,4.3387,4.3441,4.3387,4.3442,4.3479,4.3496,4.3531,4.3615,4.3736,4.3804,4.3802,4.382,4.382,4.3913,4.4576,4.5036,4.5156,4.5842,4.6305,4.6305,4.6231,4.6175,4.6175,4.6212,4.6345,4.6462,4.6964,4.7316,4.7445,4.7959,4.8214,4.8214,4.8049,4.7976,4.8177,4.825,4.8191,4.8052,4.7992,4.7811,4.7392,4.7062,4.6678,4.6291,4.591,4.5423,4.4466,4.419,4.369,4.3603,4.3862,4.3586,4.3983,4.4311,4.4311,4.4294,4.4294,4.4345,4.4483,4.4785,4.5242,4.5414,4.5414,4.5414,4.5414,4.5414,4.5414,4.889,4.889,4.889,4.889,4.8797,4.8054,4.7701,4.7608,4.6847,4.6776,4.7097,4.6753,4.6887,4.7388,4.6948,4.6691,4.6506,4.5808,4.5111,4.4488,4.4303,4.4028,4.3567,4.3583,4.3617,4.3667,4.3667,4.3719,4.3788,4.3788,4.3788,4.3788,4.3719,4.3734,4.3855,4.3927,4.4023,4.4127,4.4024,4.392,4.3938,4.3644,4.3479,4.3479,4.3479,4.3479,4.3479,4.3479,4.3479,4.3479,4.3479,4.3479,4.3496,4.3531,4.3565,4.3599,4.3736,4.3788,4.3788,4.3788,4.3788,4.3859,4.4543,4.4986,4.5149,4.5757,4.6238,4.6238,4.6238,4.6221,4.6187,4.6204,4.6425,4.6855,4.7113,4.7427,4.7868,4.8178,4.8324,4.8324,4.8324,4.8324,4.8324,4.8324,4.8267,4.8191,4.819,4.8052,4.7749,4.7266,4.6747,4.6394,4.5903,4.5105,4.3775,4.4354,4.4561,4.4268,4.4165,4.3949,4.4104,4.4328,4.438,4.4156,4.4156,4.4578,4.4803,4.5027,4.5414,4.5414,4.5414,4.5414,4.5414,4.5414,4.5414,4.889,4.889,4.889,4.889,4.8834,4.8333,4.8091,4.7999,4.7203,4.7151,4.749,4.7164,4.7094,4.7132,4.6618,4.6269,4.5992,4.5681,4.4929,4.3956,4.4195,4.403,4.3571,4.3479,4.3532,4.3548,4.3565,4.3599,4.3686,4.3703,4.3738,4.3701,4.3686,4.3753,4.3832,4.3718,4.3703,4.3753,4.3635,4.3532,4.3515,4.3479,4.3479,4.3479,4.3479,4.3479,4.3479,4.3479,4.3479,4.3479,4.3479,4.3479,4.3496,4.3531,4.3565,4.3565,4.3634,4.3703,4.3721,4.3703,4.3703,4.3721,4.4182,4.4587,4.4935,4.547,4.5839,4.6078,4.617,4.6117,4.6009,4.5842,4.5935,4.6433,4.6691,4.7004,4.7481,4.7737,4.7993,4.8251,4.8324,4.8324,4.8324,4.8324,4.8306,4.8324,4.8248,4.8113,4.787,4.7266,4.6683,4.6418,4.5854,4.5148,4.4458,4.4837,4.4199,4.3802,4.4371,4.4216,4.4147,4.4337,4.4389,4.4096,4.4268,4.4803,4.5139,4.5345,4.5414,4.5414,4.5414,4.5414,4.5414,4.5414,4.5414,4.889,4.889,4.889,4.889,4.889,4.8816,4.8872,4.865,4.7968,4.7656,4.764,4.6724,4.6819,4.6874,4.5901,4.5314,4.559,4.5223,4.4782,4.4433,4.4011,4.3681,4.3515,4.3479,4.3496,4.3496,4.3515,4.3533,4.3624,4.3604,4.3584,4.3671,4.3773,4.3818,4.3897,4.3865,4.3851,4.3786,4.3686,4.3565,4.3515,4.3496,4.3479,4.3479,4.3479,4.3479,4.3479,4.3479,4.3479,4.3479,4.3479,4.3479,4.3479,4.3496,4.3496,4.3496,4.3496,4.3515,4.3496,4.3532,4.3513,4.3532,4.357,4.397,4.4592,4.4831,4.5125,4.5622,4.5825,4.5881,4.5626,4.5222,4.4928,4.4837,4.5681,4.6085,4.6195,4.6691,4.7424,4.8103,4.8324,4.8324,4.8324,4.8324,4.8305,4.8267,4.8131,4.7931,4.7681,4.7066,4.6519,4.6193,4.5811,4.526,4.526,4.5242,4.3958,4.3078,4.3992,4.4449,4.444,4.4561,4.4785,4.463,4.4708,4.519,4.5242,4.5414,4.5414,4.5414,4.5414,4.5414,4.5414,4.5414,4.5414,4.889,4.889,4.889,4.889,4.889,4.889,4.889,4.8854,4.8543,4.838,4.8235,4.7924,4.7555,4.7114,4.6544,4.5883,4.5149,4.5314,4.4966,4.4176,4.4745,4.4524,4.3663,4.3497,4.3479,4.3479,4.3479,4.3791,4.414,4.3825,4.3839,4.426,4.4013,4.3837,4.3897,4.3851,4.3853,4.3851,4.3701,4.36,4.3565,4.3513,4.3496,4.3479,4.3479,4.3479,4.3479,4.3479,4.3479,4.3479,4.3479,4.3479,4.3479,4.3479,4.3479,4.3479,4.3479,4.3479,4.3479,4.3479,4.3479,4.3479,4.3479,4.3606,4.3862,4.3972,4.4082,4.4321,4.4321,4.4285,4.4286,4.458,4.4856,4.5443,4.5755,4.5865,4.5975,4.6617,4.7406,4.8122,4.8324,4.8324,4.8324,4.8324,4.8229,4.8131,4.8032,4.785,4.7454,4.7044,4.6613,4.6242,4.5835,4.5459,4.5278,4.5252,4.463,4.3889,4.4346,4.4734,4.4751,4.482,4.5044,4.5121,4.5259,4.5345,4.5397,4.5414,4.5414,4.5414,4.5414,4.5414,4.5414,4.5414,4.5414,4.889,4.889,4.889,4.889,4.8853,4.8593,4.8631,4.8727,4.8101,4.7957,4.8052,4.7997,4.7665,4.7168,4.7094,4.6544,4.5663,4.5847,4.5351,4.4635,4.5314,4.5149,4.4011,4.3608,4.3479,4.3479,4.3479,4.392,4.4654,4.4302,4.4299,4.4716,4.4454,4.4147,4.3984,4.3897,4.3899,4.3881,4.3783,4.3684,4.3617,4.3548,4.3513,4.3515,4.3479,4.3479,4.3479,4.3479,4.3479,4.3479,4.3479,4.3479,4.3479,4.3479,4.3479,4.3479,4.3479,4.3479,4.3479,4.3479,4.3479,4.3479,4.3479,4.3479,4.3497,4.3479,4.3479,4.3479,4.3551,4.3479,4.3589,4.3901,4.4599,4.5369,4.5424,4.5608,4.5902,4.6617,4.7406,4.8048,4.8324,4.8324,4.8324,4.8209,4.8132,4.7994,4.7832,4.7687,4.7302,4.6994,4.6649,4.6381,4.6119,4.5653,4.5104,4.5087,4.5234,4.501,4.494,4.5035,4.5027,4.5121,4.5276,4.5225,4.5294,4.5363,4.5414,4.5414,4.5414,4.5414,4.5414,4.5414,4.5414,4.5414,4.5414,4.889,4.889,4.889,4.889,4.8816,4.8186,4.8263,4.849,4.7256,4.6963,4.7279,4.7444,4.7241,4.7131,4.7223,4.7131,4.6984,4.6526,4.614,4.5938,4.603,4.5553,4.4599,4.3956,4.3718,4.3663,4.3534,4.403,4.5057,4.4763,4.4852,4.5229,4.5188,4.4737,4.431,4.4116,4.4088,4.3931,4.3897,4.38,4.3651,4.3617,4.3565,4.3496,4.3496,4.3496,4.3496,4.3532,4.3496,4.3479,4.3479,4.3479,4.3479,4.3479,4.3479,4.3479,4.3479,4.3479,4.3479,4.3479,4.3479,4.3479,4.3479,4.3479,4.3479,4.3479,4.3479,4.3479,4.3479,4.3534,4.3608,4.3608,4.3993,4.458,4.4984,4.5333,4.5938,4.6691,4.7406,4.8067,4.8324,4.8324,4.8305,4.8151,4.8052,4.7911,4.7642,4.7472,4.7232,4.6962,4.6684,4.6447,4.6186,4.5775,4.5191,4.507,4.518,4.5127,4.5083,4.5093,4.5155,4.5258,4.5327,4.5302,4.5311,4.538,4.5414,4.5414,4.5414,4.5414,4.5414,4.5414,4.5414,4.5414,4.5414,4.889,4.889,4.889,4.889,4.8854,4.8598,4.8581,4.8732,4.8163,4.7555,4.7482,4.7812,4.7626,4.7204,4.77,4.7663,4.7241,4.7425,4.7315,4.6837,4.6782,4.5957,4.4911,4.4525,4.4378,4.4323,4.3956,4.4525,4.625,4.5386,4.5511,4.6703,4.6163,4.5618,4.5048,4.4934,4.4599,4.4066,4.3947,4.3899,4.3816,4.3666,4.3599,4.36,4.3565,4.3565,4.3583,4.3583,4.3548,4.3515,4.3479,4.3479,4.3479,4.3479,4.3479,4.3479,4.3479,4.3479,4.3479,4.3479,4.3479,4.3479,4.3479,4.3479,4.3479,4.3479,4.3479,4.3479,4.3497,4.3736,4.4103,4.3883,4.3993,4.4617,4.5278,4.592,4.6581,4.6966,4.7406,4.8141,4.8306,4.8324,4.8287,4.8229,4.809,4.7847,4.7639,4.7425,4.7183,4.7025,4.6795,4.6326,4.5988,4.5684,4.5381,4.5196,4.5079,4.5052,4.5025,4.5008,4.5089,4.5159,4.522,4.523,4.5292,4.5371,4.5397,4.5414,4.5414,4.5414,4.5414,4.5414,4.5414,4.5414,4.5414,4.889,4.889,4.889,4.889,4.8836,4.8488,4.8472,4.8586,4.82,4.7942,4.7831,4.8086,4.803,4.7681,4.8067,4.7846,4.7223,4.7223,4.7186,4.7259,4.7424,4.6691,4.5553,4.5204,4.5204,4.5168,4.4727,4.5535,4.6691,4.614,4.6451,4.7073,4.6978,4.6268,4.5324,4.5656,4.5175,4.4302,4.4255,4.4337,4.3918,4.38,4.3718,4.3684,4.3684,4.3684,4.3703,4.3634,4.3565,4.3513,4.3479,4.3479,4.3479,4.3479,4.3479,4.3479,4.3479,4.3479,4.3479,4.3479,4.3479,4.3479,4.3479,4.3479,4.3479,4.3479,4.3479,4.3479,4.3479,4.3736,4.4103,4.4305,4.4709,4.5278,4.6214,4.6929,4.7131,4.7076,4.7461,4.8012,4.8324,4.8324,4.8305,4.8229,4.8012,4.7765,4.7593,4.7338,4.7093,4.702,4.6795,4.6277,4.5963,4.5735,4.5398,4.5177,4.5005,4.4951,4.4886,4.4886,4.4978,4.5059,4.5113,4.5194,4.5247,4.5344,4.5344,4.5371,4.5414,4.5414,4.5414,4.5414,4.5414,4.5414,4.5414,4.8943,4.8942,4.8943,4.8943,4.8849,4.8134,4.8195,4.842,4.7887,4.7739,4.8031,4.8233,4.8159,4.8196,4.814,4.7921,4.7223,4.6893,4.6783,4.7204,4.7664,4.7388,4.6159,4.603,4.603,4.5975,4.5957,4.6397,4.704,4.7131,4.7224,4.7535,4.7571,4.6752,4.5923,4.6104,4.5528,4.4395,4.4562,4.4514,4.404,4.3881,4.3851,4.3802,4.3786,4.3804,4.3771,4.3703,4.36,4.3479,4.3479,4.3479,4.3479,4.3479,4.3479,4.3479,4.3479,4.3479,4.3479,4.3479,4.3479,4.3479,4.3479,4.3479,4.3479,4.3479,4.3479,4.3479,4.3479,4.3608,4.3975,4.4984,4.5736,4.6104,4.7315,4.7645,4.7424,4.7223,4.7498,4.814,4.8306,4.8324,4.8248,4.8132,4.797,4.7868,4.7618,4.732,4.703,4.6824,4.6542,4.6087,4.5912,4.587,4.5503,4.515,4.4951,4.4831,4.472,4.472,4.4858,4.4923,4.5032,4.5035,4.4917,4.5022,4.5247,4.5318,4.5241,4.5371,4.5371,4.5371,4.5414,4.5414,4.5414,4.9195,4.9289,4.916,4.9211,4.9204,4.8807,4.8707,4.8766,4.8292,4.7811,4.759,4.8031,4.7957,4.7461,4.8012,4.8177,4.7865,4.7553,4.7609,4.7168,4.7939,4.7755,4.6947,4.6782,4.6819,4.6709,4.6177,4.6691,4.759,4.7517,4.7537,4.8218,4.8125,4.7622,4.6459,4.6345,4.5677,4.4339,4.4265,4.4268,4.4069,4.3929,4.3915,4.3883,4.3883,4.3851,4.3804,4.3771,4.3686,4.3549,4.3479,4.3479,4.3479,4.3479,4.3479,4.3479,4.3479,4.3479,4.3497,4.3516,4.3479,4.3497,4.3552,4.3479,4.3479,4.3497,4.3497,4.3497,4.3497,4.3754,4.4452,4.5296,4.6159,4.6782,4.7204,4.7645,4.7921,4.8012,4.8104,4.8251,4.8324,4.8305,4.8305,4.823,4.8092,4.7931,4.7642,4.7323,4.7012,4.6666,4.6217,4.5786,4.5658,4.5555,4.5203,4.4923,4.4858,4.472,4.4654,4.4395,4.4533,4.4616,4.4613,4.4531,4.4414,4.4614,4.478,4.473,4.4577,4.493,4.53,4.5344,4.5371,4.5371,4.5371,4.9355,4.938,4.934,4.9337,4.9337,4.9044,4.889,4.8803,4.8458,4.8086,4.7829,4.8159,4.8049,4.7645,4.77,4.7572,4.7223,4.7186,4.7168,4.7113,4.7553,4.748,4.7223,4.7149,4.7241,4.7498,4.7352,4.7683,4.8013,4.7995,4.8071,4.855,4.8587,4.7789,4.6812,4.6828,4.5918,4.4506,4.4432,4.4451,4.4063,4.3958,4.3942,4.3961,4.3945,4.3929,4.3915,4.3818,4.3753,4.3652,4.3549,4.3479,4.3479,4.3479,4.3479,4.3479,4.3479,4.3479,4.3516,4.3809,4.3901,4.3551,4.3809,4.4011,4.392,4.3754,4.3718,4.3864,4.3882,4.3955,4.5131,4.5993,4.6782,4.7443,4.7645,4.7865,4.8195,4.8324,4.8324,4.8324,4.8324,4.8229,4.8209,4.8152,4.7953,4.7684,4.7284,4.6972,4.6672,4.6308,4.5887,4.5529,4.5336,4.5123,4.4831,4.4637,4.4665,4.4626,4.4626,4.4215,4.3982,4.4071,4.4099,4.3943,4.3751,4.3883,4.404,4.3973,4.4197,4.4833,4.523,4.5274,4.5274,4.5247,4.5247,4.9442,4.9476,4.9461,4.9461,4.9415,4.9127,4.8976,4.8907,4.8569,4.8402,4.8364,4.8345,4.8327,4.8179,4.7664,4.6911,4.6526,4.6287,4.6709,4.7388,4.748,4.7516,4.7406,4.7461,4.7682,4.8288,4.8216,4.8345,4.8345,4.842,4.8403,4.8569,4.8402,4.7677,4.6906,4.6995,4.6382,4.4674,4.5082,4.5082,4.4451,4.4268,4.4231,4.3989,4.3989,4.3974,4.3945,4.3867,4.3788,4.3771,4.3583,4.3496,4.3479,4.3479,4.3479,4.3479,4.3479,4.3479,4.3571,4.3956,4.4085,4.357,4.4213,4.4617,4.4507,4.436,4.4452,4.4488,4.4544,4.4544,4.5773,4.6507,4.7333,4.8012,4.8288,4.8324,4.8305,4.8305,4.8286,4.8286,4.8228,4.8131,4.8032,4.7933,4.7705,4.7428,4.7017,4.6654,4.6363,4.6038,4.5658,4.523,4.5032,4.4951,4.4665,4.4598,4.4598,4.4598,4.4598,4.4248,4.3724,4.3413,4.34,4.3216,4.3127,4.3163,4.3267,4.3371,4.3843,4.4675,4.5106,4.514,4.514,4.5113,4.5096,4.9717,4.9797,4.9707,4.9673,4.9673,4.943,4.9255,4.9193,4.8834,4.8785,4.8713,4.8605,4.8513,4.844,4.8271,4.7957,4.7481,4.7095,4.7223,4.7884,4.7939,4.7902,4.7828,4.7791,4.8105,4.8345,4.8419,4.8382,4.842,4.8401,4.8532,4.8567,4.8105,4.7306,4.6869,4.6624,4.642,4.5361,4.5769,4.5732,4.5268,4.5045,4.4729,4.4283,4.4246,4.4178,4.3987,4.3872,4.3754,4.3651,4.3566,4.3515,4.3552,4.3552,4.3608,4.3479,4.3479,4.3479,4.3552,4.3663,4.3681,4.3698,4.4323,4.4764,4.4911,4.5131,4.5241,4.5388,4.548,4.5626,4.5865,4.6709,4.7443,4.8048,4.8305,4.8305,4.8267,4.8228,4.8187,4.8149,4.809,4.7992,4.785,4.7708,4.7578,4.7363,4.7057,4.6654,4.6297,4.5945,4.5572,4.514,4.4709,4.4682,4.4598,4.4598,4.4598,4.4598,4.4581,4.4496,4.3859,4.2997,4.2651,4.2688,4.2349,4.2053,4.2258,4.2702,4.3445,4.4275,4.4643,4.5005,4.5005,4.4988,4.4848,4.9597,4.933,4.964,4.9561,4.9254,4.9356,4.9106,4.8658,4.8396,4.8277,4.826,4.8192,4.8326,4.842,4.8143,4.7941,4.7721,4.737,4.7572,4.8122,4.7883,4.7682,4.7755,4.7718,4.7757,4.7942,4.818,4.8457,4.855,4.8569,4.8624,4.8659,4.8307,4.7804,4.7259,4.7163,4.6661,4.6215,4.629,4.6345,4.5955,4.5881,4.5435,4.4952,4.4989,4.5015,4.4564,4.4463,4.4142,4.3801,4.3918,4.3863,4.3864,4.4158,4.4323,4.3718,4.3534,4.3497,4.3608,4.3809,4.4158,4.4232,4.4874,4.5516,4.5755,4.5938,4.5828,4.5608,4.6287,4.6342,4.5993,4.6984,4.7791,4.8137,4.8265,4.8228,4.8149,4.8052,4.7992,4.7949,4.7911,4.777,4.756,4.7472,4.7428,4.7254,4.7035,4.6695,4.628,4.5978,4.5675,4.53,4.4886,4.4682,4.4626,4.4598,4.4598,4.4598,4.4581,4.4496,4.4079,4.325,4.2692,4.2448,4.1948,4.1441,4.1907,4.2579,4.3243,4.3865,4.4385,4.4814,4.4896,4.4862,4.4695,4.9514,4.9002,4.9619,4.9356,4.8711,4.8976,4.878,4.8128,4.773,4.7835,4.8025,4.7884,4.8097,4.8378,4.8045,4.7638,4.7572,4.7316,4.7572,4.8067,4.7773,4.7406,4.7369,4.7352,4.7555,4.7942,4.8218,4.8569,4.8624,4.866,4.8769,4.8693,4.8693,4.8339,4.774,4.7571,4.7218,4.7014,4.694,4.6903,4.6568,4.6308,4.5862,4.5212,4.5825,4.5758,4.5082,4.5203,4.4898,4.461,4.4596,4.469,4.4323,4.5186,4.5259,4.4232,4.3864,4.3736,4.3901,4.4232,4.458,4.4599,4.559,4.6342,4.6764,4.6581,4.6232,4.5645,4.6397,4.6984,4.658,4.7424,4.8044,4.8169,4.8148,4.811,4.7992,4.7891,4.7747,4.7726,4.7687,4.756,4.7385,4.7276,4.7227,4.7183,4.6985,4.676,4.6387,4.6193,4.5887,4.5546,4.5194,4.4858,4.4709,4.4598,4.4598,4.4598,4.4581,4.4513,4.4079,4.3538,4.3098,4.2675,4.1907,4.1568,4.2025,4.2506,4.3152,4.3789,4.4321,4.462,4.4748,4.4742,4.4608,4.9836,4.9746,4.9792,4.9273,4.8504,4.8497,4.8405,4.8123,4.7425,4.7965,4.884,4.8203,4.8174,4.8693,4.7989,4.7902,4.7997,4.7684,4.7627,4.8196,4.8122,4.8031,4.8122,4.814,4.8144,4.8255,4.8476,4.8642,4.8714,4.8696,4.8732,4.8746,4.8284,4.7746,4.7924,4.7887,4.7664,4.7701,4.8203,4.7887,4.6717,4.5992,4.5249,4.4841,4.5157,4.5572,4.5418,4.5703,4.5856,4.5714,4.5699,4.5718,4.5663,4.5718,4.5847,4.5461,4.5039,4.4562,4.4617,4.4764,4.4966,4.5223,4.6104,4.6819,4.7223,4.759,4.7425,4.6947,4.7608,4.7626,4.7092,4.7677,4.802,4.807,4.801,4.7951,4.7832,4.7681,4.7554,4.7468,4.7428,4.7359,4.7223,4.7133,4.7043,4.6998,4.6911,4.6708,4.6501,4.6332,4.6038,4.5658,4.53,4.494,4.4709,4.4598,4.4598,4.4598,4.4581,4.4547,4.4248,4.391,4.3639,4.3098,4.2347,4.2076,4.2634,4.3064,4.3335,4.3741,4.4327,4.453,4.4598,4.4564,4.453,4.9189,4.9254,4.9626,4.9259,4.8508,4.8828,4.8702,4.8097,4.7387,4.7372,4.7901,4.7588,4.8044,4.8947,4.8533,4.8434,4.8621,4.8163,4.8033,4.8214,4.8324,4.8324,4.8306,4.8382,4.8495,4.8569,4.8678,4.8768,4.8804,4.8821,4.8839,4.8818,4.8558,4.841,4.8296,4.8351,4.8389,4.8481,4.8612,4.8277,4.7386,4.6791,4.6234,4.5491,4.6197,4.6188,4.6032,4.6461,4.6504,4.6304,4.6269,4.6324,4.6305,4.6636,4.7113,4.6562,4.6269,4.5883,4.548,4.5406,4.559,4.5993,4.6727,4.7223,4.7663,4.8012,4.7976,4.7168,4.7828,4.7845,4.7402,4.7767,4.7942,4.7988,4.7868,4.7747,4.7642,4.749,4.7374,4.7245,4.7178,4.7133,4.7129,4.7066,4.702,4.6998,4.6975,4.6865,4.6684,4.6501,4.6137,4.5709,4.5336,4.4968,4.4748,4.4598,4.4598,4.4598,4.4598,4.4564,4.4547,4.4265,4.4012,4.3995,4.3718,4.3565,4.3565,4.347,4.3606,4.3961,4.4378,4.4496,4.4598,4.4598,4.4344,4.8486,4.8431,4.9131,4.9008,4.8404,4.8817,4.8649,4.8134,4.6824,4.6828,4.7519,4.7748,4.8408,4.9083,4.9025,4.88,4.8874,4.866,4.8476,4.8344,4.8324,4.8324,4.8343,4.842,4.8513,4.8587,4.8714,4.8822,4.8874,4.8873,4.8873,4.889,4.8817,4.8834,4.8872,4.8816,4.8797,4.8797,4.8853,4.8444,4.7776,4.7627,4.7125,4.6921,4.7109,4.7319,4.6757,4.7276,4.7223,4.693,4.7095,4.7168,4.6966,4.7517,4.7847,4.7461,4.7278,4.7094,4.6654,4.6452,4.6581,4.6911,4.7388,4.77,4.8103,4.8288,4.8121,4.7497,4.7882,4.7842,4.7562,4.7833,4.7897,4.7863,4.772,4.7575,4.7468,4.7377,4.7245,4.7133,4.7088,4.7066,4.702,4.702,4.6998,4.6998,4.6998,4.6975,4.6749,4.6501,4.6045,4.5555,4.515,4.4831,4.472,4.4598,4.4598,4.4598,4.4598,4.4581,4.4564,4.4564,4.4429,4.4513,4.4598,4.4445,4.4073,4.3927,4.3859,4.4198,4.4496,4.4547,4.4598,4.4598,4.3988,4.8137,4.7443,4.8122,4.8365,4.8257,4.7473,4.7646,4.7969,4.5772,4.6528,4.8664,4.9193,4.8999,4.9193,4.9079,4.8943,4.8873,4.8513,4.8401,4.8343,4.8324,4.8324,4.8363,4.8438,4.8532,4.8624,4.875,4.8857,4.8891,4.889,4.889,4.889,4.889,4.889,4.889,4.889,4.889,4.889,4.889,4.8556,4.7999,4.7683,4.733,4.6921,4.7239,4.7579,4.7349,4.7978,4.8237,4.7829,4.7939,4.8031,4.7847,4.8086,4.814,4.8067,4.8012,4.7902,4.77,4.7278,4.7076,4.7314,4.7681,4.8085,4.8288,4.8324,4.8194,4.8025,4.8153,4.8053,4.7879,4.7884,4.7884,4.7762,4.7657,4.7533,4.7425,4.7316,4.7201,4.7048,4.7002,4.7043,4.6998,4.6998,4.6998,4.6998,4.6975,4.6952,4.6542,4.6235,4.5786,4.5319,4.4923,4.4665,4.4654,4.4598,4.4598,4.4598,4.4598,4.4598,4.4581,4.4598,4.4598,4.4598,4.4598,4.4598,4.4581,4.4361,4.4248,4.4462,4.4598,4.4598,4.4598,4.4643,4.3644,4.7087,4.7601,4.6775,4.7132,4.8276,4.7905,4.7913,4.7838,4.6129,4.6186,4.8029,4.8457,4.8971,4.923,4.9313,4.9115,4.8909,4.8786,4.8532,4.8363,4.8324,4.8324,4.8363,4.8458,4.8587,4.8642,4.8768,4.8874,4.8891,4.889,4.889,4.889,4.889,4.889,4.889,4.889,4.8891,4.889,4.889,4.8667,4.8481,4.7906,4.7553,4.7367,4.7355,4.7546,4.7515,4.8145,4.8328,4.8363,4.8324,4.8324,4.8324,4.8324,4.8324,4.8324,4.8324,4.8324,4.8324,4.7975,4.7846,4.7865,4.8122,4.8305,4.8305,4.8267,4.8246,4.8169,4.8128,4.8026,4.7943,4.7881,4.7861,4.7699,4.7593,4.749,4.7403,4.7312,4.7223,4.7111,4.7088,4.7088,4.7043,4.6998,4.6998,4.6998,4.6957,4.6842,4.6423,4.6005,4.5555,4.5203,4.4803,4.4626,4.4598,4.4598,4.4598,4.4598,4.4598,4.4598,4.4598,4.4598,4.4598,4.4598,4.4598,4.4598,4.4598,4.4598,4.4626,4.4637,4.4654,4.4626,4.4643,4.462,4.3691,4.6209,4.6688,4.6171,4.6765,4.7987,4.7544,4.7476,4.7382,4.5851,4.5877,4.6975,4.8014,4.8889,4.9377,4.9412,4.9232,4.8943,4.8785,4.8569,4.842,4.8324,4.8324,4.8382,4.8458,4.8587,4.8641,4.8785,4.889,4.889,4.889,4.889,4.889,4.889,4.889,4.8891,4.8874,4.8856,4.8874,4.8874,4.882,4.8692,4.8355,4.8041,4.7968,4.7954,4.792,4.7923,4.8274,4.8383,4.8363,4.8324,4.8324,4.8324,4.8324,4.8324,4.8324,4.8324,4.8324,4.8324,4.8306,4.8287,4.8213,4.8232,4.8305,4.8267,4.8226,4.8187,4.8087,4.8008,4.7927,4.7861,4.7819,4.7801,4.7678,4.7554,4.7468,4.7425,4.7356,4.7267,4.7196,4.7133,4.7088,4.7066,4.6998,4.6998,4.6911,4.6749,4.6566,4.6161,4.576,4.5389,4.5059,4.4748,4.4654,4.4598,4.4598,4.4598,4.4598,4.4598,4.4598,4.4598,4.4598,4.4598,4.4598,4.4598,4.4598,4.4598,4.4598,4.4682,4.4748,4.4748,4.4748,4.4497,4.4405,4.4126,4.5736,4.4556,4.664,4.7553,4.7547,4.6006,4.5929,4.6613,4.5257,4.5373,4.6987,4.8553,4.9327,4.9409,4.9297,4.9079,4.8909,4.8714,4.8495,4.8344,4.8324,4.8324,4.8382,4.8476,4.8587,4.866,4.8785,4.889,4.889,4.889,4.889,4.8855,4.8855,4.8855,4.8891,4.884,4.8804,4.8787,4.8787,4.8732,4.8678,4.8602,4.8529,4.8456,4.8384,4.8329,4.8329,4.8347,4.8401,4.8325,4.8324,4.8324,4.8324,4.8324,4.8324,4.8324,4.8324,4.8324,4.8324,4.8324,4.8324,4.8305,4.8305,4.8267,4.8208,4.8168,4.8107,4.8004,4.7922,4.7842,4.7759,4.7717,4.7717,4.7657,4.7554,4.749,4.7425,4.7359,4.7272,4.7219,4.7111,4.7002,4.7002,4.6998,4.6998,4.6865,4.6631,4.6284,4.5912,4.558,4.5203,4.4923,4.4682,4.4654,4.4598,4.4598,4.4598,4.4598,4.4598,4.4598,4.4598,4.4598,4.4598,4.4598,4.4598,4.4598,4.4615,4.4615,4.4709,4.4803,4.4896,4.4838,4.4517,4.4312,4.4226,4.5857,4.6288,4.6464,4.6818,4.7222,4.7024,4.7033,4.7163,4.6754,4.6806,4.7485,4.8669,4.9197,4.9197,4.9096,4.8978,4.8873,4.8678,4.8495,4.8325,4.8324,4.8324,4.8363,4.8476,4.8569,4.8641,4.8785,4.8873,4.889,4.8873,4.8856,4.8839,4.875,4.875,4.8786,4.8732,4.866,4.866,4.866,4.8642,4.8624,4.8642,4.8642,4.8569,4.8569,4.8513,4.8476,4.8438,4.8363,4.8306,4.8324,4.8324,4.8324,4.8324,4.8324,4.8324,4.8324,4.8324,4.8324,4.8324,4.8324,4.8305,4.8248,4.8228,4.8187,4.8067,4.7984,4.7902,4.7819,4.7759,4.7717,4.7717,4.7699,4.7696,4.7593,4.7511,4.7446,4.7341,4.7254,4.7223,4.7151,4.7043,4.702,4.6998,4.6975,4.6842,4.659,4.608,4.5632,4.5415,4.5113,4.4831,4.4626,4.4598,4.4598,4.4682,4.4626,4.4598,4.4598,4.4598,4.4598,4.4598,4.4598,4.4598,4.4598,4.4598,4.4598,4.4626,4.472,4.4814,4.4896,4.4978,4.479,4.4749,4.481,4.543,4.6061,4.6287,4.6452,4.6728,4.6963,4.7086,4.7159,4.7415,4.7598,4.7764,4.8503,4.8978,4.9029,4.8978,4.882,4.8785,4.8678,4.8495,4.8325,4.8324,4.8324,4.8363,4.8476,4.855,4.8623,4.875,4.8874,4.8891,4.8874,4.8803,4.8696,4.8624,4.8624,4.8661,4.8606,4.855,4.8569,4.8569,4.8532,4.8513,4.8532,4.8532,4.8495,4.8457,4.8438,4.8419,4.8363,4.8324,4.8324,4.8324,4.8324,4.8324,4.8324,4.8324,4.8324,4.8324,4.8324,4.8324,4.8324,4.8324,4.8305,4.8247,4.8189,4.813,4.8028,4.7925,4.7822,4.7759,4.7699,4.7699,4.7699,4.7696,4.7675,4.7593,4.7511,4.7446,4.7341,4.7232,4.7201,4.7151,4.7066,4.702,4.6975,4.6952,4.6772,4.6566,4.6013,4.5494,4.5257,4.5113,4.4886,4.4665,4.4637,4.4692,4.4803,4.4748,4.4626,4.4626,4.4682,4.4598,4.4598,4.4598,4.4598,4.4632,4.4649,4.4626,4.4654,4.4726,4.4793,4.4858,4.494,4.4995,4.5049,4.5059,4.4492,4.4059,4.6103,4.6617,4.6049,4.6158,4.6122,4.6158,4.7039,4.7497,4.7534,4.8489,4.8838,4.8873,4.8855,4.8767,4.8623,4.8605,4.8458,4.8344,4.8324,4.8324,4.8343,4.8438,4.8532,4.8624,4.8732,4.8839,4.8874,4.9027,4.89,4.8809,4.8937,4.8789,4.866,4.866,4.8605,4.855,4.8457,4.842,4.8401,4.842,4.842,4.8382,4.8343,4.8343,4.8343,4.8324,4.8324,4.8324,4.8324,4.8324,4.8324,4.8324,4.8324,4.8324,4.8324,4.8324,4.8324,4.8324,4.8324,4.8324,4.8305,4.8208,4.811,4.803,4.7927,4.7842,4.7759,4.7738,4.7699,4.7717,4.7696,4.7636,4.7551,4.7468,4.7425,4.7316,4.7205,4.7133,4.7084,4.702,4.702,4.6975,4.6929,4.6772,4.659,4.6308,4.5786,4.5283,4.515,4.5059,4.4886,4.4748,4.4831,4.4951,4.519,4.5165,4.4899,4.4848,4.4737,4.4727,4.475,4.4784,4.4733,4.4818,4.5207,4.5083,4.4722,4.4805,4.4963,4.4848,4.4913,4.5032,4.5086,4.489,4.4751,4.5898,4.6526,4.6764,4.6727,4.7076,4.7627,4.7941,4.8052,4.8089,4.8328,4.8569,4.8678,4.8532,4.8532,4.8514,4.8476,4.8382,4.8306,4.8324,4.8324,4.8343,4.8438,4.8532,4.8624,4.8715,4.8787,4.8935,4.9104,4.9344,4.9435,4.956,4.9264,4.8896,4.895,4.8786,4.8565,4.8455,4.8363,4.8306,4.8363,4.8343,4.8324,4.8324,4.8324,4.8324,4.8324,4.8324,4.8324,4.8324,4.8324,4.8324,4.8324,4.8324,4.8324,4.8324,4.8324,4.8324,4.8324,4.8324,4.8324,4.8324,4.8267,4.8149,4.805,4.797,4.7866,4.7822,4.7822,4.7762,4.7762,4.7699,4.7615,4.7511,4.7403,4.7338,4.7205,4.7111,4.7088,4.702,4.702,4.6998,4.6998,4.6934,4.6778,4.6613,4.6405,4.6112,4.5606,4.531,4.5274,4.523,4.515,4.5069,4.5177,4.55,4.5696,4.5483,4.5387,4.5473,4.542,4.5139,4.506,4.5179,4.5635,4.6223,4.5783,4.4981,4.5021,4.5145,4.4941,4.4831,4.4951,4.5005,4.4605,4.4668,4.5288,4.5992,4.6562,4.6636,4.6929,4.737,4.7663,4.7976,4.8306,4.8324,4.8363,4.8439,4.8382,4.8363,4.8439,4.8382,4.8306,4.8306,4.8324,4.8324,4.8343,4.8382,4.8457,4.8569,4.8624,4.8679,4.8864,4.8956,4.9176,4.9137,4.9922,4.9462,4.8893,4.9023,4.9262,4.8894,4.8563,4.8379,4.8361,4.8379,4.8324,4.8361,4.8361,4.8324,4.8324,4.8324,4.8324,4.8324,4.8324,4.8324,4.8324,4.8324,4.8324,4.8324,4.8324,4.8324,4.8324,4.8324,4.8324,4.8324,4.8324,4.8267,4.8228,4.8149,4.8068,4.7966,4.7945,4.7925,4.7866,4.7806,4.7702,4.7615,4.7468,4.7338,4.7227,4.7088,4.7043,4.702,4.6998,4.6998,4.6998,4.6998,4.698,4.6911,4.6824,4.6754,4.6429,4.5988,4.5709,4.558,4.5606,4.5606,4.5529,4.5494,4.5788,4.6152,4.6395,4.6317,4.6328,4.6309,4.6204,4.5999,4.5805,4.6244,4.6599,4.5872,4.5258,4.5348,4.5348,4.5111,4.4907,4.4831,4.4831,4.3934,4.3992,4.4568,4.5256,4.5791,4.5846,4.5902,4.5993,4.6728,4.7424,4.8067,4.8177,4.8196,4.8307,4.8324,4.8324,4.8344,4.8324,4.8324,4.8324,4.8324,4.8324,4.8324,4.8324,4.8401,4.8457,4.8568,4.8698,4.8772,4.9066,4.9246,4.8581,4.9793,4.9903,4.926,4.9774,5.0033,4.9664,4.9224,4.893,4.8746,4.8581,4.8398,4.8453,4.8416,4.8324,4.8324,4.8324,4.8324,4.8324,4.8324,4.8324,4.8324,4.8324,4.8324,4.8324,4.8324,4.8324,4.8324,4.8324,4.8324,4.8324,4.8324,4.8287,4.8248,4.8228,4.8148,4.8068,4.8048,4.8008,4.7949,4.7909,4.7827,4.766,4.749,4.7316,4.7156,4.7066,4.702,4.6998,4.6998,4.6998,4.6998,4.6998,4.6998,4.698,4.6957,4.6934,4.6754,4.6332,4.6161,4.6013,4.6112,4.6137,4.5963,4.5972,4.6118,4.6455,4.6796,4.7064,4.6894,4.7086,4.7347,4.6935,4.6532,4.6549,4.6616,4.5855,4.5449,4.5754,4.5652,4.5297,4.5077,4.489,4.4737,4.3961,4.3955,4.467,4.5064,4.5177,4.5089,4.544,4.6028,4.6122,4.6617,4.7296,4.7443,4.781,4.8269,4.8324,4.8324,4.8324,4.8324,4.8324,4.8324,4.8324,4.8324,4.8324,4.8324,4.84,4.8457,4.8586,4.8771,4.9139,4.967,5.0218,5.0288,5.1169,5.1224,5.0086,5.0765,5.0951,5.0508,5.0288,5.0123,5.0178,4.9609,4.9279,4.9077,4.8893,4.8453,4.8398,4.8343,4.8324,4.8324,4.8324,4.8324,4.8324,4.8343,4.8343,4.8324,4.8416,4.8416,4.8324,4.8324,4.8324,4.8324,4.8324,4.8324,4.8305,4.8286,4.8247,4.8169,4.813,4.8072,4.8032,4.7992,4.7891,4.7702,4.7511,4.7294,4.7088,4.7043,4.6998,4.6998,4.6998,4.6998,4.6998,4.6998,4.6998,4.6998,4.6998,4.6998,4.6975,4.6731,4.6684,4.659,4.6684,4.6661,4.6447,4.6361,4.6504,4.6467,4.6665,4.7012,4.7471,4.77,4.7882,4.7543,4.7259,4.7242,4.6802,4.5766,4.5551,4.6143,4.5923,4.5534,4.5229,4.506,4.4795,4.3974,4.4,4.4348,4.4502,4.4452,4.4314,4.4556,4.4979,4.5258,4.5626,4.6287,4.7113,4.7921,4.8326,4.8343,4.8324,4.8324,4.8324,4.8324,4.8324,4.8324,4.8324,4.8324,4.8324,4.8343,4.8401,4.8419,4.8713,4.9301,4.9797,5.0196,5.0637,5.1775,5.2197,5.1077,5.1518,5.1811,5.1353,5.1334,5.1481,5.1555,5.0839,5.0196,4.9884,4.9426,4.8967,4.8691,4.8655,4.8581,4.8746,4.893,4.893,4.8948,4.8948,4.8912,4.8912,4.8893,4.871,4.8508,4.8379,4.8398,4.8398,4.8324,4.8324,4.8324,4.8305,4.8305,4.8247,4.8229,4.8172,4.8131,4.8092,4.7909,4.772,4.7472,4.7254,4.7116,4.702,4.6998,4.6998,4.6998,4.6998,4.6998,4.6998,4.6998,4.6998,4.6998,4.7015,4.7015,4.7105,4.7069,4.6998,4.6998,4.698,4.6778,4.672,4.6791,4.6753,4.6758,4.7526,4.8195,4.8328,4.8342,4.8088,4.7919,4.7868,4.7225,4.6312,4.6397,4.7107,4.6532,4.5754,4.5517,4.5297,4.4987,4.4005,4.3989,4.3963,4.3883,4.3804,4.3703,4.3689,4.3784,4.4413,4.478,4.5237,4.7187,4.8125,4.8254,4.8382,4.8325,4.8306,4.8324,4.8324,4.8324,4.8324,4.8324,4.8324,4.8324,4.8324,4.8324,4.8343,4.8509,4.8839,4.9591,5.0216,5.0253,5.0969,5.183,5.1518,5.172,5.216,5.216,5.2234,5.2527,5.227,5.1793,5.1187,5.0674,5.0233,4.9793,4.9481,4.9187,4.9058,4.9058,4.9279,4.9279,4.9408,4.9389,4.9647,4.9647,4.9738,4.9407,4.9022,4.8746,4.8655,4.8526,4.8416,4.8343,4.8361,4.8324,4.8324,4.8323,4.8305,4.8286,4.8246,4.8165,4.7982,4.7787,4.7555,4.7281,4.7165,4.7176,4.7283,4.7265,4.714,4.7158,4.7051,4.7051,4.7033,4.7033,4.7087,4.7051,4.7105,4.7283,4.7372,4.7158,4.6998,4.698,4.6957,4.7201,4.728,4.7429,4.759,4.8326,4.8833,4.8721,4.8694,4.8748,4.8595,4.8223,4.8003,4.7344,4.7665,4.7787,4.7022,4.621,4.6244,4.594,4.528,4.4005,4.4005,4.3989,4.3945,4.3883,4.3786,4.3684,4.3746,4.4377,4.4797,4.5306,4.6524,4.7519,4.7555,4.8236,4.8401,4.8324,4.8324,4.8324,4.8324,4.8324,4.8324,4.8324,4.8324,4.8324,4.8324,4.8398,4.871,4.9095,5.0013,5.0894,5.1446,5.227,5.2821,5.28,5.2913,5.2839,5.2821,5.2839,5.2983,5.2821,5.238,5.1922,5.1444,5.1004,5.071,5.0362,4.9794,4.9574,4.9353,4.9169,4.9315,4.9647,4.9941,5.0161,5.0472,5.0563,5.0362,4.9958,4.9536,4.9389,4.926,4.9077,4.8563,4.8508,4.8379,4.8398,4.8452,4.8434,4.8434,4.8393,4.8326,4.8177,4.8009,4.7823,4.7537,4.7347,4.789,4.8336,4.8032,4.7711,4.7551,4.7319,4.7301,4.7265,4.739,4.7788,4.7717,4.7301,4.7461,4.7693,4.7426,4.7158,4.6998,4.7015,4.7658,4.7902,4.8063,4.8263,4.8661,4.8893,4.8919,4.8907,4.8914,4.8578,4.8139,4.7953,4.8071,4.7902,4.7834,4.7225,4.6718,4.6802,4.6532,4.5821]}]]